[[{"header":{"parameterUnit":"m.s-1","parameterCategory":1,"la1":31.0,"la2":29.5877,"lo1":-88.7671,"lo2":-86.6584,"dy":0.0162,"dx":0.0185,"nx":115,"ny":88,"refTime":"2023-09-01T06:00:00:Z","depth":0,"parameterNumber":2,"parameterNumberName":"U-component_of_WINDS"},"data":[0.0,0.0,0.0,0.0,0.0,0.0,0.0,0.0,0.0,0.0,0.0,0.0,0.0,0.0,0.0,0.0,0.0,0.0,0.0,0.0,0.0,0.0,0.0,0.0,0.0,0.0,0.0,0.0,0.0,0.0,0.0,0.0,0.0,0.0,0.0,0.0,0.0,0.0,0.0,0.0,0.0,0.0,0.0,0.0,0.0,0.0,0.0,0.0,0.0,0.0,0.0,0.0,0.0,0.0,0.0,0.0,0.0,0.0,0.0,0.0,0.0,0.0,0.0,0.0,0.0,0.0,0.0,0.0,0.0,0.0,0.0,0.0,0.0,0.0,0.0,0.0,0.0,0.0,0.0,0.0,0.0,0.0,0.0,0.0,0.0,0.0,0.0,0.0,0.0,0.0,0.0,0.0,0.0,0.0,0.0,0.0,0.0,0.0,0.0,0.0,0.0,0.0,0.0,0.0,0.0,0.0,0.0,0.0,0.0,0.0,0.0,0.0,0.0,0.0,0.0,0.0,0.0,0.0,0.0,0.0,0.0,0.0,0.0,0.0,0.0,0.0,0.0,0.0,0.0,0.0,0.0,0.0,0.0,0.0,0.0,0.0,0.0,0.0,0.0,0.0,0.0,0.0,0.0,0.0,0.0,0.0,0.0,0.0,0.0,0.0,0.0,0.0,0.0,0.0,0.0,0.0,0.0,0.0,0.0,0.0,0.0,0.0,0.0,0.0,0.0,0.0,0.0,0.0,0.0,0.0,0.0,0.0,0.0,0.0,0.0,0.0,0.0,0.0,0.0,0.0,0.0,0.0,0.0,0.0,0.0,0.0,0.0,0.0,0.0,0.0,0.0,0.0,0.0,0.0,0.0,0.0,0.0,0.0,0.0,0.0,0.0,0.0,0.0,0.0,0.0,0.0,0.0,0.0,0.0,0.0,0.0,0.0,0.0,0.0,0.0,0.0,0.0,0.0,0.0,0.0,0.0,0.0,0.0,0.0,0.0,0.0,0.0,0.0,0.0,0.0,0.0,0.0,0.0,0.0,0.0,0.0,0.0,0.0,0.0,0.0,0.0,0.0,0.0,0.0,0.0,0.0,0.0,0.0,0.0,0.0,0.0,0.0,0.0,0.0,0.0,0.0,0.0,0.0,0.0,0.0,0.0,0.0,0.0,0.0,0.0,0.0,0.0,0.0,0.0,0.0,0.0,0.0,0.0,0.0,0.0,0.0,0.0,0.0,0.0,0.0,0.0,0.0,0.0,0.0,0.0,0.0,0.0,0.0,0.0,0.0,0.0,0.0,0.0,0.0,0.0,0.0,0.0,0.0,0.0,0.0,0.0,0.0,0.0,0.0,0.0,0.0,0.0,0.0,0.0,0.0,0.0,0.0,0.0,0.0,0.0,0.0,0.0,0.0,0.0,0.0,0.0,0.0,0.0,0.0,0.0,0.0,0.0,0.0,0.0,0.0,0.0,0.0,0.0,0.0,0.0,0.0,0.0,0.0,0.0,0.0,0.0,0.0,0.0,0.0,0.0,0.0,0.0,0.0,0.0,0.0,0.0,0.0,0.0,0.0,0.0,0.0,0.0,0.0,0.0,0.0,0.0,0.0,0.0,0.0,0.0,0.0,0.0,0.0,0.0,0.0,0.0,0.0,0.0,0.0,0.0,0.0,0.0,0.0,0.0,0.0,0.0,0.0,0.0,0.0,0.0,0.0,0.0,0.0,0.0,0.0,0.0,0.0,0.0,0.0,0.0,0.0,0.0,0.0,0.0,0.0,0.0,0.0,0.0,0.0,0.0,0.0,0.0,0.0,0.0,0.0,0.0,0.0,0.0,0.0,0.0,0.0,0.0,0.0,0.0,0.0,0.0,0.0,0.0,0.0,0.0,0.0,0.0,0.0,0.0,0.0,0.0,0.0,0.0,0.0,0.0,0.0,0.0,0.0,0.0,0.0,0.0,0.0,0.0,0.0,0.0,0.0,0.0,0.0,0.0,0.0,0.0,0.0,0.0,0.0,0.0,0.0,0.0,0.0,0.0,0.0,0.0,0.0,0.0,0.0,0.0,0.0,0.0,0.0,0.0,0.0,0.0,0.0,0.0,0.0,0.0,0.0,0.0,0.0,0.0,0.0,0.0,0.0,0.0,0.0,0.0,0.0,0.0,0.0,0.0,0.0,0.0,0.0,0.0,0.0,0.0,0.0,0.0,0.0,0.0,0.0,0.0,0.0,0.0,0.0,0.0,0.0,0.0,0.0,0.0,0.0,0.0,0.0,0.0,0.0,0.0,0.0,0.0,0.0,0.0,0.0,0.0,0.0,0.0,0.0,0.0,0.0,0.0,0.0,0.0,0.0,0.0,0.0,0.0,0.0,0.0,0.0,0.0,0.0,0.0,0.0,0.0,0.0,0.0,0.0,0.0,0.0,0.0,0.0,0.0,0.0,0.0,0.0,0.0,0.0,0.0,0.0,0.0,0.0,0.0,0.0,0.0,0.0,0.0,0.0,0.0,0.0,0.0,0.0,0.0,0.0,0.0,0.0,0.0,0.0,0.0,0.0,0.0,0.0,0.0,0.0,0.0,0.0,0.0,0.0,0.0,0.0,0.0,0.0,0.0,0.0,0.0,0.0,0.0,0.0,0.0,0.0,0.0,0.0,0.0,0.0,0.0,0.0,0.0,0.0,0.0,0.0,0.0,0.0,0.0,0.0,0.0,0.0,0.0,0.0,0.0,0.0,0.0,0.0,0.0,0.0,0.0,0.0,0.0,0.0,0.0,0.0,0.0,0.0,0.0,0.0,0.0,0.0,0.0,0.0,0.0,0.0,0.0,0.0,0.0,0.0,0.0,0.0,0.0,0.0,0.0,0.0,0.0,0.0,0.0,0.0,0.0,0.0,0.0,0.0,0.0,0.0,0.0,0.0,0.0,0.0,0.0,0.0,0.0,0.0,0.0,0.0,0.0,0.0,0.0,0.0,0.0,0.0,0.0,0.0,0.0,0.0,0.0,0.0,0.0,0.0,0.0,0.0,0.0,0.0,0.0,0.0,0.0,0.0,0.0,0.0,0.0,0.0,0.0,0.0,0.0,0.0,0.0,0.0,0.0,0.0,0.0,0.0,0.0,0.0,0.0,0.0,0.0,0.0,0.0,0.0,0.0,0.0,0.0,0.0,0.0,0.0,0.0,0.0,0.0,0.0,0.0,0.0,0.0,0.0,0.0,0.0,0.0,0.0,0.0,0.0,0.0,0.0,0.0,0.0,0.0,0.0,0.0,0.0,0.0,0.0,0.0,0.0,0.0,0.0,0.0,0.0,0.0,0.0,0.0,0.0,0.0,0.0,0.0,0.0,0.0,0.0,0.0,0.0,0.0,0.0,0.0,0.0,0.0,0.0,0.0,0.0,0.0,0.0,0.0,0.0,0.0,0.0,0.0,0.0,0.0,0.0,0.0,0.0,0.0,0.0,0.0,0.0,0.0,0.0,0.0,0.0,0.0,0.0,0.0,0.0,0.0,0.0,0.0,0.0,0.0,0.0,0.0,0.0,0.0,0.0,0.0,0.0,0.0,0.0,0.0,0.0,0.0,0.0,0.0,0.0,0.0,0.0,0.0,0.0,0.0,0.0,0.0,0.0,0.0,0.0,0.0,0.0,0.0,0.0,0.0,0.0,0.0,0.0,0.0,0.0,0.0,0.0,0.0,0.0,0.0,0.0,0.0,0.0,0.0,0.0,0.0,0.0,0.0,0.0,0.0,0.0,0.0,0.0,0.0,0.0,0.0,0.0,0.0,0.0,0.0,0.0,0.0,0.0,0.0,0.0,0.0,0.0,0.0,0.0,0.0,0.0,0.0,0.0,0.0,0.0,0.0,0.0,0.0,0.0,0.0,0.0,0.0,0.0,0.0,0.0,0.0,0.0,0.0,0.0,0.0,0.0,0.0,0.0,0.0,0.0,0.0,0.0,0.0,0.0,0.0,0.0,0.0,0.0,0.0,0.0,0.0,0.0,0.0,0.0,0.0,0.0,0.0,0.0,0.0,0.0,0.0,0.0,0.0,0.0,0.0,0.0,0.0,0.0,0.0,0.0,0.0,0.0,0.0,0.0,0.0,0.0,0.0,0.0,0.0,0.0,0.0,0.0,0.0,0.0,0.0,0.0,0.0,0.0,0.0,0.0,0.0,0.0,0.0,0.0,0.0,0.0,0.0,0.0,0.0,0.0,0.0,0.0,0.0,0.0,0.0,0.0,0.0,0.0,0.0,0.0,0.0,0.0,0.0,0.0,0.0,0.0,-1.6052,0.0,0.0,0.0,0.0,0.0,0.0,0.0,0.0,0.0,0.0,0.0,0.0,0.0,0.0,0.0,0.0,0.0,0.0,0.0,0.0,0.0,0.0,0.0,0.0,0.0,0.0,0.0,0.0,0.0,0.0,0.0,0.0,0.0,0.0,0.0,0.0,0.0,0.0,0.0,0.0,0.0,0.0,0.0,0.0,0.0,0.0,0.0,0.0,0.0,0.0,0.0,0.0,0.0,0.0,0.0,0.0,0.0,0.0,0.0,0.0,0.0,0.0,0.0,0.0,0.0,0.0,0.0,0.0,0.0,0.0,0.0,0.0,0.0,0.0,0.0,0.0,0.0,0.0,0.0,0.0,0.0,0.0,0.0,0.0,0.0,0.0,0.0,0.0,0.0,0.0,0.0,0.0,0.0,0.0,0.0,0.0,0.0,0.0,0.0,0.0,0.0,0.0,0.0,0.0,0.0,0.0,0.0,0.0,0.0,0.0,-1.6413,-1.5844,-1.7041,-1.7101,-1.5874,0.0,0.0,0.0,0.0,0.0,0.0,0.0,0.0,0.0,0.0,0.0,0.0,0.0,0.0,0.0,0.0,0.0,0.0,0.0,0.0,0.0,0.0,0.0,0.0,0.0,0.0,0.0,0.0,0.0,0.0,0.0,0.0,0.0,0.0,0.0,0.0,0.0,0.0,0.0,0.0,0.0,0.0,0.0,0.0,0.0,0.0,0.0,0.0,0.0,0.0,0.0,0.0,0.0,0.0,0.0,0.0,0.0,0.0,0.0,0.0,0.0,0.0,0.0,0.0,0.0,0.0,0.0,0.0,0.0,0.0,0.0,0.0,0.0,0.0,0.0,0.0,0.0,0.0,0.0,0.0,0.0,0.0,0.0,0.0,0.0,0.0,0.0,0.0,0.0,0.0,0.0,0.0,0.0,0.0,0.0,0.0,0.0,0.0,0.0,0.0,0.0,0.0,0.0,0.0,0.0,0.0,0.0,0.0,0.0,0.0,0.0,0.0,-1.7026,-1.7011,-1.6054,0.0,0.0,0.0,0.0,0.0,0.0,0.0,0.0,0.0,0.0,0.0,0.0,0.0,0.0,0.0,0.0,0.0,0.0,0.0,0.0,0.0,0.0,0.0,0.0,0.0,0.0,0.0,0.0,0.0,0.0,0.0,0.0,0.0,0.0,0.0,0.0,0.0,0.0,0.0,0.0,0.0,0.0,0.0,0.0,0.0,0.0,0.0,0.0,0.0,0.0,0.0,0.0,0.0,0.0,0.0,0.0,0.0,0.0,0.0,0.0,0.0,0.0,0.0,0.0,0.0,0.0,0.0,0.0,0.0,0.0,0.0,0.0,0.0,0.0,0.0,0.0,0.0,0.0,0.0,0.0,0.0,0.0,0.0,0.0,0.0,0.0,0.0,0.0,0.0,0.0,0.0,0.0,0.0,0.0,0.0,0.0,0.0,0.0,0.0,0.0,0.0,0.0,0.0,0.0,0.0,0.0,0.0,0.0,0.0,0.0,-1.6965,-1.7488,-1.7055,0.0,-1.6607,0.0,0.0,0.0,0.0,0.0,0.0,0.0,0.0,0.0,0.0,0.0,0.0,0.0,0.0,0.0,0.0,0.0,0.0,0.0,0.0,0.0,0.0,0.0,0.0,0.0,0.0,0.0,0.0,0.0,0.0,0.0,0.0,0.0,0.0,0.0,0.0,0.0,0.0,0.0,0.0,0.0,0.0,0.0,0.0,0.0,0.0,0.0,0.0,0.0,0.0,0.0,0.0,0.0,0.0,0.0,0.0,0.0,0.0,0.0,0.0,0.0,0.0,0.0,0.0,0.0,0.0,0.0,0.0,0.0,0.0,0.0,0.0,0.0,0.0,0.0,0.0,0.0,0.0,0.0,0.0,0.0,0.0,0.0,0.0,0.0,0.0,0.0,0.0,0.0,0.0,0.0,0.0,0.0,0.0,0.0,0.0,0.0,0.0,0.0,0.0,0.0,0.0,0.0,0.0,0.0,0.0,0.0,0.0,0.0,0.0,-1.7624,-1.8281,-1.7654,-1.6921,0.0,0.0,0.0,0.0,0.0,0.0,0.0,0.0,0.0,0.0,0.0,0.0,0.0,0.0,0.0,0.0,0.0,0.0,0.0,0.0,0.0,0.0,0.0,0.0,0.0,0.0,0.0,0.0,0.0,0.0,0.0,0.0,0.0,0.0,0.0,0.0,0.0,0.0,0.0,0.0,0.0,0.0,0.0,0.0,0.0,0.0,0.0,0.0,0.0,0.0,0.0,0.0,0.0,0.0,0.0,0.0,0.0,0.0,0.0,0.0,0.0,0.0,0.0,0.0,0.0,0.0,0.0,0.0,0.0,0.0,0.0,0.0,0.0,0.0,0.0,0.0,0.0,0.0,0.0,0.0,0.0,0.0,0.0,0.0,0.0,0.0,0.0,0.0,0.0,0.0,0.0,0.0,0.0,0.0,0.0,0.0,0.0,0.0,0.0,0.0,0.0,0.0,0.0,0.0,0.0,0.0,0.0,0.0,0.0,0.0,-1.8685,-1.8493,-1.8897,-1.8147,-1.725,-1.6353,0.0,0.0,0.0,0.0,0.0,0.0,0.0,0.0,0.0,0.0,0.0,0.0,0.0,0.0,0.0,0.0,0.0,0.0,0.0,0.0,0.0,0.0,0.0,0.0,0.0,0.0,0.0,0.0,0.0,0.0,0.0,0.0,0.0,0.0,0.0,0.0,0.0,0.0,0.0,0.0,0.0,0.0,0.0,0.0,0.0,0.0,0.0,0.0,0.0,0.0,0.0,0.0,0.0,0.0,0.0,0.0,0.0,0.0,0.0,0.0,0.0,0.0,0.0,0.0,0.0,0.0,0.0,0.0,0.0,0.0,0.0,0.0,0.0,0.0,0.0,0.0,0.0,0.0,0.0,0.0,0.0,0.0,0.0,0.0,0.0,0.0,0.0,0.0,0.0,0.0,0.0,0.0,0.0,0.0,0.0,0.0,0.0,0.0,0.0,0.0,0.0,0.0,0.0,0.0,0.0,0.0,0.0,0.0,-2.141,-2.0258,-1.9633,-1.9618,-1.8401,-1.7667,0.0,0.0,0.0,0.0,0.0,0.0,0.0,0.0,0.0,0.0,0.0,0.0,0.0,0.0,0.0,0.0,0.0,0.0,0.0,0.0,0.0,0.0,0.0,0.0,0.0,0.0,0.0,0.0,0.0,0.0,0.0,0.0,0.0,0.0,0.0,0.0,0.0,0.0,0.0,0.0,0.0,0.0,0.0,0.0,0.0,0.0,0.0,0.0,0.0,0.0,0.0,0.0,0.0,0.0,0.0,0.0,0.0,0.0,0.0,0.0,0.0,0.0,0.0,0.0,0.0,0.0,0.0,0.0,0.0,0.0,0.0,0.0,0.0,0.0,0.0,0.0,0.0,0.0,0.0,0.0,0.0,0.0,0.0,0.0,0.0,0.0,0.0,0.0,0.0,0.0,0.0,0.0,0.0,0.0,0.0,0.0,0.0,0.0,0.0,0.0,0.0,0.0,0.0,0.0,0.0,0.0,0.0,0.0,0.0,-2.0412,-2.0782,-2.0557,-1.9735,-1.9645,-1.9223,0.0,0.0,0.0,0.0,0.0,0.0,0.0,0.0,0.0,0.0,0.0,0.0,0.0,0.0,0.0,0.0,0.0,0.0,0.0,0.0,0.0,0.0,0.0,0.0,0.0,0.0,0.0,0.0,0.0,0.0,0.0,0.0,0.0,0.0,0.0,0.0,0.0,0.0,0.0,0.0,0.0,0.0,0.0,0.0,0.0,0.0,0.0,0.0,0.0,0.0,0.0,0.0,0.0,0.0,0.0,0.0,0.0,0.0,0.0,0.0,0.0,0.0,0.0,0.0,0.0,0.0,0.0,0.0,0.0,0.0,0.0,0.0,0.0,0.0,0.0,0.0,0.0,0.0,0.0,0.0,0.0,0.0,0.0,0.0,0.0,0.0,0.0,0.0,0.0,0.0,0.0,0.0,0.0,0.0,0.0,0.0,0.0,0.0,0.0,0.0,0.0,0.0,0.0,0.0,0.0,0.0,0.0,0.0,0.0,-2.0367,0.0,-2.1595,-2.0741,-2.0692,-2.0165,0.0,0.0,0.0,0.0,0.0,0.0,0.0,0.0,0.0,0.0,0.0,0.0,0.0,0.0,0.0,0.0,0.0,0.0,0.0,0.0,0.0,0.0,0.0,0.0,0.0,0.0,0.0,0.0,0.0,0.0,0.0,0.0,0.0,0.0,0.0,0.0,0.0,0.0,0.0,0.0,0.0,0.0,0.0,0.0,0.0,0.0,0.0,0.0,0.0,0.0,0.0,0.0,0.0,0.0,0.0,0.0,0.0,0.0,0.0,0.0,0.0,0.0,0.0,0.0,0.0,0.0,0.0,0.0,0.0,0.0,0.0,0.0,0.0,0.0,0.0,0.0,0.0,0.0,0.0,0.0,0.0,0.0,0.0,0.0,0.0,0.0,0.0,0.0,0.0,0.0,0.0,0.0,0.0,0.0,0.0,0.0,0.0,0.0,0.0,0.0,0.0,0.0,0.0,0.0,0.0,0.0,0.0,0.0,-2.0367,-2.162,-2.2328,-2.2628,-2.2658,-2.141,-2.0423,0.0,0.0,0.0,0.0,0.0,0.0,0.0,0.0,0.0,0.0,0.0,0.0,0.0,0.0,0.0,0.0,0.0,0.0,0.0,0.0,0.0,0.0,0.0,0.0,0.0,0.0,0.0,0.0,0.0,0.0,0.0,0.0,0.0,0.0,0.0,0.0,0.0,0.0,0.0,0.0,0.0,0.0,0.0,0.0,0.0,0.0,0.0,0.0,0.0,0.0,0.0,0.0,0.0,0.0,0.0,0.0,0.0,0.0,0.0,0.0,0.0,0.0,0.0,0.0,0.0,0.0,0.0,0.0,0.0,0.0,0.0,0.0,0.0,0.0,0.0,0.0,0.0,0.0,0.0,0.0,0.0,0.0,0.0,0.0,0.0,0.0,0.0,0.0,0.0,0.0,0.0,0.0,0.0,0.0,0.0,0.0,0.0,0.0,0.0,0.0,0.0,0.0,0.0,0.0,0.0,0.0,0.0,0.0,0.0,-2.1036,-2.2119,-2.2703,-2.2658,-2.1844,-2.1291,0.0,0.0,0.0,0.0,0.0,0.0,0.0,0.0,0.0,0.0,0.0,0.0,0.0,0.0,0.0,0.0,0.0,0.0,0.0,0.0,0.0,0.0,0.0,0.0,0.0,0.0,0.0,0.0,0.0,0.0,0.0,0.0,0.0,0.0,0.0,0.0,0.0,0.0,0.0,0.0,0.0,0.0,0.0,0.0,0.0,0.0,0.0,0.0,0.0,0.0,0.0,0.0,0.0,0.0,0.0,0.0,0.0,0.0,0.0,0.0,0.0,0.0,0.0,0.0,0.0,0.0,0.0,0.0,0.0,0.0,0.0,0.0,0.0,0.0,0.0,0.0,0.0,0.0,0.0,0.0,0.0,0.0,0.0,0.0,0.0,0.0,0.0,0.0,0.0,0.0,0.0,0.0,0.0,0.0,0.0,0.0,0.0,0.0,0.0,0.0,0.0,0.0,0.0,0.0,0.0,0.0,0.0,0.0,0.0,-2.15,-2.2473,-2.3047,-2.3032,-2.2158,-2.1695,-2.165,0.0,0.0,0.0,0.0,0.0,0.0,0.0,0.0,0.0,0.0,0.0,0.0,0.0,0.0,0.0,0.0,0.0,0.0,0.0,0.0,0.0,0.0,0.0,0.0,0.0,0.0,0.0,0.0,0.0,0.0,0.0,0.0,0.0,0.0,0.0,0.0,0.0,0.0,0.0,0.0,0.0,0.0,0.0,0.0,0.0,0.0,0.0,0.0,0.0,0.0,0.0,0.0,0.0,0.0,0.0,0.0,0.0,0.0,0.0,0.0,0.0,0.0,0.0,0.0,0.0,0.0,0.0,0.0,0.0,0.0,0.0,0.0,0.0,0.0,0.0,0.0,0.0,0.0,0.0,0.0,0.0,0.0,0.0,0.0,0.0,0.0,0.0,0.0,0.0,0.0,0.0,0.0,0.0,0.0,0.0,0.0,0.0,0.0,0.0,0.0,0.0,0.0,0.0,0.0,0.0,0.0,0.0,0.0,-2.2688,-2.3281,-2.358,-2.358,-2.2353,-2.1695,0.0,0.0,0.0,0.0,0.0,0.0,0.0,0.0,0.0,0.0,0.0,0.0,0.0,0.0,0.0,0.0,0.0,0.0,0.0,0.0,0.0,0.0,0.0,0.0,0.0,0.0,0.0,0.0,0.0,0.0,0.0,0.0,0.0,0.0,0.0,0.0,0.0,0.0,0.0,0.0,0.0,0.0,0.0,0.0,0.0,0.0,0.0,0.0,0.0,0.0,0.0,0.0,0.0,0.0,0.0,0.0,0.0,0.0,0.0,0.0,0.0,0.0,0.0,0.0,0.0,0.0,0.0,0.0,0.0,0.0,0.0,0.0,0.0,0.0,0.0,0.0,0.0,0.0,0.0,0.0,0.0,0.0,0.0,0.0,0.0,0.0,0.0,0.0,0.0,0.0,0.0,0.0,0.0,0.0,0.0,0.0,0.0,0.0,0.0,0.0,0.0,0.0,0.0,0.0,0.0,0.0,0.0,0.0,0.0,-2.2688,-2.3302,-2.3595,-2.3565,-2.2368,-2.1695,0.0,0.0,0.0,0.0,0.0,0.0,0.0,0.0,0.0,0.0,0.0,0.0,0.0,0.0,0.0,0.0,0.0,0.0,0.0,0.0,0.0,0.0,0.0,0.0,0.0,0.0,0.0,0.0,0.0,0.0,0.0,0.0,0.0,0.0,0.0,0.0,0.0,0.0,0.0,0.0,0.0,0.0,0.0,0.0,0.0,0.0,0.0,0.0,0.0,0.0,0.0,0.0,0.0,0.0,0.0,0.0,0.0,0.0,0.0,0.0,0.0,0.0,0.0,0.0,0.0,0.0,0.0,0.0,0.0,0.0,0.0,0.0,0.0,0.0,0.0,0.0,0.0,0.0,0.0,0.0,0.0,0.0,0.0,0.0,0.0,0.0,0.0,0.0,0.0,0.0,0.0,0.0,0.0,0.0,0.0,0.0,0.0,0.0,0.0,0.0,0.0,0.0,0.0,0.0,0.0,0.0,0.0,0.0,-2.2143,-2.3041,-2.3415,-2.3595,-2.3595,-2.2643,-2.1979,0.0,0.0,0.0,0.0,0.0,0.0,0.0,0.0,0.0,0.0,0.0,0.0,0.0,0.0,0.0,0.0,0.0,0.0,0.0,0.0,0.0,0.0,0.0,0.0,0.0,0.0,0.0,0.0,0.0,0.0,0.0,0.0,0.0,0.0,0.0,0.0,0.0,0.0,0.0,0.0,0.0,0.0,0.0,0.0,0.0,0.0,0.0,0.0,0.0,0.0,0.0,0.0,0.0,0.0,0.0,0.0,0.0,0.0,0.0,0.0,0.0,0.0,0.0,0.0,0.0,0.0,0.0,0.0,0.0,0.0,0.0,0.0,0.0,0.0,0.0,0.0,0.0,0.0,0.0,0.0,0.0,0.0,0.0,0.0,0.0,0.0,0.0,0.0,0.0,0.0,0.0,0.0,0.0,0.0,0.0,0.0,0.0,0.0,0.0,0.0,0.0,0.0,0.0,0.0,0.0,0.0,0.0,0.0,-2.2323,-2.3565,-2.3595,-2.3595,-2.358,-2.3017,-2.2388,0.0,0.0,0.0,0.0,0.0,0.0,0.0,0.0,0.0,0.0,0.0,0.0,0.0,0.0,0.0,0.0,0.0,0.0,0.0,0.0,0.0,0.0,0.0,0.0,0.0,0.0,0.0,0.0,0.0,0.0,0.0,0.0,0.0,0.0,0.0,0.0,0.0,0.0,0.0,0.0,0.0,0.0,0.0,0.0,0.0,0.0,0.0,0.0,0.0,0.0,0.0,0.0,0.0,0.0,0.0,0.0,0.0,0.0,0.0,0.0,0.0,0.0,0.0,0.0,0.0,0.0,0.0,0.0,0.0,0.0,0.0,0.0,0.0,0.0,0.0,0.0,0.0,0.0,0.0,0.0,0.0,0.0,0.0,0.0,0.0,0.0,0.0,0.0,0.0,0.0,0.0,0.0,0.0,0.0,0.0,0.0,0.0,0.0,0.0,0.0,0.0,0.0,0.0,0.0,0.0,0.0,0.0,0.0,-2.2308,-2.355,-2.3595,-2.3595,-2.3595,-2.3017,-2.2388,0.0,0.0,0.0,0.0,0.0,0.0,0.0,0.0,0.0,0.0,0.0,0.0,0.0,0.0,0.0,0.0,0.0,0.0,0.0,0.0,0.0,0.0,0.0,0.0,0.0,0.0,0.0,0.0,0.0,0.0,0.0,0.0,0.0,0.0,0.0,0.0,0.0,0.0,0.0,0.0,0.0,0.0,0.0,0.0,0.0,0.0,0.0,0.0,-1.7149,0.0,0.0,0.0,0.0,0.0,0.0,0.0,0.0,0.0,0.0,0.0,0.0,0.0,0.0,0.0,0.0,0.0,0.0,0.0,0.0,0.0,0.0,0.0,0.0,0.0,0.0,0.0,0.0,0.0,0.0,0.0,0.0,0.0,0.0,0.0,0.0,0.0,0.0,0.0,0.0,0.0,0.0,0.0,0.0,0.0,0.0,0.0,0.0,0.0,0.0,0.0,0.0,0.0,0.0,0.0,0.0,0.0,0.0,0.0,-2.2622,-2.355,-2.3595,-2.3595,-2.358,-2.3281,-2.2688,0.0,0.0,0.0,0.0,0.0,0.0,0.0,0.0,0.0,0.0,0.0,0.0,0.0,0.0,0.0,0.0,0.0,0.0,0.0,0.0,0.0,0.0,0.0,0.0,0.0,0.0,0.0,0.0,0.0,0.0,0.0,0.0,0.0,0.0,0.0,0.0,0.0,0.0,0.0,0.0,0.0,0.0,0.0,0.0,0.0,0.0,0.0,0.0,0.0,0.0,0.0,0.0,0.0,0.0,0.0,0.0,0.0,0.0,0.0,0.0,0.0,0.0,0.0,0.0,0.0,0.0,0.0,0.0,0.0,0.0,0.0,0.0,0.0,0.0,0.0,0.0,0.0,0.0,0.0,0.0,0.0,0.0,0.0,0.0,0.0,0.0,0.0,0.0,0.0,0.0,0.0,0.0,0.0,0.0,0.0,0.0,0.0,0.0,0.0,0.0,0.0,0.0,0.0,0.0,0.0,0.0,0.0,-2.2269,-2.2897,-2.3565,-2.3595,-2.3595,-2.3595,-2.3595,-2.2996,-2.1754,0.0,0.0,0.0,0.0,0.0,0.0,0.0,0.0,0.0,0.0,0.0,0.0,0.0,0.0,0.0,0.0,0.0,0.0,0.0,0.0,0.0,0.0,0.0,0.0,0.0,0.0,0.0,0.0,0.0,0.0,0.0,0.0,0.0,0.0,0.0,0.0,0.0,0.0,-1.6663,-1.72,0.0,0.0,0.0,0.0,0.0,0.0,0.0,0.0,-1.7461,0.0,0.0,0.0,0.0,0.0,0.0,0.0,0.0,0.0,0.0,0.0,0.0,0.0,0.0,0.0,0.0,0.0,0.0,0.0,0.0,0.0,0.0,0.0,0.0,0.0,0.0,0.0,0.0,0.0,0.0,0.0,0.0,0.0,0.0,0.0,0.0,0.0,0.0,0.0,0.0,0.0,0.0,0.0,0.0,0.0,0.0,0.0,0.0,0.0,0.0,0.0,0.0,0.0,0.0,0.0,0.0,-2.1665,-2.1799,-2.2428,-2.3565,-2.3595,-2.3595,-2.3595,-2.3595,-2.2996,-2.1784,0.0,0.0,0.0,0.0,0.0,0.0,0.0,0.0,0.0,0.0,0.0,0.0,0.0,0.0,0.0,0.0,0.0,0.0,0.0,0.0,0.0,0.0,0.0,0.0,0.0,0.0,0.0,0.0,0.0,0.0,0.0,0.0,0.0,0.0,0.0,0.0,0.0,0.0,0.0,-1.8016,-1.8066,0.0,0.0,0.0,0.0,0.0,0.0,0.0,0.0,-1.7539,0.0,0.0,0.0,0.0,0.0,0.0,0.0,0.0,0.0,0.0,0.0,0.0,0.0,0.0,0.0,0.0,0.0,0.0,0.0,0.0,0.0,0.0,0.0,0.0,0.0,0.0,0.0,0.0,0.0,0.0,0.0,0.0,0.0,0.0,0.0,0.0,0.0,0.0,0.0,0.0,0.0,0.0,0.0,0.0,0.0,0.0,0.0,0.0,0.0,0.0,0.0,0.0,0.0,0.0,0.0,-2.168,-2.2353,-2.2981,-2.358,-2.3595,-2.3595,-2.3595,-2.3595,-2.2996,0.0,0.0,0.0,0.0,0.0,0.0,0.0,0.0,0.0,0.0,0.0,0.0,0.0,0.0,0.0,0.0,0.0,0.0,0.0,0.0,0.0,0.0,0.0,0.0,0.0,0.0,0.0,0.0,0.0,0.0,0.0,0.0,0.0,0.0,0.0,0.0,0.0,0.0,0.0,0.0,-1.8204,-1.8281,-1.8569,0.0,0.0,0.0,0.0,0.0,0.0,-1.7551,-1.7486,0.0,0.0,0.0,0.0,0.0,0.0,0.0,0.0,0.0,0.0,0.0,0.0,0.0,0.0,0.0,0.0,0.0,0.0,0.0,0.0,0.0,0.0,0.0,0.0,0.0,0.0,0.0,0.0,0.0,0.0,0.0,0.0,0.0,0.0,0.0,0.0,0.0,0.0,0.0,0.0,0.0,0.0,0.0,0.0,0.0,0.0,0.0,0.0,0.0,0.0,0.0,0.0,0.0,0.0,0.0,-2.1724,-2.2832,-2.3539,-2.3752,-2.3752,-2.3767,-2.3767,-2.3752,-2.3122,0.0,0.0,0.0,0.0,0.0,0.0,0.0,0.0,0.0,0.0,0.0,0.0,0.0,0.0,0.0,0.0,0.0,0.0,0.0,0.0,0.0,0.0,0.0,0.0,0.0,0.0,0.0,0.0,0.0,0.0,0.0,0.0,0.0,0.0,0.0,0.0,0.0,0.0,0.0,0.0,0.0,-1.8493,-1.8782,-1.8456,0.0,0.0,0.0,0.0,-1.7725,-1.7737,0.0,0.0,0.0,0.0,0.0,0.0,0.0,0.0,0.0,0.0,0.0,0.0,0.0,0.0,0.0,0.0,0.0,0.0,0.0,0.0,0.0,0.0,0.0,0.0,0.0,0.0,0.0,0.0,0.0,0.0,0.0,0.0,0.0,0.0,0.0,0.0,0.0,0.0,0.0,0.0,0.0,0.0,0.0,0.0,0.0,0.0,0.0,0.0,0.0,0.0,0.0,0.0,0.0,0.0,0.0,0.0,-2.1695,-2.2433,-2.3313,-2.4236,-2.4323,-2.4307,-2.4307,-2.4323,-2.3483,0.0,0.0,0.0,0.0,0.0,0.0,0.0,0.0,0.0,0.0,0.0,0.0,0.0,0.0,0.0,0.0,0.0,0.0,0.0,0.0,0.0,0.0,0.0,0.0,0.0,0.0,0.0,0.0,0.0,0.0,0.0,0.0,0.0,0.0,0.0,0.0,0.0,0.0,0.0,0.0,0.0,-1.8744,-1.8355,-1.8242,-1.8155,0.0,0.0,-1.8279,-1.8732,-1.8807,0.0,0.0,0.0,0.0,0.0,0.0,0.0,0.0,0.0,0.0,0.0,0.0,0.0,0.0,0.0,0.0,0.0,0.0,0.0,0.0,0.0,0.0,0.0,0.0,0.0,0.0,0.0,0.0,0.0,0.0,0.0,0.0,0.0,0.0,0.0,0.0,0.0,0.0,0.0,0.0,0.0,0.0,0.0,0.0,0.0,0.0,0.0,0.0,0.0,0.0,0.0,0.0,0.0,0.0,0.0,-2.1812,-2.2133,-2.3444,-2.437,-2.4835,-2.4855,-2.4855,-2.4851,-2.4851,-2.3991,0.0,0.0,0.0,0.0,0.0,0.0,0.0,0.0,0.0,0.0,0.0,0.0,0.0,0.0,0.0,0.0,0.0,0.0,0.0,0.0,0.0,0.0,0.0,0.0,0.0,0.0,0.0,0.0,0.0,0.0,0.0,0.0,0.0,0.0,0.0,0.0,0.0,0.0,0.0,0.0,0.0,0.0,-1.9108,-1.8869,0.0,0.0,0.0,-1.8619,-1.8544,0.0,0.0,0.0,0.0,0.0,0.0,0.0,0.0,0.0,0.0,0.0,0.0,0.0,0.0,0.0,0.0,0.0,0.0,0.0,0.0,0.0,0.0,0.0,0.0,0.0,0.0,0.0,0.0,0.0,0.0,0.0,0.0,0.0,0.0,0.0,0.0,0.0,0.0,0.0,0.0,0.0,0.0,0.0,0.0,0.0,0.0,0.0,0.0,0.0,0.0,0.0,0.0,0.0,0.0,0.0,0.0,0.0,-2.2431,-2.4255,-2.5278,-2.5392,-2.5392,-2.5392,-2.5408,-2.5411,0.0,0.0,0.0,0.0,0.0,0.0,0.0,0.0,0.0,0.0,0.0,0.0,0.0,0.0,0.0,0.0,0.0,0.0,0.0,0.0,0.0,0.0,0.0,0.0,0.0,0.0,0.0,-1.4362,0.0,0.0,0.0,0.0,0.0,0.0,0.0,0.0,0.0,0.0,0.0,0.0,0.0,0.0,-1.9146,-1.9547,-1.9259,-1.9058,0.0,0.0,-1.8907,-1.8643,-1.8933,-1.9083,0.0,0.0,0.0,0.0,0.0,0.0,0.0,0.0,0.0,0.0,0.0,0.0,0.0,0.0,0.0,0.0,0.0,0.0,0.0,0.0,0.0,0.0,0.0,0.0,0.0,0.0,0.0,0.0,0.0,0.0,0.0,0.0,0.0,0.0,0.0,0.0,0.0,0.0,0.0,0.0,0.0,0.0,0.0,0.0,0.0,0.0,0.0,0.0,0.0,0.0,0.0,0.0,0.0,0.0,0.0,-2.2462,-2.4255,-2.5449,-2.5924,-2.5959,-2.5943,-2.5959,-2.5943,-2.4841,0.0,0.0,0.0,0.0,0.0,0.0,0.0,0.0,0.0,0.0,0.0,0.0,0.0,0.0,0.0,0.0,0.0,0.0,0.0,0.0,0.0,0.0,0.0,0.0,0.0,0.0,0.0,0.0,0.0,0.0,0.0,0.0,0.0,0.0,0.0,0.0,0.0,0.0,0.0,0.0,0.0,-1.9008,-1.9058,-1.902,-1.9183,0.0,0.0,-1.9158,-1.961,-1.9723,-1.9736,-1.9698,0.0,0.0,0.0,0.0,0.0,0.0,0.0,0.0,0.0,0.0,0.0,0.0,0.0,0.0,0.0,0.0,0.0,0.0,0.0,0.0,0.0,0.0,0.0,0.0,0.0,0.0,0.0,0.0,0.0,0.0,0.0,0.0,0.0,0.0,0.0,0.0,0.0,0.0,0.0,0.0,0.0,0.0,0.0,0.0,0.0,0.0,0.0,0.0,0.0,0.0,0.0,0.0,0.0,-2.3312,-2.3329,-2.5184,-2.6228,-2.6419,-2.6453,-2.6453,-2.6419,-2.6419,-2.5658,0.0,0.0,0.0,0.0,0.0,0.0,0.0,0.0,0.0,0.0,0.0,0.0,0.0,0.0,0.0,0.0,0.0,0.0,0.0,0.0,0.0,0.0,0.0,0.0,0.0,0.0,0.0,0.0,-1.7413,-1.7501,-1.741,0.0,0.0,0.0,0.0,0.0,0.0,0.0,0.0,0.0,0.0,-1.951,-1.9497,-1.9497,0.0,0.0,-1.9635,-1.9547,-1.9773,-2.0126,-2.0365,-2.0352,-2.0614,0.0,0.0,0.0,0.0,0.0,0.0,0.0,0.0,0.0,0.0,0.0,0.0,0.0,0.0,0.0,0.0,0.0,0.0,0.0,0.0,0.0,0.0,0.0,0.0,0.0,0.0,0.0,0.0,0.0,0.0,0.0,0.0,0.0,0.0,0.0,0.0,0.0,0.0,0.0,0.0,0.0,0.0,0.0,0.0,0.0,0.0,0.0,0.0,0.0,0.0,0.0,0.0,-2.3885,-2.3902,-2.5748,-2.6708,-2.6708,-2.6708,-2.6708,-2.6708,-2.6708,-2.6168,0.0,0.0,0.0,0.0,0.0,0.0,0.0,0.0,0.0,0.0,0.0,0.0,0.0,0.0,0.0,0.0,0.0,0.0,0.0,0.0,0.0,0.0,0.0,0.0,0.0,0.0,0.0,0.0,-1.8067,-1.7901,-1.7652,0.0,0.0,0.0,0.0,0.0,0.0,0.0,0.0,0.0,0.0,-1.9798,-1.9798,-1.9949,-2.0049,-2.0062,-2.02,-2.0313,-2.0313,-2.0541,-2.0742,-2.0905,0.0,0.0,0.0,0.0,0.0,0.0,0.0,0.0,0.0,0.0,0.0,0.0,0.0,0.0,0.0,0.0,0.0,0.0,0.0,0.0,0.0,0.0,0.0,0.0,0.0,0.0,0.0,0.0,0.0,0.0,-2.1386,0.0,0.0,0.0,0.0,0.0,0.0,0.0,0.0,0.0,0.0,0.0,0.0,0.0,0.0,0.0,0.0,0.0,0.0,0.0,0.0,0.0,0.0,-2.3918,-2.3935,-2.5765,-2.6708,-2.6708,-2.6708,-2.6708,-2.6708,-2.6708,-2.6152,-2.506,0.0,0.0,0.0,0.0,0.0,0.0,0.0,0.0,0.0,0.0,0.0,0.0,0.0,0.0,0.0,0.0,0.0,0.0,0.0,0.0,0.0,0.0,0.0,0.0,0.0,0.0,-1.8337,-1.7788,-1.7662,0.0,0.0,0.0,0.0,0.0,0.0,0.0,0.0,0.0,0.0,-1.9798,-1.9798,-1.9798,-2.0302,-2.0616,-2.0641,-2.1066,-2.1418,-2.1405,-2.1031,-2.0867,0.0,0.0,0.0,0.0,0.0,0.0,0.0,0.0,0.0,0.0,0.0,0.0,0.0,0.0,0.0,0.0,0.0,0.0,0.0,0.0,0.0,0.0,0.0,0.0,0.0,0.0,0.0,-2.185,-2.1925,0.0,0.0,0.0,0.0,0.0,0.0,0.0,0.0,0.0,0.0,0.0,-2.7536,-2.775,0.0,0.0,0.0,0.0,0.0,0.0,0.0,0.0,0.0,0.0,0.0,0.0,-2.4304,-2.4371,-2.5881,-2.6708,-2.6708,-2.6708,-2.6708,-2.6708,-2.6708,-2.6286,-2.5446,0.0,0.0,0.0,0.0,0.0,0.0,0.0,0.0,0.0,0.0,0.0,0.0,0.0,0.0,0.0,0.0,0.0,0.0,0.0,0.0,0.0,0.0,0.0,0.0,0.0,-2.0232,0.0,0.0,0.0,0.0,0.0,0.0,0.0,0.0,0.0,0.0,0.0,-1.9597,-1.9786,-1.9798,-1.9798,-1.9798,-1.9962,-2.0087,0.0,0.0,0.0,0.0,0.0,0.0,0.0,0.0,0.0,0.0,0.0,0.0,0.0,0.0,-2.0071,-1.9124,-1.9546,-1.979,-1.8821,0.0,0.0,0.0,0.0,0.0,0.0,0.0,0.0,0.0,0.0,0.0,0.0,0.0,0.0,-2.3753,0.0,-2.3359,0.0,0.0,0.0,0.0,0.0,0.0,0.0,0.0,-2.7357,-2.7983,-2.8295,-2.852,-2.8425,0.0,-2.8075,-2.7236,0.0,0.0,0.0,0.0,0.0,0.0,0.0,0.0,-2.4881,-2.4931,-2.6065,-2.6708,-2.6708,-2.6708,-2.6708,-2.6708,-2.6708,-2.6471,-2.5998,-2.5744,-2.5389,0.0,0.0,0.0,0.0,0.0,0.0,0.0,0.0,0.0,0.0,0.0,0.0,0.0,0.0,0.0,0.0,0.0,0.0,0.0,0.0,0.0,0.0,0.0,-2.1441,0.0,0.0,0.0,0.0,0.0,0.0,0.0,0.0,0.0,-1.9271,-1.9559,-1.9798,-1.9798,-1.9798,-1.9798,-1.9798,0.0,0.0,0.0,0.0,0.0,0.0,0.0,-2.197,-2.2481,-2.2706,-2.2882,-2.307,-2.2794,-2.2569,-2.2569,0.0,0.0,-2.0321,-2.0836,-2.12,-2.025,-2.0464,-2.0684,-2.0417,-2.0098,-1.995,0.0,0.0,0.0,0.0,0.0,0.0,0.0,0.0,-2.724,-2.7202,0.0,-2.6139,0.0,0.0,0.0,0.0,0.0,-2.6216,0.0,0.0,-2.8565,-2.8968,-2.8975,-2.8975,-2.8785,-2.8433,-2.842,-2.8232,-2.7883,-2.7191,0.0,0.0,0.0,0.0,0.0,0.0,-2.5641,-2.5673,-2.6352,-2.6725,-2.6725,-2.6708,-2.6708,-2.6708,-2.6708,-2.6691,-2.6674,-2.6015,-2.5642,-2.5592,-2.4255,0.0,0.0,0.0,0.0,0.0,0.0,0.0,0.0,0.0,0.0,0.0,0.0,0.0,0.0,0.0,0.0,0.0,0.0,0.0,0.0,-2.2268,0.0,0.0,0.0,0.0,0.0,0.0,0.0,0.0,0.0,0.0,-1.9837,-1.9824,-1.9798,-1.9798,0.0,0.0,0.0,0.0,-2.088,-2.1383,-2.192,-2.2418,-2.2957,-2.2606,-2.2456,-2.3007,0.0,0.0,-2.3007,-2.3095,-2.3083,-2.3095,-2.3058,-2.2769,-2.1729,-2.155,-2.1594,-2.1525,-2.1562,-2.1744,-2.211,-2.1593,-2.1023,-2.9443,0.0,0.0,0.0,0.0,-2.7158,-2.7271,-2.7518,-2.735,-2.7373,-2.748,-2.7051,0.0,0.0,0.0,0.0,0.0,0.0,-2.7034,-2.7798,-2.8044,-2.8448,-2.8987,-2.8987,-2.894,-2.8839,-2.8809,-2.8779,-2.8688,-2.847,-2.7502,-2.5924,0.0,0.0,0.0,0.0,-2.6471,-2.6478,-2.6907,-2.7131,-2.7115,-2.6841,-2.6708,-2.6708,-2.6708,-2.6708,-2.6708,-2.6488,-2.615,-2.5609,-2.5203,0.0,0.0,0.0,0.0,0.0,0.0,0.0,0.0,0.0,0.0,0.0,0.0,0.0,0.0,0.0,0.0,0.0,0.0,0.0,-2.3308,-2.3218,-2.2939,0.0,0.0,0.0,0.0,0.0,0.0,0.0,0.0,0.0,-2.0572,-2.0105,-1.9798,0.0,0.0,-1.9798,-1.9798,-2.0327,-2.0754,-2.0905,-2.1395,0.0,-2.2431,-2.2393,-2.2456,-2.3007,-2.297,-2.292,-2.3083,-2.3095,-2.3095,-2.3095,-2.3095,-2.2995,-2.2732,-2.2631,-2.2619,-2.2631,-2.2631,-2.2681,-2.2802,-2.2635,-2.2462,-3.1416,-2.9872,-2.8827,-2.8307,-2.8191,-2.8211,-2.8383,-2.8702,-2.8592,-2.8598,-2.8658,-2.8134,-2.7797,-2.7625,-2.7232,0.0,0.0,0.0,-2.7739,-2.8432,-2.8439,-2.8633,-2.8987,-2.8987,-2.8987,-2.8987,-2.8987,-2.8987,-2.8987,-2.8987,-2.8347,-2.7102,0.0,0.0,-2.624,-2.6908,-2.7234,-2.7238,-2.742,-2.753,-2.7547,-2.7286,-2.7178,-2.7178,-2.7036,-2.6939,-2.6939,-2.6774,-2.6505,-2.6048,-2.5745,-2.5389,0.0,0.0,0.0,0.0,0.0,0.0,0.0,0.0,0.0,0.0,0.0,-2.3533,-2.3506,0.0,0.0,0.0,-2.3498,-2.3718,-2.3608,-2.3595,0.0,0.0,0.0,0.0,0.0,0.0,0.0,-2.1734,-2.1697,-2.1568,-2.1197,-2.0794,-2.037,-1.9875,-2.0029,-2.0105,-1.985,0.0,-2.1036,-2.1035,-2.1496,-2.2008,-2.2518,-2.2606,-2.2732,-2.3045,-2.3095,-2.3095,-2.3095,-2.3095,-2.3095,-2.3095,-2.3095,-2.3095,-2.3095,-2.3095,-2.3095,-2.3095,-2.3095,-2.3095,-2.3095,-2.3095,-2.3035,-3.3264,-3.3,-3.0505,-2.9443,-2.9377,-2.9338,-2.9775,-3.0481,-3.0423,-3.0404,-3.0334,-2.9353,-2.8917,-2.884,-2.7911,0.0,-2.8588,-2.8615,-2.8892,-2.9433,-2.9433,-2.9289,-2.9051,-2.904,-2.9028,-2.8987,-2.8987,-2.8987,-2.8987,-2.8987,-2.8797,-2.8476,-2.85,-2.8331,-2.7986,-2.7964,-2.8017,-2.8085,-2.8056,-2.8064,-2.8088,-2.8035,-2.8,-2.7986,-2.7565,-2.7332,-2.7317,-2.7004,-2.6808,-2.6791,-2.6146,-2.5757,-2.5708,0.0,0.0,0.0,0.0,0.0,0.0,0.0,0.0,0.0,0.0,0.0,0.0,0.0,0.0,0.0,-2.4752,0.0,-2.3773,-2.3702,0.0,0.0,0.0,-2.3399,-2.283,-2.2762,-2.2543,-2.1908,0.0,0.0,-2.1781,-2.1781,-2.1328,-2.0105,-2.0472,-2.0635,-2.0041,-2.103,-2.1734,-2.1705,-2.2192,-2.274,-2.3314,-2.3284,-2.3177,-2.3125,-2.3095,-2.3095,-2.3095,-2.3095,-2.3095,-2.3095,-2.3095,-2.3095,-2.3095,-2.3095,-2.3095,-2.3095,-2.3095,-2.3095,-2.3095,-2.3095,-2.2914,-3.4243,-3.4049,-3.2768,-3.213,-3.1948,-3.1352,-3.1198,-3.1314,-3.0692,-3.0404,-3.0385,-3.0137,-2.9922,-2.9701,-2.9312,-2.9242,-2.9412,-2.9412,-2.949,-2.9616,-2.9616,-2.9504,-2.931,-2.9299,-2.9211,-2.8998,-2.8987,-2.8987,-2.8987,-2.8987,-2.8952,-2.8881,-2.9466,-2.9288,-2.8334,-2.8601,-2.9046,-2.9647,-2.9349,-2.9361,-2.9707,-2.9142,-2.8808,-2.8805,-2.8126,-2.7768,-2.7751,-2.7681,-2.7604,-2.7604,-2.7444,-2.7208,-2.6902,-2.6197,0.0,0.0,0.0,0.0,0.0,0.0,0.0,0.0,0.0,-2.5547,-2.5803,0.0,-2.5892,0.0,-2.5086,-2.4953,-2.4831,-2.445,0.0,0.0,-2.3837,-2.3551,-2.3399,-2.3399,-2.3319,-2.3172,-2.315,-2.298,-2.2506,-2.2452,-2.2184,-2.1376,-2.1363,-2.1394,-2.1223,-2.2294,-2.3095,-2.3064,-2.3855,-2.4704,-2.4741,-2.4366,-2.3796,-2.3198,-2.3125,-2.3095,-2.3095,-2.3095,-2.3095,-2.3095,-2.3095,-2.3095,-2.3095,-2.3095,-2.3095,-2.3095,-2.3095,-2.3095,-2.3095,-2.3095,-2.3047,-3.5189,-3.5081,-3.4596,-3.4095,-3.3553,-3.2689,-3.2334,-3.2271,-3.1748,-3.15,-3.1487,-3.1154,-3.0682,-3.0182,-3.0059,-3.0007,-3.0007,-3.0015,-2.9943,-2.9837,-2.9829,-2.9678,-2.9384,-2.9384,-2.9257,-2.8987,-2.8987,-2.8987,-2.9023,-2.9354,-2.9519,-2.9555,-3.0338,-3.0399,-2.978,-2.996,-3.0283,-3.0723,-3.0525,-3.0513,-3.0766,-3.0355,-3.0121,-3.0103,-2.9169,-2.8661,-2.8643,-2.8156,-2.7808,-2.7651,-2.7619,-2.7515,-2.7301,-2.6735,-2.6574,0.0,0.0,0.0,0.0,0.0,0.0,0.0,0.0,0.0,0.0,0.0,-2.6052,-2.5262,-2.5411,-2.5465,-2.5205,-2.4732,-2.4425,-2.4389,-2.3906,-2.3595,-2.3595,-2.3595,-2.3595,-2.3595,-2.3595,-2.3465,-2.3143,-2.3098,-2.2972,-2.2569,-2.2546,-2.2428,-2.2269,-2.3188,-2.3963,-2.3933,-2.4737,-2.5398,-2.5398,-2.5063,-2.4652,-2.4208,-2.3842,-2.3619,-2.3632,-2.3335,-2.3095,-2.3095,-2.3095,-2.3095,-2.3095,-2.3095,-2.3095,-2.3095,-2.3095,-2.3095,-2.3095,-2.3095,-2.3095,-3.5953,-3.5911,-3.5911,-3.5438,-3.4636,-3.3821,-3.326,-3.2909,-3.2698,-3.266,-3.2699,-3.2102,-3.1423,-3.0731,-3.0731,-3.0673,-3.0577,-3.0558,-3.0382,-3.0061,-3.0042,-2.9864,-2.9474,-2.9465,-2.9324,-2.9082,-2.9193,-2.9259,-2.9296,-3.0035,-3.0398,-3.0446,-3.117,-3.1549,-3.1562,-3.1654,-3.1672,-3.158,-3.1654,-3.1696,-3.1696,-3.1617,-3.1549,-3.1513,-3.0441,-2.9763,-2.9654,-2.873,-2.7986,-2.7545,-2.7515,-2.7482,-2.7439,-2.7098,-2.7067,0.0,-2.7052,0.0,0.0,0.0,0.0,0.0,0.0,0.0,0.0,-2.6314,-2.5906,-2.543,-2.5799,-2.5906,-2.5414,-2.4914,-2.4576,-2.4491,-2.4032,-2.3681,-2.3616,-2.3595,-2.3595,-2.3595,-2.3595,-2.3595,-2.3573,-2.3595,-2.3595,-2.3508,-2.3493,-2.3414,-2.3287,-2.3991,-2.4676,-2.4736,-2.5283,-2.5823,-2.5646,-2.5563,-2.5481,-2.5342,-2.4851,-2.4394,-2.4263,-2.3738,-2.3245,-2.3138,-2.3095,-2.3095,-2.3095,-2.3095,-2.3095,-2.3095,-2.3095,-2.3095,-2.3095,-2.3095,-2.3095,-3.5976,-3.5975,-3.5975,-3.5876,-3.5697,-3.5469,-3.4095,-3.199,-3.1269,-3.133,-3.1968,-3.2468,-3.2583,-3.2429,-3.2429,-3.2077,-3.1462,-3.1462,-3.1046,-3.0323,-3.0317,-3.0176,-2.9893,-2.9893,-2.978,-2.9617,-3.0284,-3.0641,-3.0631,-3.1208,-3.15,-3.1507,-3.209,-3.2375,-3.2412,0.0,0.0,0.0,-3.3018,-3.333,-3.333,-3.2724,-3.2375,-3.2344,-3.1517,0.0,-3.0125,-2.988,-2.9435,-2.8724,-2.8688,0.0,0.0,0.0,0.0,0.0,0.0,0.0,0.0,0.0,0.0,0.0,-2.6708,-2.6708,-2.6708,-2.6624,-2.6539,-2.6419,-2.6505,-2.6522,-2.6419,-2.598,-2.5521,-2.507,-2.4572,-2.4095,-2.3681,-2.3595,-2.3595,-2.3595,-2.3595,-2.3595,-2.3595,-2.3595,-2.3595,-2.3595,-2.3595,-2.4015,-2.4899,-2.5174,-2.5536,-2.6052,-2.666,-2.689,-2.6404,-2.6297,-2.6081,-2.5577,-2.5328,-2.4992,-2.4481,-2.4234,-2.3796,-2.3305,-2.3095,-2.3138,-2.3095,-2.3095,-2.3095,-2.3095,-2.3095,-2.3095,-2.3095,-2.3095,-2.3095,-3.7031,-3.6641,-3.6641,-3.6152,0.0,-3.5327,-3.4241,-3.2554,-3.2919,-3.3044,-3.3015,-3.3421,-3.3336,-3.2872,-3.2487,-3.2083,-3.1679,-3.125,-3.1058,-3.1038,-3.1044,-3.113,-3.1279,-3.1299,-3.1151,-3.0948,-3.1372,-3.1608,-3.1637,-3.2268,-3.2574,-3.2593,-3.3291,-3.3641,-3.3648,-3.3883,-3.372,-3.3201,-3.3587,-3.3807,-3.3788,-3.3403,-3.3201,-3.317,-3.2412,0.0,0.0,0.0,0.0,0.0,0.0,0.0,0.0,-2.8232,0.0,-2.8143,-2.7992,-2.7811,-2.7622,-2.7426,-2.7192,-2.7003,-2.6808,-2.6708,-2.6708,-2.6708,-2.6708,-2.6708,-2.6708,-2.6708,-2.6691,-2.6279,-2.5905,-2.5596,-2.5109,-2.4592,-2.4095,-2.4006,-2.39,-2.3638,-2.3595,-2.3595,-2.3595,-2.3595,-2.3595,-2.3595,-2.3595,-2.4088,-2.53,-2.56,-2.5925,-2.6865,-2.7331,-2.7458,-2.7137,-2.7034,-2.6956,-2.6549,-2.6188,-2.5851,-2.5453,-2.5105,-2.4595,-2.3884,-2.3691,-2.3603,-2.3185,-2.3095,-2.3095,-2.3095,-2.3095,-2.3095,-2.3095,-2.3095,-2.3095,-3.8184,-3.7539,-3.7539,-3.6601,-3.5156,-3.5176,-3.4626,-3.3846,0.0,0.0,0.0,-3.4478,-3.4121,-3.3326,-3.2673,-3.2275,-3.2083,-3.141,-3.1371,-3.191,-3.191,-3.2186,-3.2645,-3.2645,-3.2542,-3.2346,-3.247,-3.2555,-3.2593,-3.3326,-3.3705,-3.3772,-3.4394,-3.4694,-3.4674,-3.4423,-3.4189,-3.3967,-3.3855,-3.3807,-3.3807,-3.3807,-3.3807,-3.3807,-3.3164,-3.2748,-3.2583,-3.1971,-3.1088,-2.9979,-2.9784,-2.9409,-2.8768,-2.8309,-2.8215,-2.8458,-2.8237,-2.8065,-2.7978,-2.7692,-2.7439,-2.7319,-2.7004,-2.6775,-2.6725,-2.6708,-2.6708,-2.6708,-2.6708,-2.6708,-2.6708,-2.6367,-2.6103,-2.6013,-2.5615,-2.5144,-2.4632,-2.4552,-2.4389,-2.397,-2.3943,-2.3885,-2.3927,-2.3943,-2.3837,-2.3752,-2.3773,-2.4161,-2.5323,-2.5869,-2.6422,-2.7325,-2.756,-2.7585,-2.7575,-2.7549,-2.7585,-2.7458,-2.7034,-2.6669,-2.6457,-2.6,-2.5342,-2.4624,-2.4494,-2.425,-2.3666,-2.3471,-2.3348,-2.3318,-2.3185,-2.3095,-2.3095,-2.3095,-2.3095,-3.8535,-3.8418,-3.8418,-3.7851,-3.6934,-3.6934,-3.6426,-3.5584,-3.4954,-3.4617,-3.4519,-3.5141,-3.5329,-3.5206,-3.5027,-3.4564,-3.3859,-3.3725,-3.3333,-3.2756,-3.2737,-3.2782,-3.2859,-3.284,-3.2846,-3.2864,-3.3555,-3.3908,-3.3983,-3.4544,-3.4852,-3.4845,-3.4746,-3.4694,-3.4694,-3.4653,-3.4612,-3.4588,-3.4049,-3.3807,-3.3807,-3.3807,-3.3807,-3.3788,-3.3697,-3.3293,-3.2619,-3.2491,-3.2019,-3.1206,-3.0479,-3.0064,-2.9936,-2.9235,-2.887,-2.8917,-2.8863,-2.87,-2.8337,-2.829,-2.7974,-2.7363,-2.7239,-2.7084,-2.6741,-2.6708,-2.6708,-2.6708,-2.6708,-2.6708,-2.6691,-2.6624,-2.6419,-2.6085,-2.5959,-2.567,-2.5163,-2.5086,-2.5031,-2.491,-2.4989,-2.495,-2.4891,-2.491,-2.4732,-2.4389,-2.4441,-2.4673,-2.5575,-2.6626,-2.73,-2.754,-2.7585,-2.7585,-2.7585,-2.7585,-2.7585,-2.7585,-2.7484,-2.7178,-2.6669,-2.6443,-2.6068,-2.537,-2.5273,-2.5175,-2.4979,-2.4525,-2.4134,-2.4002,-2.3573,-2.3125,-2.3095,-2.3095,-2.3095,-3.9746,-3.9316,-3.9297,-3.8809,-3.7969,-3.7519,-3.709,-3.6621,-3.571,-3.5293,-3.53,-3.5612,-3.5725,-3.5612,-3.517,-3.47,-3.4237,-3.3804,-3.3599,-3.3609,-3.3603,-3.3872,-3.4288,-3.4308,-3.4314,-3.4346,-3.4699,-3.4911,-3.4916,-3.5184,-3.5312,-3.5304,-3.5198,-3.507,-3.4926,-3.4926,-3.4851,-3.4713,-3.442,-3.4189,-3.4018,-3.4006,-3.3948,-3.382,-3.3807,-3.3642,-3.3275,-3.3256,-3.2871,-3.2082,-3.1715,-3.1311,-3.0852,-3.0081,-2.9647,-2.9647,-2.9244,-2.8917,-2.8731,-2.8527,-2.8166,-2.7678,-2.7619,-2.7545,-2.7363,-2.6938,-2.6708,-2.6708,-2.6708,-2.6708,-2.6708,-2.6708,-2.6607,-2.6401,-2.6384,-2.6175,-2.576,-2.5633,-2.5521,-2.5259,-2.5202,-2.5202,-2.5202,-2.5202,-2.5144,-2.4902,-2.5368,-2.5973,-2.6061,-2.7198,-2.7968,-2.766,-2.7585,-2.7585,-2.7585,-2.7585,-2.7585,-2.7585,-2.7585,-2.7458,-2.7152,-2.71,-2.6759,-2.6176,-2.5987,-2.581,-2.5536,-2.4794,-2.4394,-2.4234,-2.3662,-2.3198,-2.3095,-2.3095,-2.3095,-4.0757,-4.0154,-4.0154,-3.9667,-3.8828,-3.7969,-3.7598,-3.75,-3.666,-3.6247,-3.619,-3.6004,-3.5841,-3.5677,-3.5058,-3.4715,-3.4544,-3.3981,-3.3984,-3.4496,-3.4512,-3.4873,-3.5457,-3.5508,-3.55,-3.55,-3.55,-3.55,-3.55,-3.55,-3.55,-3.55,-3.55,-3.5391,-3.5198,-3.519,-3.5088,-3.4879,-3.4889,-3.4676,-3.4334,-3.4323,-3.4213,-3.4012,-3.3986,-3.4005,-3.4005,-3.3928,-3.3613,-3.2992,-3.2713,-3.2307,-3.1696,-3.0907,-3.0467,-3.0411,-2.9702,-2.917,-2.9,-2.8713,-2.8399,-2.8034,-2.8006,-2.7982,-2.7869,-2.7332,-2.6923,-2.6857,-2.6758,-2.6708,-2.6708,-2.6708,-2.6708,-2.6708,-2.6708,-2.6539,-2.6227,-2.6156,-2.6015,-2.5617,-2.5542,-2.558,-2.5526,-2.5542,-2.5524,-2.5589,-2.6386,-2.6825,-2.6786,-2.768,-2.8185,-2.8085,-2.781,-2.7585,-2.7585,-2.7585,-2.7585,-2.7585,-2.7585,-2.756,-2.7549,-2.756,-2.7408,-2.6852,-2.6747,-2.6575,-2.6,-2.5342,-2.4979,-2.4908,-2.4352,-2.3679,-2.3471,-2.3215,-2.3125,-4.0855,-4.0883,-4.0865,-4.0457,-3.9707,-3.8848,-3.8476,-3.8379,-3.7559,-3.7168,-3.7051,-3.629,-3.5921,-3.5851,-3.5644,-3.5551,-3.5537,-3.5479,-3.5452,-3.5488,-3.549,-3.5532,-3.5599,-3.5528,-3.55,-3.5494,-3.552,-3.5508,-3.5514,-3.55,-3.55,-3.55,-3.55,-3.5493,-3.5453,-3.5472,-3.5439,-3.5412,-3.5432,-3.5182,-3.4694,-3.4653,-3.4643,-3.4641,-3.4612,-3.4641,-3.4559,-3.4323,-3.4134,-3.398,-3.3135,-3.2564,-3.2417,-3.1715,-3.1305,-3.1268,-3.054,-2.9787,-2.9085,-2.8964,-2.8761,-2.8425,-2.8355,-2.8237,-2.7968,-2.7823,-2.7619,-2.7319,-2.6939,-2.6775,-2.6708,-2.6725,-2.6725,-2.6708,-2.6708,-2.6674,-2.6624,-2.6641,-2.6607,-2.6573,-2.6453,-2.6556,-2.6453,-2.6436,-2.6315,-2.5943,-2.6324,-2.6784,-2.7221,-2.7875,-2.8605,-2.8839,-2.8376,-2.7735,-2.766,-2.7585,-2.7585,-2.7585,-2.7585,-2.7585,-2.7585,-2.7585,-2.7534,-2.7382,-2.7408,-2.7291,-2.7163,-2.6811,-2.6229,-2.5892,-2.5425,-2.4922,-2.4308,-2.3708,-2.3365,-4.0824,-4.0896,-4.0877,-4.0762,-4.0455,-3.9706,-3.9355,-3.9277,-3.8437,-3.7793,-3.7285,-3.6891,-3.6439,-3.597,-3.5901,-3.5843,-3.5812,-3.5831,-3.5769,-3.5707,-3.5663,-3.5643,-3.5659,-3.5635,-3.5607,-3.5626,-3.5607,-3.5586,-3.5556,-3.5534,-3.55,-3.55,-3.55,-3.55,-3.55,-3.55,-3.55,-3.55,-3.55,-3.5383,-3.519,-3.5008,-3.4851,-3.4714,-3.4694,-3.4582,-3.4434,-3.4464,-3.4341,-3.3993,-3.3697,-3.3462,-3.3311,-3.2559,-3.21,-3.2045,-3.0889,-3.0063,-2.9721,-2.9262,-2.891,-2.8779,-2.8749,-2.87,-2.8563,-2.8329,-2.8129,-2.7946,-2.7601,-2.7334,-2.7099,-2.7051,-2.6971,-2.6758,-2.6708,-2.6708,-2.6708,-2.6708,-2.6708,-2.6708,-2.6708,-2.6708,-2.6708,-2.6708,-2.6624,-2.6502,-2.677,-2.7243,-2.7727,-2.8384,-2.8951,-2.9237,-2.895,-2.8543,-2.8198,-2.781,-2.7675,-2.7585,-2.7585,-2.7585,-2.7585,-2.7585,-2.7585,-2.7585,-2.7585,-2.7585,-2.7534,-2.7008,-2.6469,-2.639,-2.5946,-2.5287,-2.5007,-2.4696,-2.4352,-4.1107,-4.1105,-4.0902,-4.086,-4.0898,-4.0417,-4.0192,-4.0095,-3.9297,-3.8594,-3.8027,-3.7773,-3.7187,-3.6406,-3.6113,-3.5974,-3.594,-3.5919,-3.5864,-3.5768,-3.5769,-3.5761,-3.5758,-3.5713,-3.5703,-3.5703,-3.57,-3.5667,-3.5601,-3.5588,-3.5564,-3.5564,-3.5544,-3.5546,-3.5522,-3.5534,-3.5528,-3.5507,-3.55,-3.55,-3.546,-3.5312,-3.5113,-3.4935,-3.4926,-3.4822,-3.4576,-3.4715,-3.4614,-3.4208,-3.4295,-3.4242,-3.4031,-3.3482,-3.3074,-3.276,-3.1735,-3.0923,-3.0658,-2.989,-2.9402,-2.9329,-2.9152,-2.8987,-2.8952,-2.8737,-2.8577,-2.8558,-2.8347,-2.8006,-2.7545,-2.7454,-2.7317,-2.7067,-2.6938,-2.6857,-2.6873,-2.6791,-2.6708,-2.6708,-2.6708,-2.6708,-2.6708,-2.6708,-2.6674,-2.6742,-2.7114,-2.7668,-2.8023,-2.8608,-2.9217,-2.9544,-2.9615,-2.9384,-2.885,-2.8271,-2.7934,-2.7785,-2.7785,-2.7585,-2.7585,-2.7585,-2.7585,-2.7585,-2.7585,-2.7585,-2.7585,-2.7086,-2.6785,-2.6669,-2.6256,-2.5755,-2.5701,-2.5563,-2.5175,-4.181,-4.1825,-4.112,-4.0797,-4.0816,-4.0877,-4.092,-4.0806,-4.0151,-3.9785,-3.9551,-3.8867,-3.8066,-3.7207,-3.6426,-3.6016,-3.5996,-3.5996,-3.5996,-3.5957,-3.5897,-3.5878,-3.5877,-3.5764,-3.571,-3.5729,-3.5729,-3.5717,-3.57,-3.5689,-3.5693,-3.5686,-3.5675,-3.5655,-3.5596,-3.56,-3.5554,-3.5522,-3.5502,-3.5494,-3.5507,-3.5481,-3.546,-3.5424,-3.5446,-3.5398,-3.5369,-3.5179,-3.5043,-3.5044,-3.4784,-3.4663,-3.4643,-3.4576,-3.4162,-3.3476,-3.326,-3.2746,-3.1795,-3.098,-3.0408,-3.0102,-2.9504,-2.9017,-2.9033,-2.8964,-2.891,-2.8952,-2.8893,-2.8601,-2.8037,-2.788,-2.7855,-2.7768,-2.7487,-2.7286,-2.7255,-2.7004,-2.6741,-2.6725,-2.6708,-2.6725,-2.6725,-2.6708,-2.6708,-2.6708,-2.6759,-2.7029,-2.7787,-2.8513,-2.9166,-2.9808,-3.0074,-3.0064,-2.9473,-2.8873,-2.8535,-2.8415,-2.8174,-2.7685,-2.761,-2.7585,-2.761,-2.7585,-2.7585,-2.7585,-2.7585,-2.7534,-2.7433,-2.724,-2.6878,-2.6522,-2.6455,-2.5837,-2.5536,-4.2317,-4.1803,-4.1044,-4.0742,-4.0738,-4.0832,-4.087,-4.0835,-4.0605,-4.0212,-3.9765,-3.9436,-3.888,-3.8086,-3.7207,-3.6523,-3.6035,-3.6016,-3.6016,-3.5996,-3.5974,-3.5972,-3.5952,-3.5905,-3.5901,-3.5901,-3.588,-3.5868,-3.5812,-3.5752,-3.5703,-3.5703,-3.5703,-3.5686,-3.5659,-3.5671,-3.5646,-3.5611,-3.5626,-3.5606,-3.5574,-3.5568,-3.554,-3.5488,-3.55,-3.5405,-3.5258,-3.5312,-3.5207,-3.487,-3.4898,-3.486,-3.4714,-3.4694,-3.4572,-3.4213,-3.3705,-3.3241,-3.2795,-3.208,-3.1364,-3.0748,-3.0294,-2.9779,-2.9354,-2.91,-2.8987,-2.8998,-2.8987,-2.8827,-2.8651,-2.8386,-2.8129,-2.7908,-2.7783,-2.7678,-2.7648,-2.7545,-2.7363,-2.7115,-2.689,-2.6791,-2.6988,-2.6857,-2.6708,-2.6708,-2.6708,-2.7029,-2.7604,-2.8095,-2.8669,-2.9734,-3.0157,-3.0279,-3.0638,-2.9689,-2.9081,-2.9042,-2.8857,-2.8519,-2.8367,-2.814,-2.8116,-2.7635,-2.7585,-2.7585,-2.7585,-2.7585,-2.7585,-2.7509,-2.7163,-2.7086,-2.7214,-2.6666,-2.6375,-4.2835,-4.1813,-4.1265,-4.0887,-4.0662,-4.0727,-4.0781,-4.0785,-4.0785,-4.0503,-4.012,-4.0067,-3.965,-3.8958,-3.8335,-3.744,-3.6445,-3.6152,-3.6016,-3.6016,-3.6016,-3.6016,-3.6016,-3.6016,-3.6016,-3.6016,-3.6016,-3.5957,-3.5922,-3.5836,-3.5797,-3.5799,-3.5797,-3.5785,-3.5769,-3.5764,-3.5755,-3.5713,-3.5703,-3.5667,-3.5639,-3.5635,-3.5611,-3.5559,-3.5547,-3.5442,-3.5239,-3.5417,-3.5354,-3.5053,-3.513,-3.5138,-3.5,-3.4963,-3.4963,-3.4887,-3.4429,-3.4042,-3.3875,-3.3182,-3.2445,-3.1788,-3.1092,-3.0469,-2.9943,-2.9502,-2.9249,-2.9228,-2.9149,-2.9134,-2.9048,-2.8791,-2.852,-2.8268,-2.8147,-2.8061,-2.8047,-2.795,-2.7751,-2.7515,-2.7286,-2.7272,-2.7411,-2.7257,-2.7067,-2.6923,-2.689,-2.7113,-2.7368,-2.7705,-2.8077,-2.9176,-2.9802,-3.0203,-3.0561,-3.0129,-2.9778,-2.9723,-2.9406,-2.9173,-2.8873,-2.8677,-2.8383,-2.7845,-2.761,-2.7585,-2.7585,-2.7585,-2.7585,-2.7585,-2.7509,-2.7408,-2.7484,-2.7534,-2.7163,-4.3316,-4.2008,-4.1788,-4.1274,-4.0703,-4.0675,-4.0697,-4.0721,-4.0752,-4.0719,-4.0638,-4.0739,-4.0302,-3.9774,-3.949,-3.875,-3.7461,-3.6543,-3.6055,-3.6016,-3.6016,-3.6016,-3.6016,-3.6016,-3.6016,-3.6016,-3.6016,-3.6016,-3.5996,-3.5976,-3.5976,-3.5976,-3.5976,-3.5948,-3.5903,-3.5901,-3.5841,-3.5744,-3.5732,-3.572,-3.5703,-3.5707,-3.5679,-3.5606,-3.5611,-3.556,-3.5468,-3.55,-3.5467,-3.5453,-3.546,-3.5481,-3.5439,-3.5412,-3.546,-3.5432,-3.5402,-3.5315,-3.4986,-3.4252,-3.3682,-3.3135,-3.1976,-3.1164,-3.0807,-3.0206,-2.9728,-2.9588,-2.9494,-2.9384,-2.9353,-2.9181,-2.8968,-2.8959,-2.8608,-2.842,-2.8355,-2.8116,-2.7926,-2.7926,-2.7855,-2.7883,-2.7897,-2.7779,-2.7604,-2.7363,-2.7286,-2.7227,-2.7143,-2.7504,-2.7776,-2.8198,-2.8998,-2.9799,-3.0251,-3.0574,-3.051,-3.0381,-2.9957,-2.9601,-2.9225,-2.8973,-2.8779,-2.8328,-2.8158,-2.8134,-2.7894,-2.787,-2.771,-2.7685,-2.7635,-2.761,-2.7585,-2.7585,-2.7585,-4.4008,-4.3393,-4.2277,-4.1654,-4.1324,-4.0807,-4.0547,-4.0554,-4.059,-4.0635,-4.0735,-4.0731,-4.0606,-4.0356,-3.9887,-3.9351,-3.877,-3.741,-3.6455,-3.6094,-3.6016,-3.5996,-3.6016,-3.6016,-3.6016,-3.6016,-3.6016,-3.6016,-3.6016,-3.6016,-3.6016,-3.6016,-3.6016,-3.5976,-3.5976,-3.5973,-3.593,-3.5907,-3.5906,-3.5895,-3.5843,-3.5819,-3.5805,-3.5671,-3.5659,-3.5644,-3.5585,-3.5528,-3.5488,-3.5481,-3.55,-3.55,-3.55,-3.55,-3.55,-3.55,-3.55,-3.5467,-3.5372,-3.5108,-3.4633,-3.4003,-3.3252,-3.2352,-3.138,-3.0846,-3.0333,-2.9854,-2.9634,-2.9607,-2.9598,-2.9551,-2.9336,-2.9033,-2.8875,-2.8797,-2.8749,-2.8464,-2.8394,-2.8533,-2.8215,-2.8037,-2.8129,-2.8102,-2.7894,-2.7751,-2.7707,-2.7619,-2.7582,-2.765,-2.7973,-2.8265,-2.8904,-2.9331,-2.9785,-3.0232,-3.0443,-3.0587,-3.0398,-3.0038,-2.9673,-2.9429,-2.918,-2.8904,-2.874,-2.8575,-2.8343,-2.8174,-2.8091,-2.781,-2.772,-2.7685,-2.761,-2.7585,-2.7585,-4.4586,-4.4182,-4.3162,-4.2354,-4.1769,-4.1181,-4.0785,-4.0535,-4.0496,-4.0545,-4.0616,-4.063,-4.0678,-4.0655,-4.0223,-3.9857,-3.9501,-3.8416,-3.7386,-3.6441,-3.6028,-3.5974,-3.6016,-3.6016,-3.6016,-3.6016,-3.6016,-3.6016,-3.6016,-3.6016,-3.6016,-3.6016,-3.6016,-3.6016,-3.6016,-3.6016,-3.6016,-3.6016,-3.6016,-3.5975,-3.5947,-3.5942,-3.5887,-3.5799,-3.5769,-3.5726,-3.5648,-3.5595,-3.5532,-3.5495,-3.55,-3.55,-3.55,-3.55,-3.55,-3.55,-3.55,-3.55,-3.55,-3.5455,-3.5288,-3.4717,-3.4225,-3.3547,-3.2445,-3.1855,-3.0955,-3.0567,-3.007,-2.9813,-2.9804,-2.9739,-2.9551,-2.9314,-2.9203,-2.9112,-2.9017,-2.8791,-2.8719,-2.8815,-2.8583,-2.8482,-2.8489,-2.8476,-2.8228,-2.8143,-2.8088,-2.801,-2.795,-2.7869,-2.8062,-2.8233,-2.8445,-2.8887,-2.9348,-2.9799,-3.026,-3.0594,-3.0836,-3.0514,-3.0166,-3.0038,-2.9827,-2.9361,-2.9095,-2.9065,-2.8834,-2.885,-2.8756,-2.8376,-2.8027,-2.8018,-2.8018,-2.7685,-2.7625,-4.5051,-4.4376,-4.428,-4.3329,-4.2096,-4.1808,-4.1316,-4.0689,-4.0516,-4.0504,-4.0512,-4.0527,-4.0561,-4.0667,-4.0569,-4.0239,-3.9721,-3.9425,-3.8481,-3.7209,-3.6426,-3.6043,-3.5976,-3.5937,-3.5957,-3.5976,-3.5996,-3.5996,-3.5996,-3.5996,-3.6016,-3.6016,-3.6016,-3.6016,-3.6016,-3.6016,-3.6016,-3.6016,-3.6016,-3.5996,-3.5996,-3.5996,-3.5954,-3.5908,-3.5905,-3.5843,-3.5743,-3.5686,-3.563,-3.5534,-3.5522,-3.5528,-3.5528,-3.5515,-3.5509,-3.5522,-3.5495,-3.5515,-3.5501,-3.5488,-3.5462,-3.5327,-3.4762,-3.4218,-3.3826,-3.2762,-3.1866,-3.1482,-3.0736,-3.0135,-3.0068,-2.9912,-2.9773,-2.9705,-2.9514,-2.9322,-2.91,-2.9044,-2.9044,-2.9033,-2.9017,-2.8982,-2.891,-2.8917,-2.8749,-2.854,-2.8433,-2.8334,-2.8201,-2.8147,-2.801,-2.8091,-2.8268,-2.8444,-2.8887,-2.8966,-2.9482,-3.0345,-3.07,-3.0673,-3.0608,-3.0555,-3.0477,-3.0,-2.9651,-2.954,-2.9451,-2.9451,-2.9339,-2.9019,-2.8787,-2.8614,-2.8343,-2.8018,-2.776,-4.4885,-4.482,-4.4209,-4.3819,-4.3453,-4.2374,-4.1692,-4.1373,-4.0758,-4.0538,-4.0489,-4.0496,-4.0512,-4.0552,-4.0533,-4.0426,-4.0165,-3.967,-3.8876,-3.7836,-3.7002,-3.6289,-3.5872,-3.5768,-3.579,-3.5817,-3.5889,-3.5918,-3.594,-3.5973,-3.5996,-3.6016,-3.5976,-3.5996,-3.6016,-3.5996,-3.6016,-3.6016,-3.5996,-3.5996,-3.5996,-3.5996,-3.5996,-3.5994,-3.5974,-3.5924,-3.5845,-3.5755,-3.5689,-3.5655,-3.5642,-3.5661,-3.5629,-3.5644,-3.5639,-3.563,-3.5605,-3.5571,-3.5568,-3.5528,-3.5494,-3.55,-3.5271,-3.4891,-3.4218,-3.3821,-3.2936,-3.2077,-3.136,-3.0951,-3.0465,-3.0247,-3.0128,-2.9943,-2.9765,-2.9588,-2.9494,-2.9375,-2.9299,-2.9278,-2.9123,-2.9033,-2.8987,-2.8975,-2.8952,-2.8839,-2.8785,-2.8773,-2.8596,-2.8576,-2.8513,-2.8224,-2.8244,-2.8268,-2.8328,-2.8305,-2.8772,-2.9871,-3.0362,-3.0598,-3.0729,-3.0975,-3.0938,-3.0781,-3.0518,-3.0377,-3.0187,-3.0081,-2.9848,-2.9695,-2.9384,-2.9134,-2.8724,-2.8359,-2.8076,-4.4707,-4.4846,-4.4353,-4.4045,-4.3796,-4.2977,-4.2173,-4.1428,-4.1023,-4.0626,-4.0415,-4.0339,-4.0408,-4.0489,-4.0496,-4.0496,-4.0439,-4.0035,-3.9381,-3.8485,-3.7352,-3.643,-3.585,-3.5703,-3.5703,-3.571,-3.5772,-3.5807,-3.5814,-3.5864,-3.5874,-3.5859,-3.5874,-3.5901,-3.5957,-3.59,-3.5902,-3.5937,-3.5902,-3.5875,-3.5875,-3.5927,-3.597,-3.5972,-3.5995,-3.5974,-3.5944,-3.5868,-3.5795,-3.5726,-3.5703,-3.5703,-3.5703,-3.5703,-3.5703,-3.5703,-3.5667,-3.5633,-3.5644,-3.5616,-3.5579,-3.5579,-3.5593,-3.5328,-3.4849,-3.4498,-3.3662,-3.2981,-3.2179,-3.1506,-3.1038,-3.0654,-3.0356,-3.0189,-3.0085,-2.9904,-2.9758,-2.9579,-2.9484,-2.9394,-2.9267,-2.9093,-2.901,-2.8987,-2.8987,-2.8975,-2.8952,-2.8952,-2.894,-2.8994,-2.8947,-2.862,-2.8329,-2.8308,-2.8382,-2.8382,-2.8505,-2.9489,-3.0236,-3.0472,-3.0851,-3.1203,-3.1171,-3.1131,-3.1171,-3.1095,-3.0797,-3.0617,-3.0597,-3.0372,-3.0016,-2.9673,-2.9316,-2.8896,-2.8614,-4.4501,-4.454,-4.454,-4.4107,-4.3574,-4.3612,-4.2644,-4.1248,-4.1119,-4.0728,-4.0176,-4.0042,-4.0148,-4.0406,-4.0302,-4.0378,-4.043,-4.0329,-3.9915,-3.8888,-3.7607,-3.6399,-3.5968,-3.5709,-3.5655,-3.5667,-3.5698,-3.5689,-3.5719,-3.5726,-3.5713,-3.5729,-3.5723,-3.5766,-3.5823,-3.5769,-3.5769,-3.5841,-3.578,-3.5738,-3.5764,-3.5817,-3.5875,-3.588,-3.5921,-3.5931,-3.5934,-3.5937,-3.5876,-3.5736,-3.5716,-3.5747,-3.5741,-3.5738,-3.5738,-3.5741,-3.5735,-3.5739,-3.5733,-3.57,-3.5689,-3.5678,-3.5686,-3.569,-3.5427,-3.4938,-3.4419,-3.3981,-3.2837,-3.2166,-3.1515,-3.0914,-3.0456,-3.0349,-3.038,-3.0188,-2.9888,-2.9738,-2.9661,-2.9484,-2.9445,-2.9291,-2.9145,-2.9021,-2.9051,-2.8987,-2.8987,-2.8987,-2.8987,-2.9005,-2.8994,-2.8917,-2.8645,-2.8412,-2.8483,-2.8571,-2.8723,-2.9176,-3.0003,-3.0508,-3.0963,-3.121,-3.1203,-3.119,-3.119,-3.119,-3.1114,-3.1055,-3.1092,-3.0975,-3.0559,-3.0393,-3.0187,-2.9695,-2.9339,-4.3881,-4.4117,-4.4117,-4.421,-4.4189,-4.3662,-4.2818,-4.1801,-4.1182,-4.053,-3.9841,-3.972,-3.9746,-3.9821,-3.9882,-3.9924,-4.0148,-4.0157,-3.9846,-3.9123,-3.7507,-3.672,-3.6318,-3.5892,-3.5552,-3.5562,-3.5591,-3.5611,-3.563,-3.5667,-3.57,-3.5693,-3.5678,-3.5713,-3.5739,-3.5723,-3.571,-3.5726,-3.5707,-3.5689,-3.5689,-3.5713,-3.5752,-3.5761,-3.5777,-3.578,-3.5777,-3.5758,-3.5793,-3.5852,-3.5898,-3.5892,-3.5908,-3.5918,-3.5918,-3.5902,-3.5884,-3.5867,-3.5841,-3.5772,-3.571,-3.5723,-3.5726,-3.57,-3.5682,-3.5519,-3.5045,-3.4598,-3.4078,-3.3152,-3.1917,-3.0945,-3.0546,-3.0444,-3.0408,-3.0373,-3.0235,-3.0073,-2.9916,-2.9818,-2.9703,-2.9551,-2.9343,-2.932,-2.9235,-2.9067,-2.901,-2.8998,-2.901,-2.9033,-2.901,-2.9021,-2.8815,-2.857,-2.858,-2.8653,-2.8761,-2.9002,-2.9726,-3.0263,-3.0749,-3.13,-3.1288,-3.1232,-3.119,-3.123,-3.1312,-3.119,-3.1151,-3.1112,-3.1055,-3.0801,-3.0518,-3.0208,-3.0081,-4.3614,-4.3775,-4.3775,-4.3899,-4.4039,-4.3751,-4.3086,-4.2184,-4.1499,-4.0708,-3.9958,-3.9558,-3.9457,-3.958,-3.9611,-3.9712,-3.9838,-3.9861,-3.9575,-3.8863,-3.768,-3.6988,-3.6538,-3.5942,-3.5488,-3.5501,-3.5515,-3.5538,-3.5568,-3.5604,-3.5605,-3.5601,-3.5606,-3.5611,-3.5648,-3.5621,-3.5636,-3.5644,-3.5631,-3.5601,-3.5606,-3.5624,-3.5667,-3.5696,-3.5703,-3.5703,-3.571,-3.5707,-3.5732,-3.5785,-3.5836,-3.5906,-3.5976,-3.6016,-3.6016,-3.5996,-3.5974,-3.5947,-3.5902,-3.5895,-3.5843,-3.582,-3.5841,-3.5825,-3.5809,-3.578,-3.5605,-3.5116,-3.4598,-3.3764,-3.2089,-3.1522,-3.1017,-3.053,-3.0448,-3.0437,-3.0411,-3.0278,-3.011,-3.0021,-2.9893,-2.9756,-2.9635,-2.957,-2.9523,-2.9377,-2.9377,-2.9357,-2.9225,-2.9214,-2.91,-2.9044,-2.8863,-2.8725,-2.8713,-2.8724,-2.8782,-2.9034,-2.9466,-2.9844,-3.016,-3.0808,-3.1392,-3.142,-3.1517,-3.1507,-3.1545,-3.1389,-3.1213,-3.1171,-3.1095,-3.0958,-3.0841,-3.0699,-3.0638,-4.3479,-4.3479,-4.3479,-4.3479,-4.3548,-4.3767,-4.3254,-4.231,-4.1745,-4.0932,-4.0193,-3.9389,-3.9184,-3.9402,-3.9427,-3.9457,-3.9541,-3.9596,-3.9391,-3.8955,-3.809,-3.7354,-3.6758,-3.6063,-3.55,-3.547,-3.5488,-3.5501,-3.5501,-3.5488,-3.5534,-3.5501,-3.5501,-3.5534,-3.5568,-3.5547,-3.554,-3.5571,-3.554,-3.5515,-3.5522,-3.5562,-3.5606,-3.5648,-3.5646,-3.5646,-3.5661,-3.567,-3.5675,-3.5682,-3.5663,-3.5766,-3.5883,-3.5934,-3.5954,-3.5953,-3.5912,-3.5912,-3.5892,-3.5914,-3.5915,-3.5956,-3.5976,-3.5956,-3.5922,-3.5892,-3.5822,-3.5519,-3.4976,-3.401,-3.2522,-3.1903,-3.1511,-3.0976,-3.0684,-3.0536,-3.0507,-3.0462,-3.0317,-3.0143,-3.0095,-2.9981,-2.9829,-2.9729,-2.9712,-2.9695,-2.9713,-2.9661,-2.9523,-2.9424,-2.9332,-2.9301,-2.9191,-2.9056,-2.9012,-2.8966,-2.8982,-2.9022,-2.9372,-2.9611,-2.9827,-3.0349,-3.1056,-3.1755,-3.1917,-3.1864,-3.1735,-3.1565,-3.1411,-3.1291,-3.1171,-3.1075,-3.1095,-3.119,-3.1134,-4.3479,-4.3479,-4.3479,-4.3479,-4.3496,-4.3582,-4.314,-4.2266,-4.154,-4.0746,-3.997,-3.9145,-3.8818,-3.8877,-3.8862,-3.898,-3.9205,-3.9346,-3.9482,-3.9222,-3.8485,-3.7718,-3.6937,-3.6188,-3.5608,-3.5324,-3.5327,-3.5432,-3.546,-3.55,-3.5398,-3.546,-3.5453,-3.5468,-3.5442,-3.5488,-3.5467,-3.5483,-3.5494,-3.5507,-3.5501,-3.5528,-3.5528,-3.5544,-3.5556,-3.5544,-3.554,-3.5553,-3.557,-3.5611,-3.5621,-3.5663,-3.5723,-3.5744,-3.5769,-3.5785,-3.5768,-3.5792,-3.579,-3.5777,-3.5819,-3.5882,-3.5913,-3.5947,-3.5957,-3.5976,-3.5936,-3.5736,-3.5193,-3.4436,-3.4163,-3.2966,-3.2008,-3.1546,-3.1092,-3.0665,-3.062,-3.0563,-3.0507,-3.0348,-3.0303,-3.0248,-3.0087,-2.9966,-2.9935,-2.9904,-2.9872,-2.9823,-2.9696,-2.9643,-2.9607,-2.9607,-2.9607,-2.9475,-2.9363,-2.9293,-2.9249,-2.9104,-2.9315,-2.9572,-2.9825,-3.0106,-3.0661,-3.1337,-3.1906,-3.207,-3.1935,-3.1756,-3.1658,-3.1564,-3.1389,-3.1232,-3.1408,-3.1562,-3.1428,-4.3479,-4.3479,-4.3479,-4.3479,-4.3479,-4.3479,-4.3277,-4.2763,-4.1644,-4.0875,-4.0249,-3.9313,-3.8707,-3.8707,-3.8707,-3.8773,-3.8909,-3.9031,-3.9197,-3.9108,-3.849,-3.7772,-3.7046,-3.6284,-3.5548,-3.5107,-3.5025,-3.5182,-3.5246,-3.5122,-3.5122,-3.5079,-3.5088,-3.5088,-3.513,-3.5215,-3.5262,-3.5304,-3.5398,-3.5474,-3.5493,-3.5493,-3.5474,-3.5474,-3.5474,-3.55,-3.55,-3.55,-3.5502,-3.5534,-3.5552,-3.5574,-3.5585,-3.5606,-3.565,-3.5694,-3.5696,-3.57,-3.5703,-3.5703,-3.5729,-3.5772,-3.5799,-3.5814,-3.5836,-3.5843,-3.5895,-3.5813,-3.5723,-3.5112,-3.4623,-3.3772,-3.3042,-3.2157,-3.1576,-3.1131,-3.0791,-3.0669,-3.0581,-3.0522,-3.0448,-3.0386,-3.0299,-3.0189,-3.0155,-3.0114,-3.0052,-2.9958,-2.9888,-2.9853,-2.9845,-2.9807,-2.979,-2.9705,-2.9598,-2.9561,-2.9485,-2.9336,-2.931,-2.9569,-2.9781,-3.0061,-3.0374,-3.087,-3.1405,-3.198,-3.2122,-3.1923,-3.1882,-3.1844,-3.1809,-3.1774,-3.1861,-3.1896,-3.1786,-4.3268,-4.3178,-4.3286,-4.3357,-4.3339,-4.3321,-4.3392,-4.3167,-4.1791,-4.1095,-4.0875,-3.9496,-3.8707,-3.8707,-3.8707,-3.8707,-3.8707,-3.8719,-3.8859,-3.8878,-3.8456,-3.7802,-3.7098,-3.6366,-3.5642,-3.508,-3.4564,-3.4723,-3.4944,-3.4851,-3.4734,-3.4754,-3.4714,-3.4694,-3.4774,-3.4944,-3.4999,-3.5069,-3.5207,-3.5327,-3.5346,-3.5346,-3.5346,-3.5342,-3.5383,-3.5398,-3.5383,-3.5479,-3.55,-3.5501,-3.5494,-3.5494,-3.5488,-3.5488,-3.5558,-3.5644,-3.5659,-3.5643,-3.5655,-3.5666,-3.5646,-3.569,-3.5675,-3.5686,-3.5713,-3.5738,-3.5764,-3.5847,-3.5818,-3.566,-3.5134,-3.4745,-3.4043,-3.3124,-3.2375,-3.1798,-3.1247,-3.0921,-3.0702,-3.0631,-3.0581,-3.0517,-3.0443,-3.0373,-3.0312,-3.0309,-3.0247,-3.0208,-3.0109,-3.0102,-3.0073,-2.9977,-2.9912,-2.9872,-2.9796,-2.9763,-2.9677,-2.957,-2.9523,-2.9655,-2.9832,-3.0019,-3.0273,-3.0493,-3.1085,-3.1618,-3.1846,-3.1867,-3.1507,-3.1469,-3.1974,-3.21,-3.1809,-3.202,-3.2214,-4.2482,-4.2044,-4.2578,-4.2788,-4.2807,-4.277,-4.305,-4.317,-4.1687,-4.1113,-4.0826,-3.9478,-3.8692,-3.8658,-3.8692,-3.8707,-3.8658,-3.8707,-3.8735,-3.8766,-3.8586,-3.8118,-3.7409,-3.6615,-3.5892,-3.5175,-3.4358,-3.4286,-3.4551,-3.4643,-3.4653,-3.4632,-3.4601,-3.4663,-3.4591,-3.4665,-3.4744,-3.4744,-3.4784,-3.4813,-3.4851,-3.486,-3.486,-3.4898,-3.5016,-3.5138,-3.5163,-3.5297,-3.5417,-3.5439,-3.5453,-3.5474,-3.55,-3.55,-3.5488,-3.5515,-3.5522,-3.5528,-3.554,-3.5546,-3.5574,-3.5596,-3.5611,-3.5633,-3.5667,-3.5682,-3.5696,-3.5713,-3.5741,-3.5734,-3.5493,-3.5049,-3.4616,-3.3941,-3.3104,-3.248,-3.1874,-3.1307,-3.1046,-3.0732,-3.0685,-3.0658,-3.0594,-3.0537,-3.0476,-3.0458,-3.0451,-3.0392,-3.034,-3.0296,-3.0278,-3.019,-3.0109,-3.0073,-3.0044,-2.9996,-2.9924,-2.9804,-2.9788,-2.9807,-2.9904,-3.0028,-2.9847,-3.0161,-3.0747,-3.1017,-3.1053,-3.0985,-3.0822,-3.1079,-3.1553,-3.1593,-3.1425,-3.1845,-3.2343,-4.0954,-4.1814,-4.208,-4.2183,-4.2183,-4.22,-4.2056,-4.1753,-4.0999,-4.0342,-3.9882,-3.9127,-3.8546,-3.835,-3.853,-3.853,-3.8382,-3.853,-3.8673,-3.8658,-3.8603,-3.8251,-3.747,-3.6684,-3.597,-3.5205,-3.4373,-3.3939,-3.416,-3.4208,-3.4196,-3.422,-3.4208,-3.416,-3.4279,-3.4364,-3.4409,-3.4475,-3.4582,-3.4694,-3.4694,-3.4684,-3.4684,-3.4684,-3.4803,-3.4851,-3.4889,-3.4954,-3.5053,-3.5034,-3.5034,-3.5043,-3.5034,-3.5062,-3.5096,-3.5262,-3.5262,-3.5342,-3.5467,-3.5474,-3.5515,-3.5528,-3.5546,-3.555,-3.5585,-3.5616,-3.5633,-3.5633,-3.5698,-3.5739,-3.5764,-3.546,-3.5027,-3.4462,-3.3817,-3.3046,-3.2407,-3.1902,-3.1459,-3.1113,-3.0795,-3.0746,-3.0707,-3.063,-3.0571,-3.0536,-3.0533,-3.0505,-3.0485,-3.0438,-3.0438,-3.0428,-3.0356,-3.0305,-3.028,-3.0241,-3.0215,-3.0129,-3.0142,-3.0128,-3.008,-3.0063,-2.9935,-2.9813,-3.013,-3.0298,-3.028,-3.0649,-3.1009,-3.1083,-3.1128,-3.1205,-3.1281,-3.144,-3.1841,-3.9242,-4.0819,-4.0971,-4.1036,-4.1018,-4.1036,-4.081,-4.041,-3.994,-3.9444,-3.8923,-3.848,-3.8066,-3.786,-3.8066,-3.8033,-3.7772,-3.8152,-3.8285,-3.8334,-3.8376,-3.8136,-3.7509,-3.6735,-3.5991,-3.5265,-3.4293,-3.3915,-3.3834,-3.3847,-3.3887,-3.3807,-3.3895,-3.3873,-3.3881,-3.3999,-3.4099,-3.4129,-3.4325,-3.4416,-3.4439,-3.442,-3.445,-3.4483,-3.4537,-3.4591,-3.4572,-3.4694,-3.4714,-3.4724,-3.4744,-3.4774,-3.4764,-3.4803,-3.4851,-3.4972,-3.4999,-3.5051,-3.5239,-3.5361,-3.546,-3.55,-3.5474,-3.5475,-3.5407,-3.5496,-3.5571,-3.5577,-3.5601,-3.5653,-3.5679,-3.5648,-3.5405,-3.4987,-3.4532,-3.3677,-3.2876,-3.2342,-3.1845,-3.1456,-3.1103,-3.0799,-3.076,-3.0717,-3.0665,-3.0619,-3.0603,-3.0614,-3.0584,-3.0547,-3.0545,-3.054,-3.0503,-3.0458,-3.0438,-3.0432,-3.0436,-3.0411,-3.04,-3.0385,-3.0273,-3.0222,-3.0155,-3.0018,-2.992,-2.9975,-3.0189,-3.0741,-3.1214,-3.0865,-3.0685,-3.1066,-3.1251,-3.1327,-3.1481,-3.7407,-3.819,-3.8713,-3.8934,-3.9003,-3.8921,-3.9238,-3.9449,-3.8823,-3.8527,-3.8319,-3.7714,-3.7378,-3.7285,-3.736,-3.7396,-3.7266,-3.7285,-3.7433,-3.7578,-3.7684,-3.7838,-3.7377,-3.6737,-3.6073,-3.5725,-3.441,-3.3707,-3.3753,-3.3578,-3.3694,-3.3807,-3.3748,-3.3793,-3.382,-3.3868,-3.3889,-3.3908,-3.3998,-3.3985,-3.3972,-3.3959,-3.3959,-3.3979,-3.4117,-3.4253,-3.4265,-3.4464,-3.4591,-3.458,-3.4569,-3.4569,-3.4537,-3.4548,-3.4601,-3.4694,-3.4714,-3.4774,-3.4926,-3.519,-3.5412,-3.5467,-3.542,-3.5304,-3.5174,-3.5369,-3.5462,-3.5442,-3.5432,-3.5507,-3.5568,-3.5592,-3.549,-3.5318,-3.4939,-3.4428,-3.3575,-3.2775,-3.2282,-3.1813,-3.1475,-3.1175,-3.0876,-3.0858,-3.0771,-3.0717,-3.0695,-3.0706,-3.0648,-3.0623,-3.0589,-3.0594,-3.0587,-3.0568,-3.0565,-3.0536,-3.0488,-3.0482,-3.0467,-3.0437,-3.0392,-3.0352,-3.0323,-3.0325,-3.0232,-3.0151,-3.0102,-3.0506,-3.0652,-3.0258,-3.0199,-3.0561,-3.0827,-3.0905,-3.1229,-3.6248,-3.6508,-3.6706,-3.7342,-3.8196,-3.8196,-3.8082,-3.7901,-3.7854,-3.7765,-3.7633,-3.7314,-3.7018,-3.6862,-3.7076,-3.6999,-3.6803,-3.7078,-3.7133,-3.7247,-3.7414,-3.747,-3.7006,-3.6234,-3.5331,-3.5074,-3.3854,-3.2996,-3.2965,-3.3087,-3.3011,-3.3103,-3.349,-3.3748,-3.3807,-3.3748,-3.378,-3.3793,-3.3807,-3.3807,-3.3807,-3.3807,-3.3807,-3.3834,-3.3855,-3.3967,-3.3992,-3.4062,-3.4136,-3.4148,-3.4148,-3.4141,-3.4172,-3.4172,-3.4237,-3.4357,-3.4368,-3.4486,-3.4643,-3.4889,-3.499,-3.5008,-3.499,-3.4972,-3.487,-3.4972,-3.4999,-3.5034,-3.5182,-3.5289,-3.5299,-3.5438,-3.5507,-3.5483,-3.5264,-3.487,-3.4294,-3.3436,-3.2974,-3.2629,-3.2072,-3.159,-3.1293,-3.1014,-3.0907,-3.082,-3.0793,-3.078,-3.0729,-3.07,-3.0691,-3.0661,-3.0674,-3.0658,-3.063,-3.06,-3.0558,-3.0536,-3.0533,-3.0511,-3.0495,-3.0513,-3.0506,-3.0513,-3.0511,-3.0404,-3.0346,-3.0303,-3.0223,-3.0085,-2.9991,-3.0019,-3.0246,-3.0526,-3.0804,-3.5407,-3.56,-3.5616,-3.6208,-3.7155,-3.7205,-3.6924,-3.6553,-3.6798,-3.6851,-3.6706,-3.6706,-3.6542,-3.6354,-3.6481,-3.6522,-3.6274,-3.646,-3.6643,-3.6764,-3.6823,-3.6941,-3.6455,-3.5738,-3.4905,-3.4429,-3.3367,-3.255,-3.2599,-3.2517,-3.2583,-3.2777,-3.3057,-3.3299,-3.3404,-3.3546,-3.3606,-3.362,-3.3748,-3.3675,-3.3666,-3.3606,-3.3465,-3.3404,-3.3343,-3.3357,-3.3343,-3.3364,-3.3486,-3.3514,-3.3514,-3.3486,-3.3578,-3.3648,-3.3738,-3.386,-3.4019,-3.4183,-3.4375,-3.4622,-3.4632,-3.4584,-3.4695,-3.4674,-3.4601,-3.4632,-3.4774,-3.4773,-3.4908,-3.4981,-3.499,-3.5119,-3.5184,-3.512,-3.529,-3.4993,-3.47,-3.4075,-3.3793,-3.3485,-3.2846,-3.2209,-3.1942,-3.1631,-3.112,-3.0945,-3.0759,-3.0781,-3.0835,-3.0792,-3.0788,-3.0762,-3.0756,-3.0723,-3.0687,-3.0652,-3.0638,-3.0623,-3.0606,-3.0584,-3.0578,-3.0611,-3.0611,-3.0587,-3.0584,-3.0597,-3.0558,-3.0463,-3.0293,-3.0094,-3.0087,-3.0143,-3.0202,-3.0484,-3.0317,-3.4965,-3.5577,-3.5577,-3.5611,-3.5757,-3.5667,-3.5718,-3.5774,-3.5785,-3.5801,-3.5827,-3.5783,-3.5783,-3.5734,-3.5876,-3.5832,-3.5805,-3.5783,-3.5827,-3.5985,-3.627,-3.6395,-3.5986,-3.531,-3.4476,-3.4359,-3.3195,-3.2248,-3.2367,-3.2265,-3.2316,-3.235,-3.2434,-3.2598,-3.2583,-3.2999,-3.3199,-3.3258,-3.355,-3.3433,-3.3255,-3.3196,-3.3014,-3.2825,-3.2761,-3.2793,-3.2793,-3.2793,-3.2934,-3.3121,-3.2887,-3.2919,-3.3151,-3.3181,-3.3207,-3.3252,-3.3574,-3.3743,-3.3868,-3.4383,-3.4409,-3.4265,-3.4386,-3.4431,-3.4334,-3.4423,-3.458,-3.4494,-3.4653,-3.4694,-3.4714,-3.4763,-3.4812,-3.4879,-3.5053,-3.5064,-3.4745,-3.4693,-3.4366,-3.4127,-3.3525,-3.2909,-3.2675,-3.2299,-3.1568,-3.1133,-3.0825,-3.0746,-3.0836,-3.0818,-3.0779,-3.0761,-3.0742,-3.076,-3.0736,-3.0723,-3.0711,-3.0684,-3.0677,-3.0687,-3.0672,-3.0676,-3.0667,-3.0625,-3.0662,-3.0689,-3.0645,-3.0586,-3.0477,-3.042,-3.0455,-3.0494,-3.0474,-3.0428,-3.0341,-3.4078,-3.4301,-3.4736,-3.4958,-3.5005,-3.5407,-3.5616,-3.5616,-3.5616,-3.5616,-3.5616,-3.5616,-3.5616,-3.5616,-3.5616,-3.5616,-3.5616,-3.5616,-3.5616,-3.5644,-3.5832,-3.5832,-3.5523,-3.4761,-3.3985,-3.3461,-3.2445,-3.1747,-3.1618,-3.1731,-3.1675,-3.162,-3.1805,-3.1968,-3.2367,-3.2697,-3.2747,-3.2745,-3.2856,-3.2856,-3.2761,-3.2747,-3.2666,-3.2451,-3.2434,-3.2417,-3.2401,-3.2384,-3.2517,-3.2697,-3.2467,-3.2534,-3.2697,-3.2745,-3.2729,-3.2729,-3.295,-3.3105,-3.3317,-3.3648,-3.38,-3.3878,-3.4037,-3.4099,-3.3992,-3.4012,-3.4087,-3.4153,-3.4265,-3.4311,-3.4368,-3.4612,-3.4704,-3.4724,-3.4841,-3.4841,-3.4736,-3.4857,-3.4795,-3.4618,-3.419,-3.3448,-3.302,-3.2866,-3.2255,-3.1626,-3.1297,-3.0816,-3.0749,-3.0706,-3.0665,-3.068,-3.0692,-3.0745,-3.0755,-3.0722,-3.0742,-3.0741,-3.0778,-3.0814,-3.081,-3.0729,-3.0749,-3.0733,-3.0771,-3.0787,-3.0729,-3.069,-3.0787,-3.0783,-3.0693,-3.0635,-3.0598,-3.0558,-3.0526,-3.3391,-3.3649,-3.4062,-3.426,-3.4423,-3.5207,-3.5616,-3.5616,-3.5616,-3.5616,-3.5616,-3.5616,-3.5616,-3.5616,-3.5616,-3.5616,-3.5616,-3.5616,-3.5616,-3.5616,-3.5622,-3.5644,-3.5221,-3.4399,-3.3892,-3.3152,-3.229,-3.1571,-3.1308,-3.123,-3.1232,-3.1271,-3.121,-3.1524,-3.1932,-3.2127,-3.2282,-3.2315,-3.2433,-3.2466,-3.235,-3.2248,-3.2161,-3.2039,-3.1986,-3.2003,-3.2039,-3.2074,-3.2127,-3.2179,-3.2179,-3.2162,-3.2196,-3.2265,-3.2247,-3.2247,-3.245,-3.2648,-3.2905,-3.2965,-3.313,-3.3248,-3.3578,-3.3793,-3.3766,-3.3703,-3.3743,-3.3805,-3.3834,-3.3924,-3.4049,-3.433,-3.4375,-3.4386,-3.4486,-3.4497,-3.4593,-3.4699,-3.4849,-3.4748,-3.4666,-3.3941,-3.3405,-3.3229,-3.2949,-3.2353,-3.1791,-3.127,-3.0782,-3.0714,-3.0659,-3.0606,-3.0608,-3.0657,-3.0695,-3.0689,-3.072,-3.0785,-3.081,-3.0813,-3.0767,-3.0669,-3.0747,-3.0807,-3.075,-3.0711,-3.0748,-3.0787,-3.0771,-3.0736,-3.0681,-3.066,-3.0703,-3.0671,-3.0652,-3.2949,-3.3495,-3.3572,-3.3572,-3.3802,-3.4847,-3.5447,-3.5509,-3.5487,-3.5447,-3.547,-3.5379,-3.531,-3.5424,-3.5492,-3.5424,-3.5402,-3.5424,-3.5379,-3.5424,-3.5316,-3.5424,-3.5256,-3.4693,-3.4015,-3.3322,-3.2544,-3.1735,-3.1258,-3.119,-3.119,-3.119,-3.119,-3.1329,-3.1468,-3.164,-3.1806,-3.1879,-3.2021,-3.2004,-3.186,-3.1771,-3.1658,-3.1526,-3.1428,-3.1428,-3.1408,-3.1408,-3.1545,-3.1582,-3.1488,-3.1564,-3.1658,-3.1771,-3.1771,-3.188,-3.2179,-3.2316,-3.2467,-3.2484,-3.2583,-3.2791,-3.327,-3.3625,-3.3578,-3.3317,-3.3299,-3.3346,-3.3382,-3.3518,-3.3643,-3.3725,-3.3805,-3.3917,-3.4074,-3.4147,-3.4242,-3.4394,-3.4595,-3.4649,-3.4688,-3.433,-3.3987,-3.3767,-3.3497,-3.2981,-3.241,-3.1903,-3.1427,-3.0956,-3.0843,-3.0533,-3.0565,-3.0591,-3.0611,-3.063,-3.0652,-3.0712,-3.0676,-3.0676,-3.0633,-3.0628,-3.0674,-3.07,-3.065,-3.0647,-3.0678,-3.0674,-3.0636,-3.0613,-3.0622,-3.0659,-3.0683,-3.0722,-3.0722,-3.1923,-3.216,-3.2652,-3.2911,-3.3029,-3.3811,-3.4178,-3.4178,-3.4178,-3.4178,-3.4161,-3.4178,-3.4325,-3.4202,-3.464,-3.4568,-3.4544,-3.4544,-3.4447,-3.452,-3.4712,-3.4847,-3.4778,-3.4533,-3.403,-3.333,-3.2583,-3.1847,-3.1303,-3.1151,-3.1114,-3.119,-3.1035,-3.1075,-3.1117,-3.1276,-3.1278,-3.1374,-3.1528,-3.1545,-3.1451,-3.1411,-3.1293,-3.1232,-3.119,-3.119,-3.119,-3.119,-3.1312,-3.1291,-3.1271,-3.131,-3.1329,-3.137,-3.1372,-3.1372,-3.1543,-3.1675,-3.1933,-3.2004,-3.2109,-3.2333,-3.2729,-3.2793,-3.2825,-3.2793,-3.2777,-3.2887,-3.2872,-3.2934,-3.3105,-3.3211,-3.3299,-3.3425,-3.3602,-3.3768,-3.3854,-3.4043,-3.4235,-3.4398,-3.4461,-3.4507,-3.4216,-3.4235,-3.3961,-3.3505,-3.3035,-3.2572,-3.1941,-3.1428,-3.1047,-3.0733,-3.0446,-3.0453,-3.0529,-3.0558,-3.0591,-3.0611,-3.0542,-3.0494,-3.0489,-3.0492,-3.0568,-3.0549,-3.0444,-3.0505,-3.0614,-3.0584,-3.0479,-3.0587,-3.0589,-3.0641,-3.0672,-3.071,-3.0721,-3.1496,-3.1553,-3.1994,-3.2176,-3.2244,-3.2583,-3.2772,-3.2864,-3.3349,-3.3608,-3.3608,-3.3633,-3.3608,-3.371,-3.4012,-3.4037,-3.3751,-3.4012,-3.4012,-3.3962,-3.3987,-3.4137,-3.4193,-3.4082,-3.3419,-3.2818,-3.2144,-3.1391,-3.0821,-3.0539,-3.0497,-3.0781,-3.0679,-3.0518,-3.0456,-3.036,-3.0435,-3.0642,-3.0882,-3.1095,-3.1151,-3.1151,-3.119,-3.1131,-3.1151,-3.1151,-3.1134,-3.1114,-3.1151,-3.119,-3.119,-3.119,-3.1131,-3.1035,-3.1075,-3.1075,-3.0962,-3.1198,-3.147,-3.1547,-3.1732,-3.1896,-3.1968,-3.1986,-3.2074,-3.2109,-3.2333,-3.2517,-3.2366,-3.2315,-3.2534,-3.2747,-3.2842,-3.2919,-3.3133,-3.3343,-3.351,-3.367,-3.386,-3.4031,-3.4177,-3.4341,-3.4405,-3.4464,-3.4496,-3.4186,-3.3838,-3.3459,-3.2584,-3.1629,-3.1278,-3.0976,-3.0565,-3.0296,-3.0394,-3.0448,-3.0337,-3.0288,-3.016,-3.0154,-3.0258,-3.0243,-3.0177,-3.0183,-3.0213,-3.0278,-3.0327,-3.0347,-3.0326,-3.0412,-3.047,-3.0505,-3.0545,-3.06,-3.0611,-3.1496,-3.1496,-3.1496,-3.1553,-3.1496,-3.1582,-3.1611,-3.1625,-3.281,-3.3417,-3.3323,-3.3391,-3.3287,-3.3156,-3.3375,-3.3375,-3.3235,-3.3365,-3.3365,-3.3453,-3.3469,-3.3521,-3.3531,-3.3512,-3.2991,-3.204,-3.1333,-3.1031,-2.9846,-2.9651,-2.9935,-3.0187,-2.9805,-2.9673,-2.9695,-2.9695,-2.9739,-2.987,-3.0356,-3.074,-3.0858,-3.0975,-3.1072,-3.0975,-3.0935,-3.0938,-3.0958,-3.0998,-3.1055,-3.1035,-3.0995,-3.0918,-3.074,-3.0555,-3.0617,-3.0617,-3.0398,-3.0518,-3.0744,-3.0848,-3.0902,-3.1001,-3.1078,-3.1179,-3.13,-3.1603,-3.1878,-3.2003,-3.1878,-3.1878,-3.2056,-3.2282,-3.24,-3.2516,-3.2679,-3.2903,-3.3069,-3.3204,-3.3292,-3.3435,-3.3519,-3.366,-3.3708,-3.3703,-3.3703,-3.4093,-3.4061,-3.3661,-3.3052,-3.1869,-3.1553,-3.1248,-3.0818,-3.0472,-3.0386,-3.0368,-3.0063,-2.9939,-2.9847,-2.9847,-2.9954,-2.9874,-2.9729,-2.9828,-2.9973,-2.9934,-2.9975,-3.0013,-3.01,-3.0171,-3.0233,-3.031,-3.0359,-3.038,-3.0481,-3.1496,-3.1496,-3.1496,-3.1496,-3.1496,-3.1496,-3.1496,-3.1496,-3.1809,-3.2076,-3.202,-3.2048,-3.2076,-3.2228,-3.2652,-3.2652,-3.2284,-3.2625,-3.2449,-3.2477,-3.2571,-3.2815,-3.2933,-3.3135,-3.2583,-3.1926,-3.1286,-3.0553,-2.9596,-2.9339,-2.9406,-2.9585,-2.9316,-2.9203,-2.921,-2.921,-2.9225,-2.9187,-2.948,-2.9827,-2.9827,-2.9843,-2.9843,-2.9886,-2.9892,-2.9957,-2.9957,-2.9913,-2.987,-2.9805,-2.9805,-2.9805,-2.9783,-2.9673,-2.9695,-2.9761,-2.9745,-2.9805,-2.993,-3.0043,-3.0059,-3.0123,-3.023,-3.0435,-3.0683,-3.11,-3.137,-3.143,-3.1487,-3.1524,-3.16,-3.1806,-3.1986,-3.2109,-3.2248,-3.2451,-3.2648,-3.2713,-3.2745,-3.2809,-3.2856,-3.2932,-3.2985,-3.3,-3.2955,-3.297,-3.2952,-3.2787,-3.2636,-3.1936,-3.1898,-3.1606,-3.112,-3.0801,-3.0633,-3.0349,-3.0063,-2.9803,-2.9667,-2.9668,-2.9651,-2.9607,-2.9533,-2.9661,-2.9746,-2.9703,-2.9695,-2.9763,-2.9837,-2.9935,-2.9966,-3.003,-2.9985,-2.9987,-3.0177,-3.1496,-3.1496,-3.1496,-3.1496,-3.1496,-3.1496,-3.1496,-3.1496,-3.1496,-3.1496,-3.1496,-3.1496,-3.1496,-3.1496,-3.1951,-3.2007,-3.1611,-3.1894,-3.1894,-3.1824,-3.1853,-3.2035,-3.2312,-3.2524,-3.1604,-3.0907,-3.0002,-2.923,-2.9021,-2.8709,-2.8614,-2.888,-2.8834,-2.8646,-2.8646,-2.8622,-2.8646,-2.8575,-2.8646,-2.867,-2.8787,-2.9019,-2.9339,-2.9406,-2.9384,-2.9361,-2.9406,-2.9406,-2.9406,-2.9406,-2.9473,-2.9473,-2.9406,-2.918,-2.918,-2.9271,-2.9248,-2.9111,-2.9271,-2.9316,-2.9316,-2.9435,-2.9607,-2.9908,-3.0016,-3.0423,-3.1001,-3.112,-3.1274,-3.1349,-3.1349,-3.1506,-3.1526,-3.162,-3.1712,-3.1841,-3.2179,-3.2433,-3.2516,-3.2632,-3.2665,-3.2681,-3.2725,-3.2725,-3.2693,-3.2695,-3.255,-3.2467,-3.2256,-3.1999,-3.2005,-3.1918,-3.1413,-3.1032,-3.0797,-3.047,-3.0114,-2.9832,-2.9474,-2.9358,-2.9277,-2.9336,-2.9377,-2.9426,-2.9437,-2.9446,-2.9465,-2.9542,-2.9652,-2.9763,-2.9754,-2.9756,-2.966,-2.9569,-2.9725,-3.1365,-3.1467,-3.1496,-3.1496,-3.1496,-3.1496,-3.1496,-3.1496,-3.1496,-3.1496,-3.1496,-3.1496,-3.1496,-3.1496,-3.1496,-3.1496,-3.1553,-3.1653,-3.1524,-3.1524,-3.1553,-3.1682,-3.1653,-3.1549,-3.0847,-2.9815,-2.8696,-2.8503,-2.8398,-2.8116,-2.8042,-2.8198,-2.7968,-2.761,-2.7585,-2.761,-2.777,-2.7845,-2.7845,-2.7735,-2.8076,-2.8551,-2.888,-2.9088,-2.918,-2.9157,-2.9157,-2.9157,-2.9134,-2.9088,-2.8973,-2.895,-2.8834,-2.8591,-2.8685,-2.8717,-2.8567,-2.8646,-2.8857,-2.8927,-2.8996,-2.9088,-2.9225,-2.9355,-2.9429,-2.9827,-3.0398,-3.0699,-3.0878,-3.1151,-3.1171,-3.1171,-3.119,-3.121,-3.1271,-3.1312,-3.1696,-3.2039,-3.2161,-3.2282,-3.2299,-3.2282,-3.2282,-3.2299,-3.2316,-3.2333,-3.2368,-3.2351,-3.2247,-3.1969,-3.1825,-3.1827,-3.161,-3.129,-3.1019,-3.0405,-2.995,-2.946,-2.9082,-2.8972,-2.8892,-2.8936,-2.8993,-2.9093,-2.9115,-2.9174,-2.9238,-2.9322,-2.9446,-2.9505,-2.9322,-2.9211,-2.9192,-2.914,-2.9233,-3.0896,-3.1496,-3.1496,-3.1467,-3.1467,-3.1467,-3.1496,-3.1496,-3.1438,-3.1496,-3.138,-3.1467,-3.1496,-3.1467,-3.1496,-3.1496,-3.1496,-3.1496,-3.1496,-3.1496,-3.1496,-3.1496,-3.1406,-3.1197,-3.0657,-2.9562,-2.8364,-2.7821,-2.7959,-2.776,-2.7635,-2.777,-2.777,-2.7585,-2.7585,-2.7585,-2.7585,-2.7585,-2.7585,-2.7585,-2.7585,-2.787,-2.786,-2.7944,-2.7929,-2.7929,-2.7929,-2.7944,-2.7929,-2.7944,-2.8042,-2.81,-2.8076,-2.8002,-2.8052,-2.8125,-2.7968,-2.8002,-2.8183,-2.8231,-2.8255,-2.8255,-2.84,-2.8701,-2.8896,-2.9225,-2.9673,-2.9892,-3.0208,-3.0858,-3.0995,-3.0995,-3.0995,-3.0995,-3.1038,-3.1038,-3.122,-3.1355,-3.1451,-3.1507,-3.1545,-3.1526,-3.1488,-3.1471,-3.1452,-3.1471,-3.149,-3.149,-3.1547,-3.1565,-3.1603,-3.1636,-3.1619,-3.1539,-3.1267,-3.0193,-2.9606,-2.9102,-2.8685,-2.8549,-2.8476,-2.8496,-2.8577,-2.8688,-2.8839,-2.8945,-2.9014,-2.8932,-2.8989,-2.8968,-2.873,-2.8597,-2.8628,-2.8646,-2.8687]},{"header":{"parameterUnit":"m.s-1","parameterCategory":1,"la1":31.0,"la2":29.5877,"lo1":-88.7671,"lo2":-86.6584,"dy":0.0162,"dx":0.0185,"nx":115,"ny":88,"refTime":"2023-09-01T06:00:00:Z","depth":0,"parameterNumber":3,"parameterNumberName":"V-component_of_WINDS"},"data":[0.0,0.0,0.0,0.0,0.0,0.0,0.0,0.0,0.0,0.0,0.0,0.0,0.0,0.0,0.0,0.0,0.0,0.0,0.0,0.0,0.0,0.0,0.0,0.0,0.0,0.0,0.0,0.0,0.0,0.0,0.0,0.0,0.0,0.0,0.0,0.0,0.0,0.0,0.0,0.0,0.0,0.0,0.0,0.0,0.0,0.0,0.0,0.0,0.0,0.0,0.0,0.0,0.0,0.0,0.0,0.0,0.0,0.0,0.0,0.0,0.0,0.0,0.0,0.0,0.0,0.0,0.0,0.0,0.0,0.0,0.0,0.0,0.0,0.0,0.0,0.0,0.0,0.0,0.0,0.0,0.0,0.0,0.0,0.0,0.0,0.0,0.0,0.0,0.0,0.0,0.0,0.0,0.0,0.0,0.0,0.0,0.0,0.0,0.0,0.0,0.0,0.0,0.0,0.0,0.0,0.0,0.0,0.0,0.0,0.0,0.0,0.0,0.0,0.0,0.0,0.0,0.0,0.0,0.0,0.0,0.0,0.0,0.0,0.0,0.0,0.0,0.0,0.0,0.0,0.0,0.0,0.0,0.0,0.0,0.0,0.0,0.0,0.0,0.0,0.0,0.0,0.0,0.0,0.0,0.0,0.0,0.0,0.0,0.0,0.0,0.0,0.0,0.0,0.0,0.0,0.0,0.0,0.0,0.0,0.0,0.0,0.0,0.0,0.0,0.0,0.0,0.0,0.0,0.0,0.0,0.0,0.0,0.0,0.0,0.0,0.0,0.0,0.0,0.0,0.0,0.0,0.0,0.0,0.0,0.0,0.0,0.0,0.0,0.0,0.0,0.0,0.0,0.0,0.0,0.0,0.0,0.0,0.0,0.0,0.0,0.0,0.0,0.0,0.0,0.0,0.0,0.0,0.0,0.0,0.0,0.0,0.0,0.0,0.0,0.0,0.0,0.0,0.0,0.0,0.0,0.0,0.0,0.0,0.0,0.0,0.0,0.0,0.0,0.0,0.0,0.0,0.0,0.0,0.0,0.0,0.0,0.0,0.0,0.0,0.0,0.0,0.0,0.0,0.0,0.0,0.0,0.0,0.0,0.0,0.0,0.0,0.0,0.0,0.0,0.0,0.0,0.0,0.0,0.0,0.0,0.0,0.0,0.0,0.0,0.0,0.0,0.0,0.0,0.0,0.0,0.0,0.0,0.0,0.0,0.0,0.0,0.0,0.0,0.0,0.0,0.0,0.0,0.0,0.0,0.0,0.0,0.0,0.0,0.0,0.0,0.0,0.0,0.0,0.0,0.0,0.0,0.0,0.0,0.0,0.0,0.0,0.0,0.0,0.0,0.0,0.0,0.0,0.0,0.0,0.0,0.0,0.0,0.0,0.0,0.0,0.0,0.0,0.0,0.0,0.0,0.0,0.0,0.0,0.0,0.0,0.0,0.0,0.0,0.0,0.0,0.0,0.0,0.0,0.0,0.0,0.0,0.0,0.0,0.0,0.0,0.0,0.0,0.0,0.0,0.0,0.0,0.0,0.0,0.0,0.0,0.0,0.0,0.0,0.0,0.0,0.0,0.0,0.0,0.0,0.0,0.0,0.0,0.0,0.0,0.0,0.0,0.0,0.0,0.0,0.0,0.0,0.0,0.0,0.0,0.0,0.0,0.0,0.0,0.0,0.0,0.0,0.0,0.0,0.0,0.0,0.0,0.0,0.0,0.0,0.0,0.0,0.0,0.0,0.0,0.0,0.0,0.0,0.0,0.0,0.0,0.0,0.0,0.0,0.0,0.0,0.0,0.0,0.0,0.0,0.0,0.0,0.0,0.0,0.0,0.0,0.0,0.0,0.0,0.0,0.0,0.0,0.0,0.0,0.0,0.0,0.0,0.0,0.0,0.0,0.0,0.0,0.0,0.0,0.0,0.0,0.0,0.0,0.0,0.0,0.0,0.0,0.0,0.0,0.0,0.0,0.0,0.0,0.0,0.0,0.0,0.0,0.0,0.0,0.0,0.0,0.0,0.0,0.0,0.0,0.0,0.0,0.0,0.0,0.0,0.0,0.0,0.0,0.0,0.0,0.0,0.0,0.0,0.0,0.0,0.0,0.0,0.0,0.0,0.0,0.0,0.0,0.0,0.0,0.0,0.0,0.0,0.0,0.0,0.0,0.0,0.0,0.0,0.0,0.0,0.0,0.0,0.0,0.0,0.0,0.0,0.0,0.0,0.0,0.0,0.0,0.0,0.0,0.0,0.0,0.0,0.0,0.0,0.0,0.0,0.0,0.0,0.0,0.0,0.0,0.0,0.0,0.0,0.0,0.0,0.0,0.0,0.0,0.0,0.0,0.0,0.0,0.0,0.0,0.0,0.0,0.0,0.0,0.0,0.0,0.0,0.0,0.0,0.0,0.0,0.0,0.0,0.0,0.0,0.0,0.0,0.0,0.0,0.0,0.0,0.0,0.0,0.0,0.0,0.0,0.0,0.0,0.0,0.0,0.0,0.0,0.0,0.0,0.0,0.0,0.0,0.0,0.0,0.0,0.0,0.0,0.0,0.0,0.0,0.0,0.0,0.0,0.0,0.0,0.0,0.0,0.0,0.0,0.0,0.0,0.0,0.0,0.0,0.0,0.0,0.0,0.0,0.0,0.0,0.0,0.0,0.0,0.0,0.0,0.0,0.0,0.0,0.0,0.0,0.0,0.0,0.0,0.0,0.0,0.0,0.0,0.0,0.0,0.0,0.0,0.0,0.0,0.0,0.0,0.0,0.0,0.0,0.0,0.0,0.0,0.0,0.0,0.0,0.0,0.0,0.0,0.0,0.0,0.0,0.0,0.0,0.0,0.0,0.0,0.0,0.0,0.0,0.0,0.0,0.0,0.0,0.0,0.0,0.0,0.0,0.0,0.0,0.0,0.0,0.0,0.0,0.0,0.0,0.0,0.0,0.0,0.0,0.0,0.0,0.0,0.0,0.0,0.0,0.0,0.0,0.0,0.0,0.0,0.0,0.0,0.0,0.0,0.0,0.0,0.0,0.0,0.0,0.0,0.0,0.0,0.0,0.0,0.0,0.0,0.0,0.0,0.0,0.0,0.0,0.0,0.0,0.0,0.0,0.0,0.0,0.0,0.0,0.0,0.0,0.0,0.0,0.0,0.0,0.0,0.0,0.0,0.0,0.0,0.0,0.0,0.0,0.0,0.0,0.0,0.0,0.0,0.0,0.0,0.0,0.0,0.0,0.0,0.0,0.0,0.0,0.0,0.0,0.0,0.0,0.0,0.0,0.0,0.0,0.0,0.0,0.0,0.0,0.0,0.0,0.0,0.0,0.0,0.0,0.0,0.0,0.0,0.0,0.0,0.0,0.0,0.0,0.0,0.0,0.0,0.0,0.0,0.0,0.0,0.0,0.0,0.0,0.0,0.0,0.0,0.0,0.0,0.0,0.0,0.0,0.0,0.0,0.0,0.0,0.0,0.0,0.0,0.0,0.0,0.0,0.0,0.0,0.0,0.0,0.0,0.0,0.0,0.0,0.0,0.0,0.0,0.0,0.0,0.0,0.0,0.0,0.0,0.0,0.0,0.0,0.0,0.0,0.0,0.0,0.0,0.0,0.0,0.0,0.0,0.0,0.0,0.0,0.0,0.0,0.0,0.0,0.0,0.0,0.0,0.0,0.0,0.0,0.0,0.0,0.0,0.0,0.0,0.0,0.0,0.0,0.0,0.0,0.0,0.0,0.0,0.0,0.0,0.0,0.0,0.0,0.0,0.0,0.0,0.0,0.0,0.0,0.0,0.0,0.0,0.0,0.0,0.0,0.0,0.0,0.0,0.0,0.0,0.0,0.0,0.0,0.0,0.0,0.0,0.0,0.0,0.0,0.0,0.0,0.0,0.0,0.0,0.0,0.0,0.0,0.0,0.0,0.0,0.0,0.0,0.0,0.0,0.0,0.0,0.0,0.0,0.0,0.0,0.0,0.0,0.0,0.0,0.0,0.0,0.0,0.0,0.0,0.0,0.0,0.0,0.0,0.0,0.0,0.0,0.0,0.0,0.0,0.0,0.0,0.0,0.0,0.0,0.0,0.0,0.0,0.0,0.0,0.0,0.0,0.0,0.0,0.0,0.0,0.0,0.0,0.0,0.0,0.0,0.0,0.0,0.0,0.0,0.0,0.0,0.0,0.0,0.0,0.0,0.0,0.0,0.0,0.0,0.0,0.0,0.0,0.0,0.0,0.0,0.0,0.0,0.0,0.0,0.0,0.0,0.0,0.0,0.0,0.0,0.0,-1.3291,0.0,0.0,0.0,0.0,0.0,0.0,0.0,0.0,0.0,0.0,0.0,0.0,0.0,0.0,0.0,0.0,0.0,0.0,0.0,0.0,0.0,0.0,0.0,0.0,0.0,0.0,0.0,0.0,0.0,0.0,0.0,0.0,0.0,0.0,0.0,0.0,0.0,0.0,0.0,0.0,0.0,0.0,0.0,0.0,0.0,0.0,0.0,0.0,0.0,0.0,0.0,0.0,0.0,0.0,0.0,0.0,0.0,0.0,0.0,0.0,0.0,0.0,0.0,0.0,0.0,0.0,0.0,0.0,0.0,0.0,0.0,0.0,0.0,0.0,0.0,0.0,0.0,0.0,0.0,0.0,0.0,0.0,0.0,0.0,0.0,0.0,0.0,0.0,0.0,0.0,0.0,0.0,0.0,0.0,0.0,0.0,0.0,0.0,0.0,0.0,0.0,0.0,0.0,0.0,0.0,0.0,0.0,0.0,0.0,0.0,-1.3803,-1.3235,-1.4299,-1.435,-1.329,0.0,0.0,0.0,0.0,0.0,0.0,0.0,0.0,0.0,0.0,0.0,0.0,0.0,0.0,0.0,0.0,0.0,0.0,0.0,0.0,0.0,0.0,0.0,0.0,0.0,0.0,0.0,0.0,0.0,0.0,0.0,0.0,0.0,0.0,0.0,0.0,0.0,0.0,0.0,0.0,0.0,0.0,0.0,0.0,0.0,0.0,0.0,0.0,0.0,0.0,0.0,0.0,0.0,0.0,0.0,0.0,0.0,0.0,0.0,0.0,0.0,0.0,0.0,0.0,0.0,0.0,0.0,0.0,0.0,0.0,0.0,0.0,0.0,0.0,0.0,0.0,0.0,0.0,0.0,0.0,0.0,0.0,0.0,0.0,0.0,0.0,0.0,0.0,0.0,0.0,0.0,0.0,0.0,0.0,0.0,0.0,0.0,0.0,0.0,0.0,0.0,0.0,0.0,0.0,0.0,0.0,0.0,0.0,0.0,0.0,0.0,0.0,-1.4318,-1.4305,-1.3441,0.0,0.0,0.0,0.0,0.0,0.0,0.0,0.0,0.0,0.0,0.0,0.0,0.0,0.0,0.0,0.0,0.0,0.0,0.0,0.0,0.0,0.0,0.0,0.0,0.0,0.0,0.0,0.0,0.0,0.0,0.0,0.0,0.0,0.0,0.0,0.0,0.0,0.0,0.0,0.0,0.0,0.0,0.0,0.0,0.0,0.0,0.0,0.0,0.0,0.0,0.0,0.0,0.0,0.0,0.0,0.0,0.0,0.0,0.0,0.0,0.0,0.0,0.0,0.0,0.0,0.0,0.0,0.0,0.0,0.0,0.0,0.0,0.0,0.0,0.0,0.0,0.0,0.0,0.0,0.0,0.0,0.0,0.0,0.0,0.0,0.0,0.0,0.0,0.0,0.0,0.0,0.0,0.0,0.0,0.0,0.0,0.0,0.0,0.0,0.0,0.0,0.0,0.0,0.0,0.0,0.0,0.0,0.0,0.0,0.0,-1.4299,-1.4739,-1.4374,0.0,-1.3997,0.0,0.0,0.0,0.0,0.0,0.0,0.0,0.0,0.0,0.0,0.0,0.0,0.0,0.0,0.0,0.0,0.0,0.0,0.0,0.0,0.0,0.0,0.0,0.0,0.0,0.0,0.0,0.0,0.0,0.0,0.0,0.0,0.0,0.0,0.0,0.0,0.0,0.0,0.0,0.0,0.0,0.0,0.0,0.0,0.0,0.0,0.0,0.0,0.0,0.0,0.0,0.0,0.0,0.0,0.0,0.0,0.0,0.0,0.0,0.0,0.0,0.0,0.0,0.0,0.0,0.0,0.0,0.0,0.0,0.0,0.0,0.0,0.0,0.0,0.0,0.0,0.0,0.0,0.0,0.0,0.0,0.0,0.0,0.0,0.0,0.0,0.0,0.0,0.0,0.0,0.0,0.0,0.0,0.0,0.0,0.0,0.0,0.0,0.0,0.0,0.0,0.0,0.0,0.0,0.0,0.0,0.0,0.0,0.0,0.0,-1.4821,-1.5374,-1.4846,-1.4261,0.0,0.0,0.0,0.0,0.0,0.0,0.0,0.0,0.0,0.0,0.0,0.0,0.0,0.0,0.0,0.0,0.0,0.0,0.0,0.0,0.0,0.0,0.0,0.0,0.0,0.0,0.0,0.0,0.0,0.0,0.0,0.0,0.0,0.0,0.0,0.0,0.0,0.0,0.0,0.0,0.0,0.0,0.0,0.0,0.0,0.0,0.0,0.0,0.0,0.0,0.0,0.0,0.0,0.0,0.0,0.0,0.0,0.0,0.0,0.0,0.0,0.0,0.0,0.0,0.0,0.0,0.0,0.0,0.0,0.0,0.0,0.0,0.0,0.0,0.0,0.0,0.0,0.0,0.0,0.0,0.0,0.0,0.0,0.0,0.0,0.0,0.0,0.0,0.0,0.0,0.0,0.0,0.0,0.0,0.0,0.0,0.0,0.0,0.0,0.0,0.0,0.0,0.0,0.0,0.0,0.0,0.0,0.0,0.0,0.0,-1.5713,-1.5517,-1.5856,-1.5261,-1.4507,-1.3692,0.0,0.0,0.0,0.0,0.0,0.0,0.0,0.0,0.0,0.0,0.0,0.0,0.0,0.0,0.0,0.0,0.0,0.0,0.0,0.0,0.0,0.0,0.0,0.0,0.0,0.0,0.0,0.0,0.0,0.0,0.0,0.0,0.0,0.0,0.0,0.0,0.0,0.0,0.0,0.0,0.0,0.0,0.0,0.0,0.0,0.0,0.0,0.0,0.0,0.0,0.0,0.0,0.0,0.0,0.0,0.0,0.0,0.0,0.0,0.0,0.0,0.0,0.0,0.0,0.0,0.0,0.0,0.0,0.0,0.0,0.0,0.0,0.0,0.0,0.0,0.0,0.0,0.0,0.0,0.0,0.0,0.0,0.0,0.0,0.0,0.0,0.0,0.0,0.0,0.0,0.0,0.0,0.0,0.0,0.0,0.0,0.0,0.0,0.0,0.0,0.0,0.0,0.0,0.0,0.0,0.0,0.0,0.0,-1.7965,-1.6999,-1.6437,-1.6425,-1.5475,-1.489,0.0,0.0,0.0,0.0,0.0,0.0,0.0,0.0,0.0,0.0,0.0,0.0,0.0,0.0,0.0,0.0,0.0,0.0,0.0,0.0,0.0,0.0,0.0,0.0,0.0,0.0,0.0,0.0,0.0,0.0,0.0,0.0,0.0,0.0,0.0,0.0,0.0,0.0,0.0,0.0,0.0,0.0,0.0,0.0,0.0,0.0,0.0,0.0,0.0,0.0,0.0,0.0,0.0,0.0,0.0,0.0,0.0,0.0,0.0,0.0,0.0,0.0,0.0,0.0,0.0,0.0,0.0,0.0,0.0,0.0,0.0,0.0,0.0,0.0,0.0,0.0,0.0,0.0,0.0,0.0,0.0,0.0,0.0,0.0,0.0,0.0,0.0,0.0,0.0,0.0,0.0,0.0,0.0,0.0,0.0,0.0,0.0,0.0,0.0,0.0,0.0,0.0,0.0,0.0,0.0,0.0,0.0,0.0,0.0,-1.7089,-1.7438,-1.725,-1.6559,-1.6484,-1.6166,0.0,0.0,0.0,0.0,0.0,0.0,0.0,0.0,0.0,0.0,0.0,0.0,0.0,0.0,0.0,0.0,0.0,0.0,0.0,0.0,0.0,0.0,0.0,0.0,0.0,0.0,0.0,0.0,0.0,0.0,0.0,0.0,0.0,0.0,0.0,0.0,0.0,0.0,0.0,0.0,0.0,0.0,0.0,0.0,0.0,0.0,0.0,0.0,0.0,0.0,0.0,0.0,0.0,0.0,0.0,0.0,0.0,0.0,0.0,0.0,0.0,0.0,0.0,0.0,0.0,0.0,0.0,0.0,0.0,0.0,0.0,0.0,0.0,0.0,0.0,0.0,0.0,0.0,0.0,0.0,0.0,0.0,0.0,0.0,0.0,0.0,0.0,0.0,0.0,0.0,0.0,0.0,0.0,0.0,0.0,0.0,0.0,0.0,0.0,0.0,0.0,0.0,0.0,0.0,0.0,0.0,0.0,0.0,0.0,-1.7052,0.0,-1.808,-1.7365,-1.7363,-1.6958,0.0,0.0,0.0,0.0,0.0,0.0,0.0,0.0,0.0,0.0,0.0,0.0,0.0,0.0,0.0,0.0,0.0,0.0,0.0,0.0,0.0,0.0,0.0,0.0,0.0,0.0,0.0,0.0,0.0,0.0,0.0,0.0,0.0,0.0,0.0,0.0,0.0,0.0,0.0,0.0,0.0,0.0,0.0,0.0,0.0,0.0,0.0,0.0,0.0,0.0,0.0,0.0,0.0,0.0,0.0,0.0,0.0,0.0,0.0,0.0,0.0,0.0,0.0,0.0,0.0,0.0,0.0,0.0,0.0,0.0,0.0,0.0,0.0,0.0,0.0,0.0,0.0,0.0,0.0,0.0,0.0,0.0,0.0,0.0,0.0,0.0,0.0,0.0,0.0,0.0,0.0,0.0,0.0,0.0,0.0,0.0,0.0,0.0,0.0,0.0,0.0,0.0,0.0,0.0,0.0,0.0,0.0,0.0,-1.7052,-1.8141,-1.8694,-1.8945,-1.897,-1.7965,-1.7137,0.0,0.0,0.0,0.0,0.0,0.0,0.0,0.0,0.0,0.0,0.0,0.0,0.0,0.0,0.0,0.0,0.0,0.0,0.0,0.0,0.0,0.0,0.0,0.0,0.0,0.0,0.0,0.0,0.0,0.0,0.0,0.0,0.0,0.0,0.0,0.0,0.0,0.0,0.0,0.0,0.0,0.0,0.0,0.0,0.0,0.0,0.0,0.0,0.0,0.0,0.0,0.0,0.0,0.0,0.0,0.0,0.0,0.0,0.0,0.0,0.0,0.0,0.0,0.0,0.0,0.0,0.0,0.0,0.0,0.0,0.0,0.0,0.0,0.0,0.0,0.0,0.0,0.0,0.0,0.0,0.0,0.0,0.0,0.0,0.0,0.0,0.0,0.0,0.0,0.0,0.0,0.0,0.0,0.0,0.0,0.0,0.0,0.0,0.0,0.0,0.0,0.0,0.0,0.0,0.0,0.0,0.0,0.0,0.0,-1.7652,-1.8519,-1.9008,-1.897,-1.8329,-1.7865,0.0,0.0,0.0,0.0,0.0,0.0,0.0,0.0,0.0,0.0,0.0,0.0,0.0,0.0,0.0,0.0,0.0,0.0,0.0,0.0,0.0,0.0,0.0,0.0,0.0,0.0,0.0,0.0,0.0,0.0,0.0,0.0,0.0,0.0,0.0,0.0,0.0,0.0,0.0,0.0,0.0,0.0,0.0,0.0,0.0,0.0,0.0,0.0,0.0,0.0,0.0,0.0,0.0,0.0,0.0,0.0,0.0,0.0,0.0,0.0,0.0,0.0,0.0,0.0,0.0,0.0,0.0,0.0,0.0,0.0,0.0,0.0,0.0,0.0,0.0,0.0,0.0,0.0,0.0,0.0,0.0,0.0,0.0,0.0,0.0,0.0,0.0,0.0,0.0,0.0,0.0,0.0,0.0,0.0,0.0,0.0,0.0,0.0,0.0,0.0,0.0,0.0,0.0,0.0,0.0,0.0,0.0,0.0,0.0,-1.8041,-1.8857,-1.9296,-1.9284,-1.8593,-1.8204,-1.8166,0.0,0.0,0.0,0.0,0.0,0.0,0.0,0.0,0.0,0.0,0.0,0.0,0.0,0.0,0.0,0.0,0.0,0.0,0.0,0.0,0.0,0.0,0.0,0.0,0.0,0.0,0.0,0.0,0.0,0.0,0.0,0.0,0.0,0.0,0.0,0.0,0.0,0.0,0.0,0.0,0.0,0.0,0.0,0.0,0.0,0.0,0.0,0.0,0.0,0.0,0.0,0.0,0.0,0.0,0.0,0.0,0.0,0.0,0.0,0.0,0.0,0.0,0.0,0.0,0.0,0.0,0.0,0.0,0.0,0.0,0.0,0.0,0.0,0.0,0.0,0.0,0.0,0.0,0.0,0.0,0.0,0.0,0.0,0.0,0.0,0.0,0.0,0.0,0.0,0.0,0.0,0.0,0.0,0.0,0.0,0.0,0.0,0.0,0.0,0.0,0.0,0.0,0.0,0.0,0.0,0.0,0.0,0.0,-1.8995,-1.9535,-1.9786,-1.9786,-1.8756,-1.8204,0.0,0.0,0.0,0.0,0.0,0.0,0.0,0.0,0.0,0.0,0.0,0.0,0.0,0.0,0.0,0.0,0.0,0.0,0.0,0.0,0.0,0.0,0.0,0.0,0.0,0.0,0.0,0.0,0.0,0.0,0.0,0.0,0.0,0.0,0.0,0.0,0.0,0.0,0.0,0.0,0.0,0.0,0.0,0.0,0.0,0.0,0.0,0.0,0.0,0.0,0.0,0.0,0.0,0.0,0.0,0.0,0.0,0.0,0.0,0.0,0.0,0.0,0.0,0.0,0.0,0.0,0.0,0.0,0.0,0.0,0.0,0.0,0.0,0.0,0.0,0.0,0.0,0.0,0.0,0.0,0.0,0.0,0.0,0.0,0.0,0.0,0.0,0.0,0.0,0.0,0.0,0.0,0.0,0.0,0.0,0.0,0.0,0.0,0.0,0.0,0.0,0.0,0.0,0.0,0.0,0.0,0.0,0.0,0.0,-1.8995,-1.9509,-1.9798,-1.9773,-1.8769,-1.8204,0.0,0.0,0.0,0.0,0.0,0.0,0.0,0.0,0.0,0.0,0.0,0.0,0.0,0.0,0.0,0.0,0.0,0.0,0.0,0.0,0.0,0.0,0.0,0.0,0.0,0.0,0.0,0.0,0.0,0.0,0.0,0.0,0.0,0.0,0.0,0.0,0.0,0.0,0.0,0.0,0.0,0.0,0.0,0.0,0.0,0.0,0.0,0.0,0.0,0.0,0.0,0.0,0.0,0.0,0.0,0.0,0.0,0.0,0.0,0.0,0.0,0.0,0.0,0.0,0.0,0.0,0.0,0.0,0.0,0.0,0.0,0.0,0.0,0.0,0.0,0.0,0.0,0.0,0.0,0.0,0.0,0.0,0.0,0.0,0.0,0.0,0.0,0.0,0.0,0.0,0.0,0.0,0.0,0.0,0.0,0.0,0.0,0.0,0.0,0.0,0.0,0.0,0.0,0.0,0.0,0.0,0.0,0.0,-1.8581,-1.9334,-1.9648,-1.9798,-1.9798,-1.8958,-1.8442,0.0,0.0,0.0,0.0,0.0,0.0,0.0,0.0,0.0,0.0,0.0,0.0,0.0,0.0,0.0,0.0,0.0,0.0,0.0,0.0,0.0,0.0,0.0,0.0,0.0,0.0,0.0,0.0,0.0,0.0,0.0,0.0,0.0,0.0,0.0,0.0,0.0,0.0,0.0,0.0,0.0,0.0,0.0,0.0,0.0,0.0,0.0,0.0,0.0,0.0,0.0,0.0,0.0,0.0,0.0,0.0,0.0,0.0,0.0,0.0,0.0,0.0,0.0,0.0,0.0,0.0,0.0,0.0,0.0,0.0,0.0,0.0,0.0,0.0,0.0,0.0,0.0,0.0,0.0,0.0,0.0,0.0,0.0,0.0,0.0,0.0,0.0,0.0,0.0,0.0,0.0,0.0,0.0,0.0,0.0,0.0,0.0,0.0,0.0,0.0,0.0,0.0,0.0,0.0,0.0,0.0,0.0,0.0,-1.8731,-1.9773,-1.9798,-1.9798,-1.9786,-1.9271,-1.8744,0.0,0.0,0.0,0.0,0.0,0.0,0.0,0.0,0.0,0.0,0.0,0.0,0.0,0.0,0.0,0.0,0.0,0.0,0.0,0.0,0.0,0.0,0.0,0.0,0.0,0.0,0.0,0.0,0.0,0.0,0.0,0.0,0.0,0.0,0.0,0.0,0.0,0.0,0.0,0.0,0.0,0.0,0.0,0.0,0.0,0.0,0.0,0.0,0.0,0.0,0.0,0.0,0.0,0.0,0.0,0.0,0.0,0.0,0.0,0.0,0.0,0.0,0.0,0.0,0.0,0.0,0.0,0.0,0.0,0.0,0.0,0.0,0.0,0.0,0.0,0.0,0.0,0.0,0.0,0.0,0.0,0.0,0.0,0.0,0.0,0.0,0.0,0.0,0.0,0.0,0.0,0.0,0.0,0.0,0.0,0.0,0.0,0.0,0.0,0.0,0.0,0.0,0.0,0.0,0.0,0.0,0.0,0.0,-1.8719,-1.9761,-1.9798,-1.9798,-1.9798,-1.9271,-1.8744,0.0,0.0,0.0,0.0,0.0,0.0,0.0,0.0,0.0,0.0,0.0,0.0,0.0,0.0,0.0,0.0,0.0,0.0,0.0,0.0,0.0,0.0,0.0,0.0,0.0,0.0,0.0,0.0,0.0,0.0,0.0,0.0,0.0,0.0,0.0,0.0,0.0,0.0,0.0,0.0,0.0,0.0,0.0,0.0,0.0,0.0,0.0,0.0,-2.0438,0.0,0.0,0.0,0.0,0.0,0.0,0.0,0.0,0.0,0.0,0.0,0.0,0.0,0.0,0.0,0.0,0.0,0.0,0.0,0.0,0.0,0.0,0.0,0.0,0.0,0.0,0.0,0.0,0.0,0.0,0.0,0.0,0.0,0.0,0.0,0.0,0.0,0.0,0.0,0.0,0.0,0.0,0.0,0.0,0.0,0.0,0.0,0.0,0.0,0.0,0.0,0.0,0.0,0.0,0.0,0.0,0.0,0.0,0.0,-1.8982,-1.9761,-1.9798,-1.9798,-1.9786,-1.9535,-1.8995,0.0,0.0,0.0,0.0,0.0,0.0,0.0,0.0,0.0,0.0,0.0,0.0,0.0,0.0,0.0,0.0,0.0,0.0,0.0,0.0,0.0,0.0,0.0,0.0,0.0,0.0,0.0,0.0,0.0,0.0,0.0,0.0,0.0,0.0,0.0,0.0,0.0,0.0,0.0,0.0,0.0,0.0,0.0,0.0,0.0,0.0,0.0,0.0,0.0,0.0,0.0,0.0,0.0,0.0,0.0,0.0,0.0,0.0,0.0,0.0,0.0,0.0,0.0,0.0,0.0,0.0,0.0,0.0,0.0,0.0,0.0,0.0,0.0,0.0,0.0,0.0,0.0,0.0,0.0,0.0,0.0,0.0,0.0,0.0,0.0,0.0,0.0,0.0,0.0,0.0,0.0,0.0,0.0,0.0,0.0,0.0,0.0,0.0,0.0,0.0,0.0,0.0,0.0,0.0,0.0,0.0,0.0,-1.8644,-1.9171,-1.9773,-1.9798,-1.9798,-1.9798,-1.9798,-1.9296,-1.8254,0.0,0.0,0.0,0.0,0.0,0.0,0.0,0.0,0.0,0.0,0.0,0.0,0.0,0.0,0.0,0.0,0.0,0.0,0.0,0.0,0.0,0.0,0.0,0.0,0.0,0.0,0.0,0.0,0.0,0.0,0.0,0.0,0.0,0.0,0.0,0.0,0.0,0.0,-1.9902,-2.0498,0.0,0.0,0.0,0.0,0.0,0.0,0.0,0.0,-2.0763,0.0,0.0,0.0,0.0,0.0,0.0,0.0,0.0,0.0,0.0,0.0,0.0,0.0,0.0,0.0,0.0,0.0,0.0,0.0,0.0,0.0,0.0,0.0,0.0,0.0,0.0,0.0,0.0,0.0,0.0,0.0,0.0,0.0,0.0,0.0,0.0,0.0,0.0,0.0,0.0,0.0,0.0,0.0,0.0,0.0,0.0,0.0,0.0,0.0,0.0,0.0,0.0,0.0,0.0,0.0,0.0,-1.8179,-1.8292,-1.8819,-1.9773,-1.9798,-1.9798,-1.9798,-1.9798,-1.9296,-1.8279,0.0,0.0,0.0,0.0,0.0,0.0,0.0,0.0,0.0,0.0,0.0,0.0,0.0,0.0,0.0,0.0,0.0,0.0,0.0,0.0,0.0,0.0,0.0,0.0,0.0,0.0,0.0,0.0,0.0,0.0,0.0,0.0,0.0,0.0,0.0,0.0,0.0,0.0,0.0,-2.147,-2.153,0.0,0.0,0.0,0.0,0.0,0.0,0.0,0.0,-2.0902,0.0,0.0,0.0,0.0,0.0,0.0,0.0,0.0,0.0,0.0,0.0,0.0,0.0,0.0,0.0,0.0,0.0,0.0,0.0,0.0,0.0,0.0,0.0,0.0,0.0,0.0,0.0,0.0,0.0,0.0,0.0,0.0,0.0,0.0,0.0,0.0,0.0,0.0,0.0,0.0,0.0,0.0,0.0,0.0,0.0,0.0,0.0,0.0,0.0,0.0,0.0,0.0,0.0,0.0,0.0,-1.8191,-1.8756,-1.9284,-1.9786,-1.9798,-1.9798,-1.9798,-1.9798,-1.9296,0.0,0.0,0.0,0.0,0.0,0.0,0.0,0.0,0.0,0.0,0.0,0.0,0.0,0.0,0.0,0.0,0.0,0.0,0.0,0.0,0.0,0.0,0.0,0.0,0.0,0.0,0.0,0.0,0.0,0.0,0.0,0.0,0.0,0.0,0.0,0.0,0.0,0.0,0.0,0.0,-2.1695,-2.1834,-2.2179,0.0,0.0,0.0,0.0,0.0,0.0,-2.0917,-2.0793,0.0,0.0,0.0,0.0,0.0,0.0,0.0,0.0,0.0,0.0,0.0,0.0,0.0,0.0,0.0,0.0,0.0,0.0,0.0,0.0,0.0,0.0,0.0,0.0,0.0,0.0,0.0,0.0,0.0,0.0,0.0,0.0,0.0,0.0,0.0,0.0,0.0,0.0,0.0,0.0,0.0,0.0,0.0,0.0,0.0,0.0,0.0,0.0,0.0,0.0,0.0,0.0,0.0,0.0,0.0,-1.8229,-1.9158,-1.9621,-1.9579,-1.9579,-1.9592,-1.9592,-1.9579,-1.9145,0.0,0.0,0.0,0.0,0.0,0.0,0.0,0.0,0.0,0.0,0.0,0.0,0.0,0.0,0.0,0.0,0.0,0.0,0.0,0.0,0.0,0.0,0.0,0.0,0.0,0.0,0.0,0.0,0.0,0.0,0.0,0.0,0.0,0.0,0.0,0.0,0.0,0.0,0.0,0.0,0.0,-2.2039,-2.2433,-2.2044,0.0,0.0,0.0,0.0,-2.1077,-2.1092,0.0,0.0,0.0,0.0,0.0,0.0,0.0,0.0,0.0,0.0,0.0,0.0,0.0,0.0,0.0,0.0,0.0,0.0,0.0,0.0,0.0,0.0,0.0,0.0,0.0,0.0,0.0,0.0,0.0,0.0,0.0,0.0,0.0,0.0,0.0,0.0,0.0,0.0,0.0,0.0,0.0,0.0,0.0,0.0,0.0,0.0,0.0,0.0,0.0,0.0,0.0,0.0,0.0,0.0,0.0,0.0,-1.8204,-1.8782,-1.9005,-1.885,-1.8833,-1.8821,-1.8821,-1.8833,-1.8638,0.0,0.0,0.0,0.0,0.0,0.0,0.0,0.0,0.0,0.0,0.0,0.0,0.0,0.0,0.0,0.0,0.0,0.0,0.0,0.0,0.0,0.0,0.0,0.0,0.0,0.0,0.0,0.0,0.0,0.0,0.0,0.0,0.0,0.0,0.0,0.0,0.0,0.0,0.0,0.0,0.0,-2.2388,-2.1874,-2.1739,-2.1684,0.0,0.0,-2.1784,-2.2373,-2.2463,0.0,0.0,0.0,0.0,0.0,0.0,0.0,0.0,0.0,0.0,0.0,0.0,0.0,0.0,0.0,0.0,0.0,0.0,0.0,0.0,0.0,0.0,0.0,0.0,0.0,0.0,0.0,0.0,0.0,0.0,0.0,0.0,0.0,0.0,0.0,0.0,0.0,0.0,0.0,0.0,0.0,0.0,0.0,0.0,0.0,0.0,0.0,0.0,0.0,0.0,0.0,0.0,0.0,0.0,0.0,-1.735,-1.7605,-1.7989,-1.8157,-1.8085,-1.8058,-1.8058,-1.8097,-1.8097,-1.7915,0.0,0.0,0.0,0.0,0.0,0.0,0.0,0.0,0.0,0.0,0.0,0.0,0.0,0.0,0.0,0.0,0.0,0.0,0.0,0.0,0.0,0.0,0.0,0.0,0.0,0.0,0.0,0.0,0.0,0.0,0.0,0.0,0.0,0.0,0.0,0.0,0.0,0.0,0.0,0.0,0.0,0.0,-2.2772,-2.2488,0.0,0.0,0.0,-2.2239,-2.2149,0.0,0.0,0.0,0.0,0.0,0.0,0.0,0.0,0.0,0.0,0.0,0.0,0.0,0.0,0.0,0.0,0.0,0.0,0.0,0.0,0.0,0.0,0.0,0.0,0.0,0.0,0.0,0.0,0.0,0.0,0.0,0.0,0.0,0.0,0.0,0.0,0.0,0.0,0.0,0.0,0.0,0.0,0.0,0.0,0.0,0.0,0.0,0.0,0.0,0.0,0.0,0.0,0.0,0.0,0.0,0.0,0.0,-1.7096,-1.7421,-1.7495,-1.733,-1.733,-1.733,-1.7341,-1.7302,0.0,0.0,0.0,0.0,0.0,0.0,0.0,0.0,0.0,0.0,0.0,0.0,0.0,0.0,0.0,0.0,0.0,0.0,0.0,0.0,0.0,0.0,0.0,0.0,0.0,0.0,0.0,-1.704,0.0,0.0,0.0,0.0,0.0,0.0,0.0,0.0,0.0,0.0,0.0,0.0,0.0,0.0,-2.2868,-2.3295,-2.3002,-2.2763,0.0,0.0,-2.2583,-2.2218,-2.2613,-2.2742,0.0,0.0,0.0,0.0,0.0,0.0,0.0,0.0,0.0,0.0,0.0,0.0,0.0,0.0,0.0,0.0,0.0,0.0,0.0,0.0,0.0,0.0,0.0,0.0,0.0,0.0,0.0,0.0,0.0,0.0,0.0,0.0,0.0,0.0,0.0,0.0,0.0,0.0,0.0,0.0,0.0,0.0,0.0,0.0,0.0,0.0,0.0,0.0,0.0,0.0,0.0,0.0,0.0,0.0,0.0,-1.7119,-1.7421,-1.7246,-1.6595,-1.6578,-1.6567,-1.6578,-1.6567,-1.6716,0.0,0.0,0.0,0.0,0.0,0.0,0.0,0.0,0.0,0.0,0.0,0.0,0.0,0.0,0.0,0.0,0.0,0.0,0.0,0.0,0.0,0.0,0.0,0.0,0.0,0.0,0.0,0.0,0.0,0.0,0.0,0.0,0.0,0.0,0.0,0.0,0.0,0.0,0.0,0.0,0.0,-2.2703,-2.2763,-2.2718,-2.2912,0.0,0.0,-2.2882,-2.337,-2.3505,-2.352,-2.3475,0.0,0.0,0.0,0.0,0.0,0.0,0.0,0.0,0.0,0.0,0.0,0.0,0.0,0.0,0.0,0.0,0.0,0.0,0.0,0.0,0.0,0.0,0.0,0.0,0.0,0.0,0.0,0.0,0.0,0.0,0.0,0.0,0.0,0.0,0.0,0.0,0.0,0.0,0.0,0.0,0.0,0.0,0.0,0.0,0.0,0.0,0.0,0.0,0.0,0.0,0.0,0.0,0.0,-1.5873,-1.5884,-1.6121,-1.6112,-1.5835,-1.5816,-1.5816,-1.5835,-1.5835,-1.5955,0.0,0.0,0.0,0.0,0.0,0.0,0.0,0.0,0.0,0.0,0.0,0.0,0.0,0.0,0.0,0.0,0.0,0.0,0.0,0.0,0.0,0.0,0.0,0.0,0.0,0.0,0.0,0.0,-2.0343,-2.0857,-2.0703,0.0,0.0,0.0,0.0,0.0,0.0,0.0,0.0,0.0,0.0,-2.3251,-2.3236,-2.3236,0.0,0.0,-2.34,-2.3347,-2.3565,-2.3932,-2.4216,-2.4201,-2.4567,0.0,0.0,0.0,0.0,0.0,0.0,0.0,0.0,0.0,0.0,0.0,0.0,0.0,0.0,0.0,0.0,0.0,0.0,0.0,0.0,0.0,0.0,0.0,0.0,0.0,0.0,0.0,0.0,0.0,0.0,0.0,0.0,0.0,0.0,0.0,0.0,0.0,0.0,0.0,0.0,0.0,0.0,0.0,0.0,0.0,0.0,0.0,0.0,0.0,0.0,0.0,0.0,-1.5107,-1.5117,-1.5281,-1.542,-1.542,-1.542,-1.542,-1.542,-1.542,-1.5491,0.0,0.0,0.0,0.0,0.0,0.0,0.0,0.0,0.0,0.0,0.0,0.0,0.0,0.0,0.0,0.0,0.0,0.0,0.0,0.0,0.0,0.0,0.0,0.0,0.0,0.0,0.0,0.0,-2.0784,-2.1286,-2.1036,0.0,0.0,0.0,0.0,0.0,0.0,0.0,0.0,0.0,0.0,-2.3595,-2.3595,-2.3774,-2.3894,-2.3909,-2.4073,-2.4208,-2.4208,-2.4425,-2.4664,-2.4859,0.0,0.0,0.0,0.0,0.0,0.0,0.0,0.0,0.0,0.0,0.0,0.0,0.0,0.0,0.0,0.0,0.0,0.0,0.0,0.0,0.0,0.0,0.0,0.0,0.0,0.0,0.0,0.0,0.0,0.0,-0.8695,0.0,0.0,0.0,0.0,0.0,0.0,0.0,0.0,0.0,0.0,0.0,0.0,0.0,0.0,0.0,0.0,0.0,0.0,0.0,0.0,0.0,0.0,-1.5091,-1.5102,-1.5291,-1.542,-1.542,-1.542,-1.542,-1.542,-1.542,-1.5481,-1.5659,0.0,0.0,0.0,0.0,0.0,0.0,0.0,0.0,0.0,0.0,0.0,0.0,0.0,0.0,0.0,0.0,0.0,0.0,0.0,0.0,0.0,0.0,0.0,0.0,0.0,0.0,-1.9621,-2.0328,-2.1002,0.0,0.0,0.0,0.0,0.0,0.0,0.0,0.0,0.0,0.0,-2.3595,-2.3595,-2.3595,-2.4141,-2.4515,-2.4545,-2.5106,-2.5525,-2.551,-2.5008,-2.4814,0.0,0.0,0.0,0.0,0.0,0.0,0.0,0.0,0.0,0.0,0.0,0.0,0.0,0.0,0.0,0.0,0.0,0.0,0.0,0.0,0.0,0.0,0.0,0.0,0.0,0.0,0.0,-0.7631,-0.723,0.0,0.0,0.0,0.0,0.0,0.0,0.0,0.0,0.0,0.0,0.0,-1.2767,-1.2246,0.0,0.0,0.0,0.0,0.0,0.0,0.0,0.0,0.0,0.0,0.0,0.0,-1.4423,-1.4463,-1.5094,-1.542,-1.542,-1.542,-1.542,-1.542,-1.542,-1.533,-1.5101,0.0,0.0,0.0,0.0,0.0,0.0,0.0,0.0,0.0,0.0,0.0,0.0,0.0,0.0,0.0,0.0,0.0,0.0,0.0,0.0,0.0,0.0,0.0,0.0,0.0,-1.9452,0.0,0.0,0.0,0.0,0.0,0.0,0.0,0.0,0.0,0.0,0.0,-2.3355,-2.358,-2.3595,-2.3595,-2.3595,-2.3789,-2.3939,0.0,0.0,0.0,0.0,0.0,0.0,0.0,0.0,0.0,0.0,0.0,0.0,0.0,0.0,-2.4511,-2.5207,-2.4906,-2.4713,-2.5434,0.0,0.0,0.0,0.0,0.0,0.0,0.0,0.0,0.0,0.0,0.0,0.0,0.0,0.0,-0.7347,0.0,-0.7618,0.0,0.0,0.0,0.0,0.0,0.0,0.0,0.0,-1.1122,-1.1448,-1.212,-1.1632,-1.181,0.0,-1.2573,-1.2991,0.0,0.0,0.0,0.0,0.0,0.0,0.0,0.0,-1.4365,-1.4358,-1.5049,-1.542,-1.542,-1.542,-1.542,-1.542,-1.542,-1.5283,-1.501,-1.4863,-1.4658,0.0,0.0,0.0,0.0,0.0,0.0,0.0,0.0,0.0,0.0,0.0,0.0,0.0,0.0,0.0,0.0,0.0,0.0,0.0,0.0,0.0,0.0,0.0,-1.9907,0.0,0.0,0.0,0.0,0.0,0.0,0.0,0.0,0.0,-2.3017,-2.3362,-2.3595,-2.3595,-2.3595,-2.3595,-2.3595,0.0,0.0,0.0,0.0,0.0,0.0,0.0,-2.6183,-2.6851,-2.7121,-2.733,-2.7555,-2.7225,-2.6956,-2.6956,0.0,0.0,-2.6603,-2.6077,-2.5832,-2.651,-2.637,-2.6297,-2.6849,-2.7162,-2.7585,0.0,0.0,0.0,0.0,0.0,0.0,0.0,0.0,-0.7077,-0.7067,0.0,-0.7619,0.0,0.0,0.0,0.0,0.0,-0.9574,0.0,0.0,-1.0432,-1.0579,-1.0618,-1.0618,-1.1014,-1.1741,-1.1772,-1.2166,-1.2854,-1.2535,0.0,0.0,0.0,0.0,0.0,0.0,-1.4729,-1.4673,-1.5099,-1.5352,-1.5352,-1.5381,-1.542,-1.542,-1.542,-1.541,-1.54,-1.5019,-1.4805,-1.4775,-1.4004,0.0,0.0,0.0,0.0,0.0,0.0,0.0,0.0,0.0,0.0,0.0,0.0,0.0,0.0,0.0,0.0,0.0,0.0,0.0,0.0,-1.9486,0.0,0.0,0.0,0.0,0.0,0.0,0.0,0.0,0.0,0.0,-2.3537,-2.3573,-2.3595,-2.3595,0.0,0.0,0.0,0.0,-2.4829,-2.5427,-2.6123,-2.6776,-2.742,-2.7001,-2.6821,-2.748,0.0,0.0,-2.748,-2.7585,-2.757,-2.7585,-2.754,-2.7195,-2.5952,-2.5796,-2.5734,-2.5766,-2.5811,-2.5914,-2.6525,-2.7147,-2.7836,-0.4499,0.0,0.0,0.0,0.0,-0.6176,-0.6296,-0.6353,-0.6883,-0.6793,-0.6344,-0.7027,0.0,0.0,0.0,0.0,0.0,0.0,-0.984,-1.0083,-1.0207,-1.0354,-1.0586,-1.0586,-1.0713,-1.0926,-1.0951,-1.1083,-1.1264,-1.1179,-1.1887,-1.3352,0.0,0.0,0.0,0.0,-1.309,-1.3165,-1.4044,-1.454,-1.4569,-1.5108,-1.542,-1.542,-1.542,-1.542,-1.542,-1.5293,-1.5098,-1.4823,-1.4551,0.0,0.0,0.0,0.0,0.0,0.0,0.0,0.0,0.0,0.0,0.0,0.0,0.0,0.0,0.0,0.0,0.0,0.0,0.0,-1.9471,-1.9699,-1.9635,0.0,0.0,0.0,0.0,0.0,0.0,0.0,0.0,0.0,-2.2897,-2.3334,-2.3595,0.0,0.0,-2.3595,-2.3595,-2.4171,-2.4679,-2.4859,-2.5442,0.0,-2.6791,-2.6746,-2.6821,-2.748,-2.7435,-2.7375,-2.757,-2.7585,-2.7585,-2.7585,-2.7585,-2.7465,-2.7151,-2.7031,-2.7016,-2.7031,-2.7031,-2.7091,-2.7295,-2.7459,-2.7676,-0.3927,-0.4665,-0.4889,-0.5246,-0.564,-0.5643,-0.5678,-0.5774,-0.6208,-0.6177,-0.5798,-0.6463,-0.7027,-0.7531,-0.7776,0.0,0.0,0.0,-0.918,-0.9755,-0.9792,-1.0069,-1.0586,-1.0586,-1.0586,-1.0586,-1.0586,-1.0586,-1.0586,-1.0586,-1.1381,-1.2818,0.0,0.0,-1.294,-1.2726,-1.2627,-1.2665,-1.3374,-1.3726,-1.3734,-1.4204,-1.4451,-1.4451,-1.4756,-1.4932,-1.4932,-1.5225,-1.5264,-1.5039,-1.4901,-1.4658,0.0,0.0,0.0,0.0,0.0,0.0,0.0,0.0,0.0,0.0,0.0,-1.565,-1.7157,0.0,0.0,0.0,-1.8112,-1.8656,-1.9722,-1.9798,0.0,0.0,0.0,0.0,0.0,0.0,0.0,-2.1687,-2.1697,-2.1852,-2.2239,-2.2643,-2.3024,-2.353,-2.3399,-2.3334,-2.3551,0.0,-2.4414,-2.4902,-2.5561,-2.6228,-2.6896,-2.7001,-2.7151,-2.7525,-2.7585,-2.7585,-2.7585,-2.7585,-2.7585,-2.7585,-2.7585,-2.7585,-2.7585,-2.7585,-2.7585,-2.7585,-2.7585,-2.7585,-2.7585,-2.7585,-2.7635,-0.3203,-0.4162,-0.4661,-0.4993,-0.5147,-0.514,-0.525,-0.5409,-0.5399,-0.5395,-0.5451,-0.5905,-0.618,-0.6262,-0.6894,0.0,-0.756,-0.7534,-0.8148,-0.921,-0.921,-0.9658,-1.0466,-1.0498,-1.053,-1.0586,-1.0586,-1.0586,-1.0586,-1.0586,-1.0982,-1.1686,-1.1732,-1.2135,-1.2864,-1.2818,-1.2842,-1.2836,-1.2897,-1.2975,-1.3061,-1.3036,-1.3019,-1.305,-1.3743,-1.4115,-1.4145,-1.4815,-1.5206,-1.5196,-1.4868,-1.4684,-1.473,0.0,0.0,0.0,0.0,0.0,0.0,0.0,0.0,0.0,0.0,0.0,0.0,0.0,0.0,0.0,-1.8232,0.0,-1.9553,-1.9669,0.0,0.0,0.0,-2.0029,-2.0646,-2.0721,-2.093,-2.1482,0.0,0.0,-2.1639,-2.1639,-2.2086,-2.3282,-2.2987,-2.2867,-2.3517,-2.3666,-2.4138,-2.5358,-2.6098,-2.6684,-2.7117,-2.7323,-2.7439,-2.756,-2.7585,-2.7585,-2.7585,-2.7585,-2.7585,-2.7585,-2.7585,-2.7585,-2.7585,-2.7585,-2.7585,-2.7585,-2.7585,-2.7585,-2.7585,-2.7585,-2.7735,-0.2244,-0.3204,-0.3263,-0.4194,-0.5633,-0.5528,-0.5501,-0.5521,-0.5446,-0.5395,-0.5392,-0.5552,-0.5952,-0.6619,-0.741,-0.7835,-0.7881,-0.7881,-0.804,-0.8318,-0.8318,-0.8775,-0.9594,-0.9626,-0.9951,-1.0555,-1.0586,-1.0586,-1.0586,-1.0586,-1.0681,-1.087,-1.109,-1.15,-1.2027,-1.1483,-1.1259,-1.1492,-1.2082,-1.2804,-1.3656,-1.3435,-1.3319,-1.3279,-1.3303,-1.3282,-1.3274,-1.3463,-1.3575,-1.3575,-1.3459,-1.3714,-1.4304,-1.3966,0.0,0.0,0.0,0.0,0.0,0.0,0.0,0.0,0.0,-1.554,-1.6676,0.0,-1.6574,0.0,-1.777,-1.7922,-1.8124,-1.8635,0.0,0.0,-1.9475,-1.985,-2.0029,-2.0029,-2.0093,-2.0232,-2.0257,-2.0421,-2.0942,-2.1028,-2.1283,-2.2039,-2.2025,-2.2348,-2.3467,-2.3648,-2.4072,-2.5225,-2.5638,-2.575,-2.5957,-2.6416,-2.6956,-2.7524,-2.756,-2.7585,-2.7585,-2.7585,-2.7585,-2.7585,-2.7585,-2.7585,-2.7585,-2.7585,-2.7585,-2.7585,-2.7585,-2.7585,-2.7585,-2.7585,-2.765,-0.1344,-0.2299,-0.223,-0.3133,-0.4604,-0.4849,-0.4977,-0.5003,-0.542,-0.559,-0.5552,-0.5528,-0.5721,-0.6141,-0.6629,-0.6859,-0.6859,-0.6826,-0.7051,-0.7405,-0.7437,-0.8091,-0.93,-0.93,-0.9754,-1.0586,-1.0586,-1.0586,-1.06,-1.072,-1.078,-1.0794,-1.1042,-1.1328,-1.1581,-1.1164,-1.1022,-1.1182,-1.1603,-1.2173,-1.2744,-1.2612,-1.2515,-1.2507,-1.2608,-1.2649,-1.2641,-1.2868,-1.3152,-1.3524,-1.3545,-1.3756,-1.4174,-1.4328,-1.4542,0.0,0.0,0.0,0.0,0.0,0.0,0.0,0.0,0.0,0.0,0.0,-1.6358,-1.7484,-1.7302,-1.7257,-1.7567,-1.8259,-1.87,-1.8715,-1.9359,-1.9798,-1.9798,-1.9798,-1.9798,-1.9798,-1.9798,-1.9952,-2.0295,-2.0346,-2.0459,-2.0817,-2.0841,-2.1423,-2.286,-2.3188,-2.36,-2.4783,-2.5228,-2.5398,-2.5398,-2.5728,-2.6149,-2.6534,-2.689,-2.7111,-2.7126,-2.7382,-2.7585,-2.7585,-2.7585,-2.7585,-2.7585,-2.7585,-2.7585,-2.7585,-2.7585,-2.7585,-2.7585,-2.7585,-2.7585,-0.0549,-0.1372,-0.1372,-0.1896,-0.2764,-0.3517,-0.3973,-0.426,-0.5179,-0.5649,-0.5766,-0.5661,-0.5576,-0.5453,-0.5453,-0.5443,-0.5426,-0.5423,-0.5837,-0.6527,-0.6523,-0.7377,-0.8941,-0.8973,-0.9422,-1.0263,-1.0302,-1.0289,-1.0302,-1.0673,-1.0877,-1.0856,-1.1268,-1.1483,-1.1449,-1.1482,-1.1489,-1.1455,-1.1482,-1.1536,-1.1536,-1.1469,-1.1483,-1.147,-1.1876,-1.2101,-1.2056,-1.2492,-1.305,-1.3696,-1.3756,-1.3777,-1.3906,-1.456,-1.4658,0.0,-1.4726,0.0,0.0,0.0,0.0,0.0,0.0,0.0,0.0,-1.6007,-1.6624,-1.7274,-1.6754,-1.6624,-1.7263,-1.7977,-1.8436,-1.8581,-1.9202,-1.9695,-1.9773,-1.9798,-1.9798,-1.9798,-1.9798,-1.9798,-1.9824,-1.9798,-1.9798,-1.9901,-1.9888,-2.0579,-2.205,-2.247,-2.291,-2.415,-2.4792,-2.4937,-2.5147,-2.5231,-2.5315,-2.5453,-2.596,-2.639,-2.6537,-2.7008,-2.7458,-2.7575,-2.7585,-2.7585,-2.7585,-2.7585,-2.7585,-2.7585,-2.7585,-2.7585,-2.7585,-2.7585,-2.7585,-0.0118,-0.0314,-0.0314,-0.0431,-0.0662,-0.1665,-0.2908,-0.4211,-0.429,-0.4822,-0.5637,-0.5725,-0.5745,-0.5718,-0.5718,-0.5692,-0.5583,-0.5583,-0.5579,-0.562,-0.5653,-0.6174,-0.7177,-0.7177,-0.7632,-0.8458,-0.8612,-0.8642,-0.8675,-0.9616,-1.0121,-1.0161,-1.1246,-1.1784,-1.1797,0.0,0.0,0.0,-1.2017,-1.2131,-1.2131,-1.1911,-1.1784,-1.1812,-1.1627,0.0,-1.1226,-1.1321,-1.1336,-1.1279,-1.1264,0.0,0.0,0.0,0.0,0.0,0.0,0.0,0.0,0.0,0.0,0.0,-1.542,-1.542,-1.542,-1.5526,-1.5671,-1.5796,-1.569,-1.5661,-1.5796,-1.6472,-1.7174,-1.7759,-1.8474,-1.9123,-1.9695,-1.9798,-1.9798,-1.9798,-1.9798,-1.9798,-1.9798,-1.9798,-1.9798,-1.9798,-1.9798,-2.033,-2.1549,-2.1739,-2.2395,-2.3925,-2.3952,-2.3842,-2.4408,-2.4523,-2.4696,-2.5245,-2.5495,-2.5824,-2.631,-2.6563,-2.6956,-2.7408,-2.7585,-2.7575,-2.7585,-2.7585,-2.7585,-2.7585,-2.7585,-2.7585,-2.7585,-2.7585,-2.7585,0.0,0.0,0.0,0.0,0.0,-0.0578,-0.157,-0.2812,-0.3315,-0.413,-0.5045,-0.5107,-0.5392,-0.5796,-0.5728,-0.5657,-0.5586,-0.5545,-0.5511,-0.5508,-0.5474,-0.5981,-0.6899,-0.6903,-0.7371,-0.8184,-0.826,-0.8285,-0.8329,-0.8987,-0.934,-0.9346,-1.0218,-1.0607,-1.0649,-1.1255,-1.1734,-1.2084,-1.2225,-1.2305,-1.2298,-1.2158,-1.2084,-1.2114,-1.1797,0.0,0.0,0.0,0.0,0.0,0.0,0.0,0.0,-1.2166,0.0,-1.242,-1.2757,-1.3191,-1.3584,-1.3974,-1.4382,-1.4776,-1.5167,-1.542,-1.542,-1.542,-1.542,-1.542,-1.542,-1.542,-1.5449,-1.6065,-1.6662,-1.7062,-1.7704,-1.8447,-1.9123,-1.9267,-1.9397,-1.9747,-1.9798,-1.9798,-1.9798,-1.9798,-1.9798,-1.9798,-1.9798,-2.0213,-2.123,-2.1481,-2.2094,-2.3456,-2.3395,-2.3245,-2.359,-2.3708,-2.3796,-2.4221,-2.4582,-2.4964,-2.5342,-2.5715,-2.6203,-2.6878,-2.7074,-2.7152,-2.7509,-2.7585,-2.7585,-2.7585,-2.7585,-2.7585,-2.7585,-2.7585,-2.7585,0.0,0.0,0.0,0.0,0.0,0.0,-0.0416,-0.1182,0.0,0.0,0.0,-0.4463,-0.4909,-0.5577,-0.5688,-0.5691,-0.5657,-0.5538,-0.5532,-0.5627,-0.5627,-0.6074,-0.6865,-0.6865,-0.7252,-0.7915,-0.7983,-0.7966,-0.7975,-0.8425,-0.8599,-0.8655,-0.9055,-0.9296,-0.9372,-1.0115,-1.0944,-1.1737,-1.2114,-1.2305,-1.2305,-1.2305,-1.2305,-1.2305,-1.2071,-1.196,-1.1899,-1.1637,-1.1662,-1.2036,-1.1996,-1.1882,-1.1696,-1.2236,-1.2305,-1.1679,-1.2205,-1.2642,-1.2787,-1.3394,-1.3906,-1.4183,-1.4815,-1.5264,-1.5391,-1.542,-1.542,-1.542,-1.542,-1.542,-1.542,-1.5921,-1.635,-1.6492,-1.7034,-1.7688,-1.8394,-1.8501,-1.8715,-1.9281,-1.9345,-1.9385,-1.9333,-1.9345,-1.9475,-1.9579,-1.9553,-2.0095,-2.1202,-2.1707,-2.2171,-2.2979,-2.3125,-2.3095,-2.3138,-2.3168,-2.3095,-2.3245,-2.3708,-2.4118,-2.435,-2.4781,-2.5453,-2.6176,-2.6324,-2.6522,-2.7045,-2.724,-2.7397,-2.7423,-2.7509,-2.7585,-2.7585,-2.7585,-2.7585,0.0,0.0,0.0,0.0,0.0,0.0,-0.0079,-0.0311,-0.2138,-0.2991,-0.321,-0.4198,-0.473,-0.4909,-0.5822,-0.6095,-0.5932,-0.5909,-0.5878,-0.5776,-0.5772,-0.5854,-0.5979,-0.5975,-0.6051,-0.6165,-0.6295,-0.6323,-0.6452,-0.7421,-0.7926,-0.8045,-0.8865,-0.9296,-0.9296,-0.9448,-0.9599,-0.9755,-1.1434,-1.2305,-1.2305,-1.2305,-1.2305,-1.2298,-1.2265,-1.2118,-1.1913,-1.1866,-1.1733,-1.1512,-1.1282,-1.1166,-1.1118,-1.104,-1.0902,-1.0776,-1.0863,-1.1233,-1.1919,-1.2081,-1.2749,-1.4055,-1.4293,-1.4667,-1.5323,-1.542,-1.542,-1.542,-1.542,-1.542,-1.541,-1.5526,-1.5835,-1.6379,-1.6578,-1.695,-1.766,-1.777,-1.7813,-1.8015,-1.7907,-1.7961,-1.8043,-1.8015,-1.8259,-1.8715,-1.8967,-1.9494,-2.1082,-2.2293,-2.2857,-2.3058,-2.3095,-2.3095,-2.3095,-2.3095,-2.3095,-2.3095,-2.3215,-2.3573,-2.4118,-2.4337,-2.4738,-2.5425,-2.555,-2.5618,-2.581,-2.6242,-2.6628,-2.6774,-2.7178,-2.756,-2.7585,-2.7585,-2.7585,0.0,0.0,0.0,0.0,0.0,0.0,0.0,0.0,-0.0935,-0.1657,-0.2236,-0.2803,-0.3322,-0.3861,-0.4279,-0.4722,-0.5193,-0.5052,-0.5359,-0.5888,-0.5925,-0.5973,-0.6085,-0.6088,-0.6051,-0.6095,-0.6118,-0.6156,-0.6235,-0.672,-0.6984,-0.7022,-0.7442,-0.7936,-0.8466,-0.8466,-0.877,-0.9301,-1.0196,-1.0944,-1.1465,-1.1502,-1.1731,-1.2268,-1.2305,-1.2245,-1.2111,-1.2104,-1.1964,-1.1677,-1.1543,-1.1396,-1.1229,-1.0949,-1.0827,-1.0827,-1.068,-1.0776,-1.1101,-1.1562,-1.232,-1.3425,-1.3545,-1.3696,-1.4055,-1.4894,-1.542,-1.542,-1.542,-1.542,-1.542,-1.542,-1.5555,-1.5864,-1.5892,-1.6197,-1.6849,-1.7006,-1.7174,-1.7523,-1.7605,-1.7605,-1.7605,-1.7605,-1.7688,-1.8093,-1.8515,-1.9439,-2.073,-2.178,-2.2598,-2.3005,-2.3095,-2.3095,-2.3095,-2.3095,-2.3095,-2.3095,-2.3095,-2.3245,-2.3603,-2.3662,-2.3989,-2.4624,-2.4823,-2.4979,-2.5259,-2.6014,-2.639,-2.6563,-2.71,-2.7524,-2.7585,-2.7585,-2.7585,0.0622,0.0394,0.0394,0.026,0.0,0.0,0.0,0.0,0.0,-0.0474,-0.1224,-0.1493,-0.2035,-0.273,-0.2875,-0.3419,-0.4089,-0.4022,-0.4474,-0.5309,-0.5582,-0.5797,-0.5973,-0.6141,-0.63,-0.63,-0.63,-0.63,-0.63,-0.63,-0.63,-0.63,-0.63,-0.6679,-0.7442,-0.748,-0.7859,-0.8575,-0.8618,-0.921,-1.0415,-1.0453,-1.087,-1.1545,-1.162,-1.1626,-1.1626,-1.1848,-1.1862,-1.1683,-1.1826,-1.1799,-1.1536,-1.1249,-1.1089,-1.1069,-1.0847,-1.0653,-1.0663,-1.1202,-1.1872,-1.2665,-1.2726,-1.2826,-1.307,-1.4115,-1.4962,-1.5079,-1.5294,-1.542,-1.542,-1.542,-1.542,-1.542,-1.542,-1.5671,-1.6151,-1.6265,-1.6454,-1.6996,-1.7107,-1.7052,-1.7096,-1.7107,-1.7135,-1.7423,-1.8262,-1.9267,-2.0047,-2.0906,-2.1725,-2.239,-2.2823,-2.3095,-2.3095,-2.3095,-2.3095,-2.3095,-2.3095,-2.3125,-2.3168,-2.3125,-2.3305,-2.3914,-2.4031,-2.4192,-2.4781,-2.5453,-2.581,-2.5906,-2.6402,-2.706,-2.724,-2.7484,-2.756,0.2588,0.1696,0.165,0.0971,0.0,0.0,0.0,0.0,0.0,0.0,0.0,-0.1148,-0.1608,-0.184,-0.2649,-0.3071,-0.3226,-0.3221,-0.3297,-0.3534,-0.4397,-0.4836,-0.4924,-0.5786,-0.63,-0.6219,-0.6183,-0.6141,-0.6222,-0.63,-0.63,-0.63,-0.63,-0.6338,-0.6451,-0.6454,-0.6528,-0.6563,-0.6567,-0.7518,-0.9296,-0.9448,-0.9485,-0.9566,-0.9599,-0.9566,-0.9787,-1.0453,-1.0926,-1.0959,-1.1571,-1.1893,-1.1839,-1.1543,-1.1355,-1.1342,-1.1116,-1.0842,-1.0658,-1.0649,-1.1076,-1.181,-1.1927,-1.2205,-1.2856,-1.3122,-1.3545,-1.4183,-1.4932,-1.5264,-1.542,-1.5352,-1.5352,-1.542,-1.542,-1.5439,-1.5526,-1.5497,-1.5517,-1.5575,-1.5777,-1.5604,-1.5777,-1.5806,-1.5968,-1.6567,-1.7589,-1.8581,-1.9149,-1.9746,-2.0404,-2.1049,-2.2021,-2.2914,-2.3005,-2.3095,-2.3095,-2.3095,-2.3095,-2.3095,-2.3095,-2.3095,-2.3155,-2.3335,-2.3305,-2.3412,-2.356,-2.393,-2.4567,-2.4894,-2.537,-2.5864,-2.6469,-2.7034,-2.7357,0.3303,0.286,0.2858,0.2181,0.1059,0.0303,0.0,0.0,0.0,0.0,0.0,-0.0483,-0.0676,-0.0667,-0.1097,-0.1604,-0.219,-0.2192,-0.254,-0.3085,-0.3552,-0.3746,-0.3787,-0.4178,-0.4411,-0.4414,-0.4411,-0.4724,-0.5354,-0.5986,-0.63,-0.63,-0.63,-0.63,-0.63,-0.63,-0.63,-0.63,-0.63,-0.6718,-0.748,-0.8122,-0.8689,-0.9221,-0.9296,-0.9631,-1.0078,-1.0045,-1.0458,-1.1539,-1.1439,-1.1522,-1.2124,-1.185,-1.1683,-1.1663,-1.1243,-1.0942,-1.0854,-1.0687,-1.0737,-1.1083,-1.1108,-1.1233,-1.1577,-1.1989,-1.2451,-1.281,-1.3537,-1.4154,-1.4599,-1.4688,-1.4874,-1.5294,-1.542,-1.542,-1.542,-1.542,-1.542,-1.542,-1.542,-1.542,-1.542,-1.542,-1.5526,-1.5885,-1.6646,-1.7397,-1.8266,-1.8831,-1.9528,-2.0424,-2.1227,-2.1803,-2.2279,-2.2823,-2.3017,-2.3095,-2.3095,-2.3095,-2.3095,-2.3095,-2.3095,-2.3095,-2.3095,-2.3095,-2.3155,-2.3738,-2.4308,-2.4394,-2.4838,-2.5508,-2.5783,-2.6081,-2.6402,0.4457,0.4094,0.3758,0.3081,0.2188,0.1014,0.0482,0.0437,0.0129,0.0,0.0,0.0,0.0,0.0,0.0,-0.0432,-0.1098,-0.1137,-0.1566,-0.2266,-0.254,-0.2657,-0.2696,-0.3007,-0.3124,-0.3124,-0.3163,-0.3513,-0.4292,-0.5002,-0.5434,-0.5434,-0.5431,-0.555,-0.5825,-0.5867,-0.6025,-0.6261,-0.63,-0.63,-0.6412,-0.6984,-0.7744,-0.8428,-0.8466,-0.8803,-0.9508,-0.914,-0.9518,-1.095,-1.0608,-1.0714,-1.1428,-1.1284,-1.1147,-1.1041,-1.0657,-1.0497,-1.0669,-1.0438,-1.0412,-1.0675,-1.0646,-1.0586,-1.0681,-1.1139,-1.1437,-1.1538,-1.1996,-1.2726,-1.3696,-1.3876,-1.4145,-1.4658,-1.4894,-1.5079,-1.505,-1.5196,-1.542,-1.542,-1.542,-1.542,-1.542,-1.542,-1.5439,-1.5517,-1.5733,-1.6217,-1.7257,-1.7833,-1.8479,-1.9555,-1.9976,-2.0623,-2.1396,-2.2187,-2.2671,-2.2854,-2.2854,-2.3095,-2.3095,-2.3095,-2.3095,-2.3095,-2.3095,-2.3095,-2.3095,-2.3649,-2.3959,-2.4118,-2.4538,-2.5035,-2.5091,-2.5231,-2.5618,0.6575,0.5367,0.4141,0.3614,0.3392,0.2232,0.1742,0.1648,0.0613,0.0,0.0,0.0,0.0,0.0,0.0,0.0,0.0,0.0,0.0,0.0,-0.1214,-0.1684,-0.1723,-0.2618,-0.3046,-0.2812,-0.2812,-0.2968,-0.3163,-0.3279,-0.324,-0.3318,-0.3435,-0.3826,-0.4647,-0.4766,-0.5234,-0.5944,-0.606,-0.6219,-0.6261,-0.6296,-0.6412,-0.6606,-0.649,-0.6641,-0.6795,-0.7437,-0.797,-0.805,-0.8955,-0.941,-0.9485,-0.9508,-0.9394,-0.9087,-0.899,-0.9235,-0.9835,-0.9694,-0.988,-1.066,-1.0593,-1.0561,-1.046,-1.0649,-1.0737,-1.0681,-1.0839,-1.1483,-1.2704,-1.3,-1.31,-1.3282,-1.3855,-1.4204,-1.4264,-1.4815,-1.5323,-1.5352,-1.5381,-1.5352,-1.5352,-1.542,-1.542,-1.542,-1.5449,-1.5723,-1.6246,-1.6628,-1.7137,-1.7778,-1.8656,-1.9617,-2.0494,-2.1365,-2.1846,-2.2002,-2.231,-2.2975,-2.3065,-2.3095,-2.3065,-2.3095,-2.3095,-2.3095,-2.3095,-2.3155,-2.3275,-2.3471,-2.3884,-2.425,-2.4295,-2.4951,-2.5259,0.7224,0.6621,0.5313,0.4732,0.4596,0.3438,0.2948,0.29,0.2528,0.1844,0.1258,0.1162,0.0721,0.0,0.0,0.0,0.0,0.0,0.0,0.0,-0.0392,-0.0589,-0.0588,-0.0979,-0.1097,-0.1097,-0.1135,-0.1488,-0.219,-0.2774,-0.3124,-0.3124,-0.3124,-0.3318,-0.3591,-0.3671,-0.3904,-0.4215,-0.4256,-0.4569,-0.5237,-0.5276,-0.5589,-0.6257,-0.63,-0.6602,-0.7253,-0.6984,-0.7403,-0.8694,-0.8499,-0.8651,-0.9221,-0.9296,-0.9223,-0.9127,-0.8913,-0.8907,-0.9133,-0.8934,-0.8883,-0.9181,-0.9661,-0.9856,-0.9893,-1.0269,-1.0586,-1.0555,-1.0586,-1.0958,-1.1358,-1.1903,-1.2451,-1.294,-1.3252,-1.3425,-1.3485,-1.3696,-1.4055,-1.4569,-1.5021,-1.5235,-1.4844,-1.5079,-1.5381,-1.542,-1.542,-1.5605,-1.5977,-1.6221,-1.6594,-1.721,-1.7764,-1.8284,-1.8821,-2.0215,-2.108,-2.1101,-2.1353,-2.1834,-2.2063,-2.2384,-2.2414,-2.3035,-2.3095,-2.3095,-2.3095,-2.3095,-2.3095,-2.3185,-2.356,-2.3649,-2.3501,-2.4063,-2.4381,0.7553,0.7279,0.6397,0.6019,0.5805,0.4685,0.4196,0.4152,0.3748,0.3143,0.2454,0.2363,0.1731,0.0723,0.0585,0.0327,0.0,0.0,0.0,0.0,0.0,0.0,0.0,0.0,0.0,0.0,0.0,0.0,-0.1058,-0.176,-0.2111,-0.2072,-0.2111,-0.2306,-0.254,-0.2618,-0.2735,-0.3007,-0.3124,-0.3513,-0.4139,-0.4178,-0.4688,-0.5592,-0.5789,-0.6289,-0.7249,-0.6644,-0.6872,-0.8012,-0.7668,-0.7629,-0.8241,-0.8313,-0.8313,-0.8295,-0.8107,-0.8133,-0.8407,-0.8196,-0.8165,-0.8369,-0.8769,-0.9025,-0.9012,-0.9444,-0.9716,-0.9779,-1.0072,-1.0174,-1.0358,-1.0944,-1.1632,-1.2182,-1.2458,-1.2604,-1.2634,-1.2848,-1.3274,-1.3756,-1.4204,-1.4273,-1.4004,-1.4302,-1.4658,-1.4962,-1.5021,-1.5223,-1.5722,-1.6036,-1.6251,-1.6887,-1.7249,-1.757,-1.8002,-1.901,-1.9944,-2.0096,-2.059,-2.0953,-2.1365,-2.1659,-2.2075,-2.275,-2.3065,-2.3095,-2.3095,-2.3095,-2.3095,-2.3095,-2.3185,-2.3305,-2.3215,-2.3155,-2.356,0.7638,0.7407,0.7415,0.7185,0.6811,0.5852,0.5403,0.5225,0.4283,0.3831,0.3645,0.3609,0.2951,0.1997,0.181,0.1226,0.0,0.0,0.0,0.0,0.0,0.0,0.0,0.0,0.0,0.0,0.0,0.0,0.0,0.0,0.0,0.0,0.0,-0.0784,-0.1568,-0.1607,-0.2035,-0.2617,-0.2773,-0.2929,-0.3124,-0.3085,-0.3593,-0.4569,-0.4688,-0.5196,-0.6254,-0.63,-0.6374,-0.6451,-0.6412,-0.6296,-0.6528,-0.6563,-0.6412,-0.6567,-0.6402,-0.6865,-0.7596,-0.7476,-0.7699,-0.8223,-0.8344,-0.8205,-0.8183,-0.8235,-0.8279,-0.8415,-0.8877,-0.93,-0.9396,-0.9977,-1.0579,-1.0719,-1.1413,-1.1772,-1.1927,-1.2481,-1.2948,-1.2948,-1.31,-1.3039,-1.3009,-1.3213,-1.3575,-1.4055,-1.4204,-1.4401,-1.5007,-1.5363,-1.5875,-1.6198,-1.6532,-1.686,-1.729,-1.7786,-1.8468,-1.9123,-1.9781,-2.0344,-2.0846,-2.1195,-2.1491,-2.2082,-2.2298,-2.2329,-2.2689,-2.272,-2.2944,-2.2975,-2.3035,-2.3065,-2.3095,-2.3095,-2.3095,0.776,0.7651,0.7455,0.7392,0.724,0.6783,0.6558,0.6514,0.6157,0.5575,0.4956,0.4821,0.4178,0.3265,0.3008,0.2838,0.2456,0.2288,0.1472,0.0,0.0,0.0,0.0,0.0,0.0,0.0,0.0,0.0,0.0,0.0,0.0,0.0,0.0,0.0,0.0,-0.051,-0.0706,-0.0901,-0.094,-0.1293,-0.1996,-0.2073,-0.2582,-0.3474,-0.3591,-0.41,-0.516,-0.5906,-0.6257,-0.6296,-0.63,-0.63,-0.63,-0.63,-0.63,-0.63,-0.63,-0.6374,-0.6676,-0.6705,-0.6693,-0.6957,-0.7296,-0.7469,-0.7425,-0.7798,-0.7986,-0.7965,-0.8253,-0.842,-0.8452,-0.8613,-0.932,-1.046,-1.0832,-1.0982,-1.1108,-1.1717,-1.1834,-1.16,-1.2305,-1.2704,-1.2451,-1.2512,-1.297,-1.3274,-1.3364,-1.3545,-1.3752,-1.4051,-1.4407,-1.5069,-1.5572,-1.6217,-1.6766,-1.7323,-1.7932,-1.8378,-1.8949,-1.9694,-2.0204,-2.0558,-2.091,-2.129,-2.151,-2.1729,-2.2094,-2.231,-2.2445,-2.2823,-2.2902,-2.2975,-2.3065,-2.3095,-2.3095,0.7862,0.779,0.7611,0.7468,0.7412,0.7261,0.7146,0.7102,0.7095,0.6694,0.6115,0.6027,0.5401,0.4452,0.4272,0.4013,0.363,0.3488,0.2655,0.1312,0.0708,0.0432,0.0,0.0,0.0,0.0,0.0,0.0,0.0,0.0,0.0,0.0,0.0,0.0,0.0,0.0,0.0,0.0,0.0,-0.0314,-0.0863,-0.102,-0.1488,-0.2386,-0.254,-0.3086,-0.4062,-0.4805,-0.5509,-0.6099,-0.63,-0.63,-0.63,-0.63,-0.63,-0.63,-0.63,-0.63,-0.63,-0.6331,-0.6262,-0.6239,-0.6537,-0.6749,-0.6675,-0.7099,-0.7182,-0.7127,-0.7358,-0.7502,-0.7535,-0.7864,-0.8544,-0.9454,-0.9913,-1.0238,-1.0561,-1.1052,-1.1132,-1.0989,-1.1476,-1.1725,-1.1655,-1.1686,-1.2274,-1.242,-1.2543,-1.2765,-1.2848,-1.307,-1.3573,-1.4153,-1.4768,-1.5481,-1.6268,-1.686,-1.7471,-1.7752,-1.8073,-1.8836,-1.9497,-1.9694,-1.9977,-2.0655,-2.0994,-2.1069,-2.1385,-2.1396,-2.1522,-2.2021,-2.2494,-2.2537,-2.2537,-2.2975,-2.3078,0.8146,0.7925,0.7907,0.7786,0.747,0.7419,0.7285,0.7129,0.7098,0.7051,0.7007,0.6918,0.647,0.5625,0.5476,0.4985,0.4,0.4013,0.3832,0.3174,0.2387,0.1495,0.0,0.0,0.0,0.0,0.0,0.0,0.0,0.0,0.0,0.0,0.0,0.0,0.0,0.0,0.0,0.0,0.0,0.0,0.0,0.0,-0.0471,-0.145,-0.1528,-0.1996,-0.2891,-0.3318,-0.4217,-0.5747,-0.5825,-0.5786,-0.6025,-0.6103,-0.5902,-0.5825,-0.6099,-0.6103,-0.618,-0.6257,-0.6293,-0.6269,-0.6208,-0.6034,-0.6117,-0.6072,-0.5978,-0.5906,-0.6358,-0.6646,-0.6769,-0.7181,-0.7735,-0.7994,-0.8742,-0.9492,-1.0269,-1.0428,-1.0428,-1.046,-1.0561,-1.0656,-1.0737,-1.0776,-1.1108,-1.1531,-1.1741,-1.2027,-1.2336,-1.2458,-1.2765,-1.3286,-1.3864,-1.4728,-1.5522,-1.643,-1.7021,-1.7519,-1.7725,-1.8158,-1.8757,-1.8954,-1.9044,-1.9716,-2.0236,-2.0398,-2.0526,-2.0526,-2.0687,-2.1132,-2.1447,-2.171,-2.2094,-2.2537,-2.2884,1.0311,0.9425,0.9296,0.8666,0.776,0.7472,0.7398,0.7295,0.7187,0.7194,0.7139,0.7095,0.7007,0.665,0.6647,0.6448,0.6092,0.5973,0.5464,0.4688,0.4257,0.3374,0.2469,0.2266,0.2228,0.2112,0.1449,0.1176,0.1098,0.051,0.0,0.0,0.0,0.0,0.0,0.0,0.0,0.0,0.0,0.0,0.0,0.0,0.0,-0.0353,-0.0432,-0.098,-0.1957,-0.2735,-0.3279,-0.3826,-0.3943,-0.3945,-0.4059,-0.41,-0.4139,-0.4217,-0.4727,-0.5118,-0.5276,-0.5786,-0.6219,-0.63,-0.6021,-0.6152,-0.6034,-0.5925,-0.577,-0.5692,-0.5812,-0.5876,-0.5818,-0.6017,-0.6404,-0.7051,-0.7767,-0.8415,-0.8807,-0.9262,-0.9626,-0.969,-1.0206,-1.046,-1.0586,-1.0618,-1.0681,-1.0926,-1.1014,-1.1045,-1.1445,-1.1545,-1.1701,-1.2235,-1.2909,-1.3864,-1.4825,-1.5811,-1.6611,-1.7246,-1.7529,-1.7666,-1.8101,-1.8337,-1.8361,-1.8586,-1.8977,-1.9166,-1.9464,-1.9628,-1.9944,-2.0171,-2.0623,-2.0974,-2.1596,-2.2106,-2.2433,1.1458,1.0818,1.0699,1.0219,0.9359,0.8695,0.8628,0.8759,0.8207,0.7897,0.7856,0.7841,0.758,0.7139,0.7095,0.7095,0.7085,0.7014,0.6546,0.5966,0.5624,0.4594,0.3452,0.3124,0.3124,0.3046,0.2501,0.2268,0.2151,0.1566,0.1331,0.0,0.1331,0.1097,0.0,0.1136,0.1058,0.0,0.1058,0.1292,0.1292,0.0862,0.0667,0.0549,0.0314,-0.0392,-0.098,-0.1488,-0.215,-0.2851,-0.3124,-0.3124,-0.3124,-0.3124,-0.3124,-0.3124,-0.3709,-0.4021,-0.41,-0.4649,-0.4921,-0.4921,-0.4963,-0.5162,-0.5325,-0.5425,-0.5332,-0.5741,-0.5674,-0.5555,-0.5508,-0.544,-0.566,-0.6108,-0.6601,-0.7214,-0.7869,-0.8447,-0.8909,-0.9268,-0.9722,-1.0231,-1.0523,-1.0586,-1.0586,-1.0618,-1.0681,-1.0681,-1.0713,-1.0624,-1.0751,-1.1382,-1.1989,-1.2863,-1.3538,-1.4422,-1.5117,-1.5886,-1.676,-1.6978,-1.7499,-1.7789,-1.8042,-1.811,-1.8042,-1.8134,-1.8596,-1.8854,-1.8888,-1.921,-1.9726,-2.0204,-2.0719,-2.1333,-2.171,1.2237,1.2091,1.2091,1.1973,1.1472,1.0521,1.0287,1.0715,0.9777,0.9216,0.9091,0.9061,0.858,0.7489,0.7925,0.7529,0.7356,0.7474,0.7128,0.677,0.6378,0.5399,0.4019,0.3871,0.3826,0.3709,0.3398,0.3279,0.3164,0.3086,0.3007,0.2812,0.289,0.2579,0.1995,0.254,0.254,0.2035,0.2384,0.2695,0.2618,0.2112,0.1762,0.1645,0.1097,0.0666,0.047,0.0235,-0.047,-0.246,-0.2733,-0.2578,-0.2656,-0.2695,-0.2695,-0.2656,-0.2734,-0.293,-0.3008,-0.3163,-0.3279,-0.3396,-0.3318,-0.3476,-0.4271,-0.4406,-0.4608,-0.5192,-0.5421,-0.5167,-0.5274,-0.5312,-0.5439,-0.5591,-0.5528,-0.621,-0.7279,-0.7795,-0.8156,-0.8909,-0.9037,-0.9588,-1.0142,-1.0491,-1.0466,-1.0586,-1.0586,-1.0586,-1.0586,-1.0593,-1.0624,-1.0776,-1.132,-1.1841,-1.2422,-1.2945,-1.3547,-1.423,-1.537,-1.6009,-1.6855,-1.73,-1.7789,-1.8008,-1.8008,-1.8008,-1.81,-1.8202,-1.8178,-1.8337,-1.8911,-1.9177,-1.9464,-2.0171,-2.0687,1.4364,1.3488,1.3488,1.2834,1.1892,1.1444,1.1273,1.1298,1.089,1.0529,1.0304,1.0226,1.0048,0.9744,0.9575,0.9401,0.858,0.8444,0.8016,0.6898,0.6614,0.6351,0.5671,0.5484,0.5512,0.5315,0.4686,0.4373,0.4217,0.3709,0.3163,0.324,0.3396,0.3007,0.293,0.3125,0.3046,0.2851,0.3085,0.3279,0.3279,0.3007,0.2774,0.2657,0.2423,0.2384,0.2423,0.2422,0.1837,0.0743,-0.0196,-0.0666,-0.0862,0.0,0.0,-0.1058,-0.1567,-0.1919,-0.2035,-0.2501,-0.3046,-0.289,-0.2851,-0.3163,-0.3357,-0.342,-0.3452,-0.3598,-0.3507,-0.3887,-0.4308,-0.5005,-0.5146,-0.5163,-0.5259,-0.5458,-0.598,-0.6564,-0.7079,-0.74,-0.7924,-0.8613,-0.9428,-0.9562,-0.9817,-1.0364,-1.0523,-1.0555,-1.0523,-1.046,-1.0523,-1.0491,-1.0989,-1.1507,-1.1692,-1.2126,-1.2468,-1.2988,-1.394,-1.4719,-1.5541,-1.6642,-1.7076,-1.758,-1.8008,-1.794,-1.7716,-1.8008,-1.8076,-1.8144,-1.8202,-1.8553,-1.8977,-1.9431,-1.9628,1.5391,1.4806,1.4806,1.437,1.3674,1.3011,1.2916,1.2998,1.2293,1.1865,1.1647,1.1483,1.1128,1.0605,1.0567,1.0178,0.984,0.9662,0.9,0.7951,0.7495,0.7064,0.6484,0.6378,0.6257,0.618,0.5744,0.547,0.5276,0.4885,0.4727,0.4608,0.4569,0.4373,0.4062,0.4295,0.4336,0.41,0.4375,0.4608,0.4569,0.4098,0.3513,0.3202,0.3124,0.3124,0.3046,0.3085,0.2773,0.2306,0.176,0.094,0.0,0.0,0.0,0.0,-0.0432,-0.0863,-0.1058,-0.1293,-0.1604,-0.1681,-0.1643,-0.1956,-0.2229,-0.2384,-0.2646,-0.2879,-0.2989,-0.3102,-0.3373,-0.3696,-0.4118,-0.4223,-0.4517,-0.4719,-0.4885,-0.5543,-0.6297,-0.6621,-0.7177,-0.78,-0.8323,-0.8619,-0.878,-0.9192,-0.9192,-0.9256,-0.9849,-0.9881,-1.0269,-1.0428,-1.0863,-1.117,-1.1202,-1.1387,-1.1556,-1.2026,-1.266,-1.3209,-1.3745,-1.5026,-1.6298,-1.6707,-1.7023,-1.7285,-1.7217,-1.7579,-1.793,-1.8042,-1.8134,-1.8327,-1.8486,-1.8721,-1.8821,1.5825,1.5825,1.5825,1.5825,1.5635,1.4644,1.4578,1.5035,1.3917,1.3201,1.3011,1.2703,1.212,1.1391,1.1305,1.1128,1.0826,1.0471,0.9776,0.9083,0.8837,0.8196,0.752,0.7214,0.6941,0.6574,0.6257,0.618,0.618,0.6257,0.5867,0.618,0.618,0.5628,0.5276,0.567,0.5709,0.5118,0.5589,0.5983,0.5944,0.5315,0.4569,0.4062,0.3904,0.3904,0.3945,0.3867,0.3632,0.3357,0.3355,0.2305,0.1057,0.047,0.0471,0.0549,0.0627,0.0666,0.0666,0.0509,0.0431,0.0314,0.0196,-0.0314,-0.1058,-0.1371,-0.1642,-0.2172,-0.2407,-0.249,-0.2488,-0.2861,-0.2861,-0.2914,-0.3462,-0.3716,-0.3949,-0.4553,-0.5209,-0.6235,-0.6465,-0.6887,-0.7437,-0.7827,-0.7892,-0.7957,-0.7962,-0.8156,-0.878,-0.9172,-0.946,-0.9556,-0.9767,-1.0218,-1.0345,-1.0471,-1.0656,-1.1104,-1.1607,-1.1851,-1.2203,-1.3078,-1.4276,-1.5402,-1.5826,-1.6192,-1.6697,-1.7139,-1.7501,-1.7794,-1.8042,-1.8168,-1.8134,-1.8008,-1.8066,1.5825,1.5825,1.5825,1.5825,1.5778,1.554,1.5383,1.5331,1.4812,1.4479,1.4154,1.391,1.3603,1.3434,1.3476,1.2948,1.1986,1.1375,1.0671,1.0281,1.0087,0.9623,0.9039,0.873,0.8385,0.7508,0.6907,0.6567,0.6412,0.63,0.6641,0.6412,0.6451,0.6254,0.6289,0.6257,0.6374,0.6057,0.6219,0.6261,0.618,0.6025,0.5786,0.5431,0.5354,0.5431,0.5589,0.5631,0.5395,0.453,0.4453,0.3748,0.289,0.2617,0.254,0.2306,0.2266,0.2189,0.2228,0.2423,0.2073,0.1606,0.1333,0.0863,0.0118,-0.0196,-0.0274,-0.0663,-0.1229,-0.1579,-0.1566,-0.2016,-0.2554,-0.2691,-0.272,-0.2885,-0.2948,-0.3313,-0.3949,-0.5147,-0.5514,-0.5914,-0.6498,-0.6953,-0.7083,-0.7214,-0.7344,-0.754,-0.8027,-0.8221,-0.835,-0.835,-0.835,-0.8871,-0.9364,-0.9518,-0.9716,-1.0199,-1.0597,-1.069,-1.0966,-1.1219,-1.2117,-1.3302,-1.4624,-1.5469,-1.6009,-1.6487,-1.6966,-1.7182,-1.7579,-1.7896,-1.7545,-1.7226,-1.751,1.5825,1.5825,1.5825,1.5825,1.5825,1.5825,1.5752,1.5565,1.5157,1.4928,1.4649,1.4309,1.4088,1.4088,1.4088,1.373,1.316,1.2729,1.2077,1.1631,1.131,1.0697,1.01,0.985,0.9276,0.8631,0.8046,0.7518,0.7211,0.7706,0.7706,0.7897,0.7859,0.7859,0.7668,0.7365,0.7134,0.7022,0.6641,0.6335,0.6338,0.6338,0.6335,0.6335,0.6335,0.63,0.63,0.63,0.606,0.5628,0.5512,0.5237,0.4882,0.4569,0.4219,0.3437,0.3202,0.3163,0.3124,0.3124,0.2812,0.2501,0.2386,0.2151,0.176,0.1604,0.1293,0.0742,-0.0039,-0.0613,-0.0642,-0.1069,-0.1262,-0.1404,-0.1689,-0.1938,-0.2052,-0.238,-0.3147,-0.3984,-0.4381,-0.4915,-0.5752,-0.6108,-0.6272,-0.647,-0.6662,-0.6985,-0.7279,-0.734,-0.7372,-0.7605,-0.767,-0.7994,-0.8452,-0.8581,-0.8839,-0.932,-0.9594,-0.9679,-0.9784,-1.0058,-1.0533,-1.135,-1.2728,-1.403,-1.4808,-1.5141,-1.5852,-1.6445,-1.6471,-1.6496,-1.6498,-1.6515,-1.6768,1.6339,1.652,1.6292,1.6157,1.6204,1.6197,1.6062,1.5712,1.5211,1.5008,1.4928,1.4376,1.4088,1.4088,1.4088,1.4088,1.4088,1.3997,1.3428,1.282,1.2541,1.1828,1.0989,1.0428,1.0262,0.9811,0.9911,0.9263,0.8389,0.8689,0.9145,0.9069,0.9221,0.9296,0.8993,0.8389,0.8161,0.7855,0.7403,0.6907,0.6911,0.6911,0.6911,0.683,0.6718,0.6641,0.6718,0.6416,0.63,0.618,0.6219,0.6219,0.6257,0.6257,0.5473,0.41,0.3787,0.3746,0.3826,0.3906,0.3904,0.3476,0.3435,0.3318,0.3007,0.2695,0.2618,0.1918,0.1251,0.0545,0.0422,0.0303,0.0111,-0.0217,-0.0706,-0.1076,-0.1194,-0.1485,-0.1911,-0.2613,-0.3147,-0.3713,-0.4414,-0.5117,-0.5243,-0.5481,-0.5708,-0.6112,-0.64,-0.6433,-0.6564,-0.699,-0.7181,-0.7344,-0.7567,-0.7697,-0.8021,-0.8479,-0.864,-0.8679,-0.8766,-0.8892,-0.94,-0.9871,-1.0628,-1.1861,-1.2786,-1.3897,-1.465,-1.5095,-1.508,-1.5225,-1.5514,-1.566,-1.5842,1.8087,1.894,1.7909,1.7505,1.7458,1.7498,1.685,1.5873,1.5379,1.5015,1.5061,1.4369,1.413,1.4166,1.413,1.4088,1.4166,1.4088,1.3955,1.3633,1.3617,1.3358,1.3018,1.2921,1.1835,1.1133,1.1496,1.0769,0.9744,0.9485,0.9448,0.9523,0.9636,0.941,0.9674,0.9329,0.9107,0.9107,0.8955,0.8841,0.877,0.8732,0.8732,0.858,0.8084,0.7629,0.7514,0.7061,0.6644,0.6528,0.6451,0.6335,0.63,0.63,0.6257,0.5983,0.5944,0.5906,0.5709,0.555,0.5237,0.4647,0.453,0.4021,0.3709,0.3357,0.3202,0.3007,0.2656,0.2186,0.155,0.1415,0.0944,0.0555,0.0253,0.0,-0.0174,-0.0273,-0.0745,-0.1342,-0.1877,-0.2278,-0.2811,-0.3547,-0.4181,-0.445,-0.4755,-0.512,-0.5418,-0.5444,-0.5543,-0.5903,-0.64,-0.6564,-0.6695,-0.6822,-0.7046,-0.7535,-0.76,-0.7605,-0.7699,-0.7766,-0.8067,-0.8613,-0.9254,-1.0153,-1.1418,-1.2519,-1.3362,-1.3797,-1.3884,-1.4273,-1.4779,-1.4849,-1.4654,1.9206,1.9443,1.8956,1.8726,1.8726,1.8734,1.8286,1.7402,1.6461,1.5891,1.5459,1.4532,1.4412,1.4817,1.4454,1.4454,1.4734,1.4454,1.4124,1.4166,1.4146,1.397,1.3546,1.3307,1.2694,1.2337,1.2172,1.1935,1.1099,1.095,1.0987,1.0913,1.095,1.1099,1.0726,1.0383,1.0233,1.0008,0.9631,0.9296,0.9296,0.9334,0.9334,0.9334,0.8879,0.8689,0.8537,0.8351,0.8012,0.8008,0.8008,0.797,0.8008,0.7974,0.7821,0.7134,0.7134,0.683,0.6374,0.6335,0.5983,0.5786,0.555,0.5392,0.4882,0.4334,0.4021,0.4021,0.3398,0.293,0.2618,0.248,0.2219,0.1844,0.144,0.1154,0.099,0.087,0.0583,0.0,-0.0571,-0.0973,-0.1475,-0.2377,-0.3045,-0.3378,-0.358,-0.3813,-0.4115,-0.4312,-0.4447,-0.4649,-0.5216,-0.5719,-0.5851,-0.5947,-0.5976,-0.6301,-0.6338,-0.6404,-0.6531,-0.6699,-0.7083,-0.7502,-0.8144,-0.9119,-1.0205,-1.0929,-1.1594,-1.2166,-1.2735,-1.2806,-1.2877,-1.2902,-1.2744,2.0211,2.0074,1.9762,1.9628,1.962,1.9628,1.9193,1.8523,1.747,1.6845,1.6322,1.5498,1.5428,1.5827,1.5428,1.5511,1.5985,1.5269,1.4985,1.4859,1.4587,1.4448,1.4117,1.3735,1.31,1.2923,1.2397,1.2177,1.2231,1.2194,1.2083,1.2305,1.2003,1.212,1.204,1.1583,1.1162,1.113,1.0576,1.0276,1.0201,1.0196,1.0164,1.0051,0.9863,0.9674,0.9669,0.9296,0.9221,0.9183,0.9107,0.8993,0.9031,0.896,0.877,0.8275,0.8161,0.7931,0.7249,0.6834,0.6412,0.63,0.6335,0.6215,0.6483,0.5741,0.5118,0.5079,0.4608,0.4023,0.3593,0.3511,0.3175,0.3022,0.2832,0.2503,0.2191,0.1978,0.1773,0.1339,0.0781,0.0336,-0.0302,-0.124,-0.1876,-0.2275,-0.2476,-0.2577,-0.2911,-0.3278,-0.348,-0.3682,-0.3982,-0.445,-0.4583,-0.4752,-0.4855,-0.5123,-0.519,-0.5392,-0.5679,-0.5943,-0.6272,-0.6724,-0.6976,-0.7578,-0.8372,-0.9069,-0.973,-1.0178,-1.0528,-1.0621,-1.0684,-1.0825,-1.0917,2.138,2.1662,2.0422,1.9998,2.0034,1.9938,1.935,1.8553,1.8,1.771,1.7413,1.7187,1.6887,1.709,1.6927,1.6895,1.718,1.709,1.6813,1.6486,1.6142,1.5625,1.5101,1.4332,1.3442,1.3313,1.3037,1.2686,1.2452,1.2806,1.2556,1.2305,1.2409,1.2342,1.2268,1.2077,1.1959,1.1966,1.1706,1.1744,1.1781,1.1818,1.1818,1.17,1.1168,1.0677,1.064,1.0045,0.9674,0.9712,0.975,0.975,0.9863,0.9825,0.9636,0.9296,0.9221,0.8993,0.8466,0.748,0.6563,0.6374,0.6525,0.7022,0.7557,0.6795,0.6293,0.6289,0.6009,0.5544,0.4999,0.4528,0.424,0.4024,0.3904,0.3543,0.3233,0.2976,0.2789,0.2539,0.2063,0.1497,0.1179,0.0303,-0.0772,-0.124,-0.1709,-0.1844,-0.2143,-0.2477,-0.2643,-0.2811,-0.2878,-0.3078,-0.3111,-0.3378,-0.3946,-0.4284,-0.4384,-0.4719,-0.512,-0.5352,-0.5176,-0.5279,-0.5467,-0.5997,-0.6433,-0.6868,-0.7359,-0.7966,-0.8481,-0.9125,-0.9461,-0.967,-0.9548,2.0928,2.1025,2.0556,2.0699,2.1172,2.1172,2.0731,1.9994,1.9236,1.8317,1.7549,1.74,1.7706,1.8029,1.7585,1.7747,1.8149,1.7536,1.7464,1.722,1.6854,1.6683,1.6235,1.5708,1.5088,1.4843,1.437,1.4091,1.4163,1.3875,1.4055,1.3839,1.2981,1.2409,1.2305,1.2409,1.2378,1.2342,1.2305,1.2305,1.2305,1.2305,1.2305,1.2231,1.2114,1.1737,1.1663,1.1397,1.1174,1.1136,1.1136,1.1093,1.1062,1.1062,1.0795,1.034,1.0303,0.997,0.9485,0.8618,0.8199,0.8122,0.8199,0.8275,0.8694,0.8275,0.8161,0.8008,0.7518,0.6899,0.6742,0.6089,0.5544,0.5184,0.4917,0.4629,0.4363,0.4142,0.3721,0.3465,0.2947,0.2382,0.2154,0.1931,0.0809,-0.0202,-0.0706,-0.1142,-0.1409,-0.1609,-0.1776,-0.1942,-0.2044,-0.2278,-0.2377,-0.2744,-0.3178,-0.3378,-0.358,-0.3915,-0.4184,-0.3747,-0.3644,-0.3747,-0.3915,-0.4273,-0.4535,-0.4563,-0.5295,-0.6601,-0.7512,-0.8254,-0.8459,-0.8322,-0.8038,2.0857,2.0605,2.0615,2.0957,2.1505,2.1535,2.1318,2.0945,2.0188,1.9388,1.8301,1.8301,1.8669,1.9076,1.8789,1.8709,1.9186,1.8829,1.847,1.823,1.8109,1.7868,1.7437,1.676,1.5907,1.6055,1.5559,1.5092,1.4985,1.5163,1.5021,1.4593,1.3947,1.3411,1.32,1.2835,1.2732,1.2696,1.2409,1.2549,1.2629,1.2732,1.3098,1.32,1.3302,1.3266,1.3302,1.3142,1.2938,1.2865,1.2865,1.2938,1.2806,1.2622,1.2321,1.1866,1.1341,1.0901,1.0346,0.9561,0.9523,0.955,0.9216,0.9372,0.9636,0.9523,0.8993,0.9074,0.8542,0.8237,0.8199,0.7625,0.7318,0.7145,0.658,0.6249,0.5768,0.5473,0.4862,0.4371,0.3815,0.335,0.3076,0.2837,0.1801,0.0844,0.0369,-0.0101,-0.0538,-0.0739,-0.0873,-0.1074,-0.1242,-0.1543,-0.1843,-0.2076,-0.2277,-0.2477,-0.2678,-0.2911,-0.2978,-0.2611,-0.2611,-0.308,-0.3113,-0.2778,-0.2976,-0.3504,-0.4494,-0.5679,-0.6121,-0.6235,-0.6042,-0.5822,-0.6065,2.1479,2.0644,2.0644,2.0664,2.0801,2.0644,2.0674,2.0654,2.0557,2.041,2.0167,2.0245,2.0245,2.0372,2.004,2.0118,2.0206,2.0245,2.0167,1.9844,1.9234,1.8997,1.8385,1.7557,1.6862,1.6159,1.5922,1.5728,1.5482,1.5693,1.5587,1.5517,1.534,1.4942,1.5021,1.4135,1.3709,1.3564,1.2879,1.3127,1.352,1.3665,1.4099,1.4486,1.4629,1.4557,1.4557,1.4557,1.4235,1.3846,1.4343,1.4271,1.3774,1.3702,1.3585,1.3477,1.2762,1.2365,1.2077,1.0389,1.0233,1.064,1.0308,1.0158,1.0415,1.0115,0.9712,1.0013,0.9448,0.9296,0.9221,0.9112,0.8922,0.8656,0.8012,0.7693,0.7227,0.6587,0.5982,0.552,0.4936,0.4406,0.4084,0.3609,0.2658,0.1904,0.1447,0.0973,0.0505,0.037,0.0336,0.0134,-0.0034,-0.0336,-0.0637,-0.1073,-0.1374,-0.1541,-0.1675,-0.1843,-0.2078,-0.2011,-0.2144,-0.2444,-0.2211,-0.181,-0.2177,-0.2676,-0.3203,-0.3533,-0.3571,-0.3575,-0.3405,-0.3635,-0.4163,2.2824,2.2489,2.1811,2.1527,2.1451,2.0857,2.0615,2.0615,2.0615,2.0615,2.0615,2.0615,2.0615,2.0615,2.0615,2.0615,2.0615,2.0615,2.0615,2.0527,2.0118,2.0118,1.9589,1.8825,1.8165,1.8026,1.7524,1.6925,1.7123,1.6872,1.6975,1.7079,1.6689,1.6332,1.5482,1.4772,1.4708,1.4665,1.4414,1.4414,1.4629,1.4708,1.4887,1.5305,1.534,1.5376,1.5411,1.5446,1.5163,1.4772,1.5269,1.5128,1.4772,1.4665,1.47,1.47,1.4199,1.3882,1.3419,1.2455,1.2094,1.1872,1.1471,1.1285,1.1663,1.1545,1.1323,1.1056,1.064,1.049,1.0303,0.9599,0.9258,0.9183,0.8808,0.8808,0.842,0.7728,0.7079,0.6768,0.6298,0.5672,0.5267,0.4985,0.4139,0.3289,0.2841,0.2256,0.178,0.1844,0.1876,0.1608,0.1374,0.1006,0.0638,0.0168,-0.0134,-0.0302,-0.0436,-0.0605,-0.0807,-0.0905,-0.0872,-0.0738,-0.0806,-0.0907,-0.0905,-0.0904,-0.0907,-0.1041,-0.134,-0.2041,-0.2542,-0.2774,-0.3107,2.3818,2.3452,2.2813,2.2515,2.2301,2.1155,2.0615,2.0615,2.0615,2.0615,2.0615,2.0615,2.0615,2.0615,2.0615,2.0615,2.0615,2.0615,2.0615,2.0615,2.0566,2.0527,2.0284,1.9911,1.9224,1.9141,1.8643,1.809,1.7803,1.794,1.7896,1.7828,1.7974,1.7295,1.6446,1.6018,1.5658,1.5544,1.5296,1.5226,1.5517,1.5728,1.586,1.6149,1.6298,1.6263,1.6193,1.6123,1.5974,1.5869,1.5913,1.5948,1.5834,1.5693,1.5685,1.5685,1.5261,1.4879,1.435,1.4163,1.3723,1.3433,1.2806,1.2342,1.2415,1.2475,1.2365,1.2137,1.194,1.1681,1.131,1.0496,1.0346,1.0308,0.997,0.9933,0.9593,0.8893,0.8286,0.7942,0.7685,0.706,0.6456,0.6234,0.581,0.498,0.4221,0.3666,0.31,0.2991,0.2952,0.2678,0.2409,0.2009,0.1709,0.1441,0.1173,0.0974,0.0807,0.0672,0.094,0.0937,0.0939,0.0908,0.0839,0.0838,0.0906,0.0907,0.0772,0.0604,0.0368,-0.0468,-0.1542,-0.1775,-0.1774,2.4492,2.3672,2.3562,2.3562,2.3231,2.1669,2.0828,2.076,2.0799,2.0828,2.0789,2.0944,2.1059,2.0867,2.075,2.0867,2.0905,2.0867,2.0944,2.0867,2.1011,2.0867,2.0612,2.0182,1.9639,1.9238,1.8789,1.8276,1.8047,1.8008,1.8008,1.8008,1.8008,1.7725,1.7398,1.7001,1.6645,1.6463,1.6184,1.6219,1.6541,1.6671,1.6966,1.7251,1.751,1.751,1.7545,1.7545,1.7217,1.7148,1.732,1.7182,1.6966,1.6671,1.6627,1.6419,1.5825,1.5587,1.5269,1.5234,1.5021,1.4514,1.3484,1.2739,1.2806,1.3419,1.3411,1.3346,1.315,1.2908,1.2579,1.2358,1.2137,1.1761,1.1236,1.1013,1.0714,1.0147,0.9513,0.9163,0.9011,0.852,0.7768,0.7409,0.7273,0.6785,0.6043,0.5554,0.4837,0.3664,0.3616,0.3411,0.3111,0.2845,0.2611,0.2377,0.2076,0.1744,0.2011,0.2011,0.2344,0.241,0.2044,0.1945,0.2379,0.2412,0.1977,0.2044,0.231,0.2074,0.1605,0.1238,0.0167,0.0101,0.0101,2.5908,2.5581,2.4886,2.4576,2.4384,2.3184,2.2675,2.2675,2.2675,2.2675,2.2664,2.2675,2.2451,2.2638,2.1962,2.2075,2.2113,2.2113,2.2264,2.2151,2.1849,2.1669,2.126,2.0647,1.9846,1.934,1.8954,1.8666,1.8164,1.8076,1.81,1.8008,1.8236,1.8168,1.8056,1.774,1.7696,1.7526,1.7207,1.7217,1.7389,1.7501,1.775,1.7896,1.8008,1.8008,1.8008,1.8008,1.7716,1.7794,1.7828,1.7759,1.7725,1.7613,1.7569,1.7569,1.726,1.6975,1.6358,1.6175,1.6009,1.5552,1.47,1.4557,1.4486,1.4557,1.4593,1.4343,1.4378,1.4235,1.3882,1.3629,1.3411,1.304,1.2522,1.2124,1.1822,1.1267,1.0671,1.0271,1.0126,0.961,0.8889,0.8734,0.8546,0.8276,0.7893,0.7296,0.6607,0.5436,0.4605,0.4456,0.411,0.3908,0.3445,0.3178,0.2845,0.2611,0.3143,0.3407,0.3272,0.3239,0.2876,0.3076,0.3671,0.3307,0.2577,0.2911,0.354,0.2878,0.2407,0.2243,0.2078,0.1777,0.1576,2.6487,2.6418,2.5851,2.5594,2.5476,2.4945,2.4696,2.4541,2.3843,2.3478,2.3478,2.3441,2.3478,2.3331,2.2888,2.285,2.3305,2.2888,2.2888,2.2962,2.2925,2.2702,2.2152,2.1712,2.1188,2.0457,1.9988,1.9902,1.9119,1.8944,1.9011,1.8586,1.8754,1.8977,1.9077,1.9156,1.911,1.8777,1.8418,1.8134,1.8076,1.8076,1.8008,1.811,1.8076,1.8076,1.8066,1.81,1.8076,1.8008,1.8008,1.8008,1.811,1.8236,1.8168,1.8168,1.8283,1.7876,1.7354,1.7173,1.6828,1.6472,1.6289,1.6298,1.6079,1.6009,1.5552,1.5163,1.5438,1.5544,1.5128,1.4708,1.4494,1.4271,1.3766,1.3302,1.2821,1.2338,1.1866,1.1428,1.0981,1.0458,1.011,1.0045,0.9648,0.908,0.879,0.8536,0.8011,0.7302,0.6435,0.5951,0.5493,0.5104,0.461,0.4381,0.4466,0.4662,0.5318,0.5351,0.4725,0.4824,0.5219,0.5186,0.5124,0.4728,0.4397,0.44,0.4668,0.4071,0.3775,0.3813,0.348,0.2744,0.2611,2.6487,2.6487,2.6487,2.6418,2.6487,2.6383,2.6349,2.6302,2.4612,2.3781,2.3879,2.3818,2.3963,2.4145,2.3806,2.3806,2.4036,2.3854,2.3854,2.3697,2.3708,2.3635,2.3588,2.3411,2.2305,2.2072,2.1686,2.0881,2.0608,2.0236,1.9814,1.9464,2.0009,2.0204,2.0171,2.0171,2.0107,1.9911,1.9199,1.8654,1.8496,1.8337,1.8212,1.8337,1.8405,1.8361,1.8327,1.8259,1.8202,1.8236,1.8303,1.8395,1.8654,1.8954,1.8854,1.8854,1.9133,1.8977,1.861,1.8398,1.8385,1.8216,1.8124,1.791,1.7619,1.707,1.6507,1.6263,1.6507,1.6507,1.6158,1.5658,1.5367,1.5119,1.4764,1.4307,1.3867,1.3542,1.3324,1.296,1.2741,1.2251,1.2061,1.2018,1.2018,1.0668,1.0373,1.0412,1.0066,0.9592,0.8492,0.7719,0.6903,0.6477,0.6217,0.6109,0.6424,0.6809,0.72,0.72,0.6469,0.7,0.7827,0.7195,0.6474,0.6739,0.6645,0.6379,0.6056,0.5796,0.5569,0.5583,0.508,0.4303,0.3844,2.6487,2.6487,2.6487,2.6487,2.6487,2.6487,2.6487,2.6487,2.6047,2.5687,2.5756,2.5721,2.5687,2.5464,2.4886,2.4886,2.5394,2.4921,2.5182,2.5146,2.4992,2.4671,2.448,2.4074,2.3134,2.2303,2.1856,2.1642,2.0965,2.0687,2.059,2.0333,2.0719,2.0878,2.0835,2.0835,2.0846,2.0867,2.0451,1.9977,1.9977,1.9987,1.9987,1.9922,1.9879,1.9781,1.9781,1.9846,1.9911,2.0009,2.0009,2.0009,2.0042,2.0204,2.0171,2.0074,2.0063,2.0009,1.9857,1.965,1.9661,1.9562,1.9398,1.911,1.871,1.8046,1.7613,1.7467,1.7364,1.7295,1.7157,1.6645,1.621,1.5965,1.5728,1.5305,1.4879,1.4736,1.4665,1.4522,1.4414,1.4191,1.3917,1.3881,1.3988,1.3952,1.3945,1.3833,1.3435,1.2822,1.0906,0.9852,0.8448,0.7894,0.7602,0.7532,0.7705,0.7777,0.7984,0.8054,0.8118,0.835,0.8608,0.8156,0.7762,0.7924,0.7957,0.7697,0.7405,0.7083,0.6953,0.6761,0.6957,0.6408,0.5763,2.6487,2.6487,2.6487,2.6487,2.6487,2.6487,2.6487,2.6487,2.6487,2.6487,2.6487,2.6487,2.6487,2.6487,2.5873,2.5804,2.6349,2.5943,2.5943,2.606,2.6025,2.5769,2.5358,2.4957,2.436,2.3502,2.266,2.2126,2.1328,2.1585,2.171,2.1322,2.1385,2.1635,2.1635,2.1667,2.1635,2.1729,2.1635,2.1604,2.1447,2.1132,2.0687,2.059,2.0623,2.0655,2.059,2.059,2.059,2.059,2.0494,2.0494,2.059,2.091,2.091,2.0782,2.0814,2.1005,2.0782,2.0719,2.0719,2.0515,2.0301,1.989,1.9726,1.9056,1.8216,1.8012,1.7784,1.7691,1.7691,1.7329,1.7251,1.7079,1.6906,1.662,1.5869,1.5296,1.5119,1.4914,1.4843,1.4807,1.4613,1.4613,1.4684,1.4728,1.5092,1.5269,1.5213,1.5391,1.3627,1.2172,1.0816,0.9118,0.8144,0.8307,0.8706,0.8766,0.9011,0.9186,0.9442,0.932,0.9192,0.9032,0.893,0.8967,0.8903,0.8646,0.8188,0.7697,0.773,0.78,0.8086,0.8339,0.7687,2.6611,2.6521,2.6487,2.6487,2.6487,2.6487,2.6487,2.6487,2.6487,2.6487,2.6487,2.6487,2.6487,2.6487,2.6487,2.6487,2.6418,2.6267,2.6452,2.6452,2.6418,2.6233,2.6267,2.6239,2.5372,2.4414,2.3498,2.2774,2.2087,2.2414,2.2506,2.2279,2.2598,2.3065,2.3095,2.3065,2.2841,2.275,2.275,2.2914,2.2433,2.176,2.1322,2.1037,2.091,2.0942,2.0942,2.0942,2.0974,2.1037,2.1195,2.1227,2.1385,2.1741,2.1616,2.1542,2.1772,2.1635,2.1353,2.1259,2.1164,2.1037,2.0846,2.0698,2.0558,1.9977,1.9133,1.8721,1.8462,1.8076,1.8042,1.8042,1.8008,1.7974,1.7828,1.7716,1.6853,1.6105,1.5904,1.5658,1.5623,1.5658,1.5658,1.5623,1.5587,1.5552,1.5525,1.5561,1.5685,1.6027,1.5436,1.4421,1.3458,1.1621,0.9892,0.9696,1.0386,1.0541,1.0837,1.0796,1.073,1.0496,1.0338,1.0231,1.0168,0.9939,0.9748,0.9492,0.8967,0.8635,0.9105,0.9456,0.945,0.9609,0.9322,2.7095,2.6487,2.6487,2.6521,2.6521,2.6521,2.6487,2.6487,2.6555,2.6487,2.6624,2.6521,2.6487,2.6521,2.6487,2.6487,2.6487,2.6487,2.6487,2.6487,2.6487,2.6487,2.6411,2.6235,2.5724,2.475,2.3747,2.3087,2.2641,2.2884,2.3035,2.2841,2.2841,2.3095,2.3095,2.3095,2.3095,2.3095,2.3095,2.3095,2.3095,2.272,2.2763,2.2628,2.2616,2.2616,2.2616,2.2628,2.2616,2.2628,2.2506,2.2402,2.2433,2.2525,2.2463,2.2372,2.2598,2.2525,2.2267,2.2206,2.2175,2.2175,2.199,2.1628,2.1333,2.0846,2.0204,1.9879,1.9431,1.8496,1.8303,1.8303,1.8303,1.8303,1.8192,1.8192,1.7799,1.756,1.7389,1.7285,1.7217,1.7251,1.732,1.731,1.7345,1.731,1.7276,1.7276,1.7173,1.7139,1.707,1.6381,1.5636,1.5085,1.3758,1.2391,1.2529,1.2616,1.2398,1.1971,1.1686,1.1586,1.1437,1.1264,1.0926,1.0643,1.0453,1.0566,1.0408,1.0294,1.0885,1.1229,1.1097,1.0996,1.0833]}]]